<?xml version="1.0" encoding="UTF-8" standalone="no" ?>
<gpx xmlns="http://www.topografix.com/GPX/1/1" xmlns:xsi="http://www.w3.org/2001/XMLSchema-instance" xsi:schemaLocation="http://www.topografix.com/GPX/1/1 http://www.topografix.com/GPX/1/1/gpx.xsd" version="1.1" creator="VisuGPX - https://www.visugpx.com">
  <metadata>
    <name>Dent du Chat</name>
    <desc><![CDATA[Un belvédère à 360° en amont du lac du Bourget]]></desc>
  </metadata>
  <trk>
    <name><![CDATA[Dent du Chat]]></name>
    <trkseg>
      <trkpt lat="45.6921" lon="5.84858">
        <ele>630.281494</ele>
        <time>2011-05-24T09:56:25Z</time>
      </trkpt>
      <trkpt lat="45.6921" lon="5.84854">
        <ele>630.281494</ele>
        <time>2011-05-24T09:56:32Z</time>
      </trkpt>
      <trkpt lat="45.69213" lon="5.84847">
        <ele>630.762207</ele>
        <time>2011-05-24T09:56:42Z</time>
      </trkpt>
      <trkpt lat="45.69215" lon="5.84842">
        <ele>631.723389</ele>
        <time>2011-05-24T09:56:50Z</time>
      </trkpt>
      <trkpt lat="45.69219" lon="5.84839">
        <ele>631.723389</ele>
        <time>2011-05-24T09:56:58Z</time>
      </trkpt>
      <trkpt lat="45.69224" lon="5.84833">
        <ele>632.684814</ele>
        <time>2011-05-24T09:57:07Z</time>
      </trkpt>
      <trkpt lat="45.6923" lon="5.84829">
        <ele>633.165283</ele>
        <time>2011-05-24T09:57:18Z</time>
      </trkpt>
      <trkpt lat="45.69235" lon="5.84827">
        <ele>634.607422</ele>
        <time>2011-05-24T09:57:25Z</time>
      </trkpt>
      <trkpt lat="45.69239" lon="5.84827">
        <ele>636.530273</ele>
        <time>2011-05-24T09:57:31Z</time>
      </trkpt>
      <trkpt lat="45.69244" lon="5.84822">
        <ele>637.010742</ele>
        <time>2011-05-24T09:57:38Z</time>
      </trkpt>
      <trkpt lat="45.69252" lon="5.84809">
        <ele>638.452881</ele>
        <time>2011-05-24T09:57:47Z</time>
      </trkpt>
      <trkpt lat="45.69255" lon="5.84788">
        <ele>640.375488</ele>
        <time>2011-05-24T09:57:56Z</time>
      </trkpt>
      <trkpt lat="45.6925" lon="5.8478">
        <ele>640.855957</ele>
        <time>2011-05-24T09:58:03Z</time>
      </trkpt>
      <trkpt lat="45.69242" lon="5.84773">
        <ele>641.817383</ele>
        <time>2011-05-24T09:58:11Z</time>
      </trkpt>
      <trkpt lat="45.69233" lon="5.84774">
        <ele>642.298096</ele>
        <time>2011-05-24T09:58:22Z</time>
      </trkpt>
      <trkpt lat="45.69226" lon="5.84776">
        <ele>643.259277</ele>
        <time>2011-05-24T09:58:31Z</time>
      </trkpt>
      <trkpt lat="45.69222" lon="5.84778">
        <ele>643.73999</ele>
        <time>2011-05-24T09:58:36Z</time>
      </trkpt>
      <trkpt lat="45.69214" lon="5.8478">
        <ele>644.220703</ele>
        <time>2011-05-24T09:58:44Z</time>
      </trkpt>
      <trkpt lat="45.69206" lon="5.8478">
        <ele>645.181885</ele>
        <time>2011-05-24T09:58:53Z</time>
      </trkpt>
      <trkpt lat="45.69196" lon="5.84785">
        <ele>646.143311</ele>
        <time>2011-05-24T09:59:04Z</time>
      </trkpt>
      <trkpt lat="45.69188" lon="5.84788">
        <ele>647.104492</ele>
        <time>2011-05-24T09:59:13Z</time>
      </trkpt>
      <trkpt lat="45.69181" lon="5.84794">
        <ele>648.546387</ele>
        <time>2011-05-24T09:59:23Z</time>
      </trkpt>
      <trkpt lat="45.69174" lon="5.84802">
        <ele>649.0271</ele>
        <time>2011-05-24T09:59:32Z</time>
      </trkpt>
      <trkpt lat="45.69166" lon="5.84808">
        <ele>650.469238</ele>
        <time>2011-05-24T09:59:41Z</time>
      </trkpt>
      <trkpt lat="45.6916" lon="5.8481">
        <ele>650.949707</ele>
        <time>2011-05-24T09:59:48Z</time>
      </trkpt>
      <trkpt lat="45.69153" lon="5.84811">
        <ele>652.391846</ele>
        <time>2011-05-24T09:59:57Z</time>
      </trkpt>
      <trkpt lat="45.69147" lon="5.84812">
        <ele>654.314697</ele>
        <time>2011-05-24T10:00:05Z</time>
      </trkpt>
      <trkpt lat="45.69141" lon="5.84818">
        <ele>654.795166</ele>
        <time>2011-05-24T10:00:15Z</time>
      </trkpt>
      <trkpt lat="45.69134" lon="5.84825">
        <ele>654.795166</ele>
        <time>2011-05-24T10:00:24Z</time>
      </trkpt>
      <trkpt lat="45.69129" lon="5.84832">
        <ele>654.795166</ele>
        <time>2011-05-24T10:00:30Z</time>
      </trkpt>
      <trkpt lat="45.69122" lon="5.8484">
        <ele>655.275879</ele>
        <time>2011-05-24T10:00:39Z</time>
      </trkpt>
      <trkpt lat="45.69113" lon="5.84845">
        <ele>656.237061</ele>
        <time>2011-05-24T10:00:49Z</time>
      </trkpt>
      <trkpt lat="45.69105" lon="5.84849">
        <ele>658.640381</ele>
        <time>2011-05-24T10:00:59Z</time>
      </trkpt>
      <trkpt lat="45.69097" lon="5.84851">
        <ele>661.043701</ele>
        <time>2011-05-24T10:01:09Z</time>
      </trkpt>
      <trkpt lat="45.69092" lon="5.84851">
        <ele>662.966309</ele>
        <time>2011-05-24T10:01:17Z</time>
      </trkpt>
      <trkpt lat="45.69087" lon="5.84851">
        <ele>663.92749</ele>
        <time>2011-05-24T10:01:25Z</time>
      </trkpt>
      <trkpt lat="45.69085" lon="5.84852">
        <ele>664.408203</ele>
        <time>2011-05-24T10:01:31Z</time>
      </trkpt>
      <trkpt lat="45.69082" lon="5.84855">
        <ele>666.330811</ele>
        <time>2011-05-24T10:01:39Z</time>
      </trkpt>
      <trkpt lat="45.69074" lon="5.84856">
        <ele>668.253662</ele>
        <time>2011-05-24T10:01:53Z</time>
      </trkpt>
      <trkpt lat="45.69068" lon="5.84857">
        <ele>670.656982</ele>
        <time>2011-05-24T10:02:01Z</time>
      </trkpt>
      <trkpt lat="45.69064" lon="5.84857">
        <ele>671.618164</ele>
        <time>2011-05-24T10:02:10Z</time>
      </trkpt>
      <trkpt lat="45.69058" lon="5.84858">
        <ele>673.060303</ele>
        <time>2011-05-24T10:02:18Z</time>
      </trkpt>
      <trkpt lat="45.69051" lon="5.84859">
        <ele>674.021484</ele>
        <time>2011-05-24T10:02:26Z</time>
      </trkpt>
      <trkpt lat="45.69047" lon="5.84858">
        <ele>674.502197</ele>
        <time>2011-05-24T10:02:32Z</time>
      </trkpt>
      <trkpt lat="45.69039" lon="5.84858">
        <ele>676.905518</ele>
        <time>2011-05-24T10:02:42Z</time>
      </trkpt>
      <trkpt lat="45.69035" lon="5.8486">
        <ele>677.866699</ele>
        <time>2011-05-24T10:02:50Z</time>
      </trkpt>
      <trkpt lat="45.69029" lon="5.8486">
        <ele>679.308594</ele>
        <time>2011-05-24T10:02:58Z</time>
      </trkpt>
      <trkpt lat="45.69025" lon="5.84862">
        <ele>680.27002</ele>
        <time>2011-05-24T10:03:04Z</time>
      </trkpt>
      <trkpt lat="45.69022" lon="5.84871">
        <ele>681.711914</ele>
        <time>2011-05-24T10:03:14Z</time>
      </trkpt>
      <trkpt lat="45.69017" lon="5.84878">
        <ele>683.634521</ele>
        <time>2011-05-24T10:03:23Z</time>
      </trkpt>
      <trkpt lat="45.69013" lon="5.84882">
        <ele>684.596191</ele>
        <time>2011-05-24T10:03:32Z</time>
      </trkpt>
      <trkpt lat="45.69008" lon="5.84885">
        <ele>686.038086</ele>
        <time>2011-05-24T10:03:42Z</time>
      </trkpt>
      <trkpt lat="45.69003" lon="5.84888">
        <ele>687.960693</ele>
        <time>2011-05-24T10:03:50Z</time>
      </trkpt>
      <trkpt lat="45.68999" lon="5.84892">
        <ele>689.402588</ele>
        <time>2011-05-24T10:03:58Z</time>
      </trkpt>
      <trkpt lat="45.68995" lon="5.84896">
        <ele>690.844482</ele>
        <time>2011-05-24T10:04:07Z</time>
      </trkpt>
      <trkpt lat="45.68991" lon="5.84894">
        <ele>692.286621</ele>
        <time>2011-05-24T10:04:14Z</time>
      </trkpt>
      <trkpt lat="45.68989" lon="5.84887">
        <ele>693.247803</ele>
        <time>2011-05-24T10:04:24Z</time>
      </trkpt>
      <trkpt lat="45.6898" lon="5.84881">
        <ele>696.131836</ele>
        <time>2011-05-24T10:04:39Z</time>
      </trkpt>
      <trkpt lat="45.68976" lon="5.84879">
        <ele>697.57373</ele>
        <time>2011-05-24T10:04:47Z</time>
      </trkpt>
      <trkpt lat="45.68971" lon="5.8488">
        <ele>699.496338</ele>
        <time>2011-05-24T10:04:55Z</time>
      </trkpt>
      <trkpt lat="45.68968" lon="5.84878">
        <ele>700.458008</ele>
        <time>2011-05-24T10:05:02Z</time>
      </trkpt>
      <trkpt lat="45.68963" lon="5.84877">
        <ele>702.380371</ele>
        <time>2011-05-24T10:05:13Z</time>
      </trkpt>
      <trkpt lat="45.68959" lon="5.84872">
        <ele>704.303223</ele>
        <time>2011-05-24T10:05:25Z</time>
      </trkpt>
      <trkpt lat="45.68958" lon="5.84868">
        <ele>705.745117</ele>
        <time>2011-05-24T10:05:34Z</time>
      </trkpt>
      <trkpt lat="45.68959" lon="5.84869">
        <ele>709.109619</ele>
        <time>2011-05-24T10:05:48Z</time>
      </trkpt>
      <trkpt lat="45.6896" lon="5.84867">
        <ele>710.551514</ele>
        <time>2011-05-24T10:05:54Z</time>
      </trkpt>
      <trkpt lat="45.68962" lon="5.84865">
        <ele>712.474121</ele>
        <time>2011-05-24T10:06:03Z</time>
      </trkpt>
      <trkpt lat="45.68965" lon="5.84864">
        <ele>713.435547</ele>
        <time>2011-05-24T10:06:12Z</time>
      </trkpt>
      <trkpt lat="45.68969" lon="5.84864">
        <ele>714.877441</ele>
        <time>2011-05-24T10:06:21Z</time>
      </trkpt>
      <trkpt lat="45.68974" lon="5.84863">
        <ele>715.838867</ele>
        <time>2011-05-24T10:06:31Z</time>
      </trkpt>
      <trkpt lat="45.6898" lon="5.8486">
        <ele>719.203613</ele>
        <time>2011-05-24T10:06:42Z</time>
      </trkpt>
      <trkpt lat="45.68985" lon="5.84853">
        <ele>720.645508</ele>
        <time>2011-05-24T10:06:53Z</time>
      </trkpt>
      <trkpt lat="45.68987" lon="5.84846">
        <ele>722.568115</ele>
        <time>2011-05-24T10:07:02Z</time>
      </trkpt>
      <trkpt lat="45.68989" lon="5.84844">
        <ele>725.451904</ele>
        <time>2011-05-24T10:07:11Z</time>
      </trkpt>
      <trkpt lat="45.68992" lon="5.84843">
        <ele>726.41333</ele>
        <time>2011-05-24T10:07:20Z</time>
      </trkpt>
      <trkpt lat="45.68996" lon="5.84839">
        <ele>728.335938</ele>
        <time>2011-05-24T10:07:31Z</time>
      </trkpt>
      <trkpt lat="45.68994" lon="5.84834">
        <ele>729.777832</ele>
        <time>2011-05-24T10:07:39Z</time>
      </trkpt>
      <trkpt lat="45.68995" lon="5.84824">
        <ele>731.219971</ele>
        <time>2011-05-24T10:07:48Z</time>
      </trkpt>
      <trkpt lat="45.68998" lon="5.84822">
        <ele>732.662109</ele>
        <time>2011-05-24T10:07:57Z</time>
      </trkpt>
      <trkpt lat="45.69001" lon="5.84816">
        <ele>733.623291</ele>
        <time>2011-05-24T10:08:05Z</time>
      </trkpt>
      <trkpt lat="45.69003" lon="5.84812">
        <ele>735.545898</ele>
        <time>2011-05-24T10:08:14Z</time>
      </trkpt>
      <trkpt lat="45.69007" lon="5.84802">
        <ele>737.949219</ele>
        <time>2011-05-24T10:08:25Z</time>
      </trkpt>
      <trkpt lat="45.69003" lon="5.84798">
        <ele>739.391113</ele>
        <time>2011-05-24T10:08:36Z</time>
      </trkpt>
      <trkpt lat="45.69" lon="5.84799">
        <ele>744.678223</ele>
        <time>2011-05-24T10:08:45Z</time>
      </trkpt>
      <trkpt lat="45.69" lon="5.84798">
        <ele>741.794434</ele>
        <time>2011-05-24T10:08:49Z</time>
      </trkpt>
      <trkpt lat="45.68996" lon="5.84799">
        <ele>744.678223</ele>
        <time>2011-05-24T10:08:58Z</time>
      </trkpt>
      <trkpt lat="45.68988" lon="5.84801">
        <ele>745.158936</ele>
        <time>2011-05-24T10:09:09Z</time>
      </trkpt>
      <trkpt lat="45.68984" lon="5.84802">
        <ele>746.120361</ele>
        <time>2011-05-24T10:09:17Z</time>
      </trkpt>
      <trkpt lat="45.68979" lon="5.84805">
        <ele>748.043213</ele>
        <time>2011-05-24T10:09:26Z</time>
      </trkpt>
      <trkpt lat="45.68974" lon="5.84809">
        <ele>749.485107</ele>
        <time>2011-05-24T10:09:35Z</time>
      </trkpt>
      <trkpt lat="45.68967" lon="5.84811">
        <ele>749.96582</ele>
        <time>2011-05-24T10:09:45Z</time>
      </trkpt>
      <trkpt lat="45.68961" lon="5.84812">
        <ele>750.927002</ele>
        <time>2011-05-24T10:09:55Z</time>
      </trkpt>
      <trkpt lat="45.68961" lon="5.84808">
        <ele>753.330322</ele>
        <time>2011-05-24T10:10:04Z</time>
      </trkpt>
      <trkpt lat="45.68957" lon="5.84808">
        <ele>754.291748</ele>
        <time>2011-05-24T10:10:14Z</time>
      </trkpt>
      <trkpt lat="45.68951" lon="5.84809">
        <ele>756.214111</ele>
        <time>2011-05-24T10:10:25Z</time>
      </trkpt>
      <trkpt lat="45.68945" lon="5.84803">
        <ele>757.175537</ele>
        <time>2011-05-24T10:10:36Z</time>
      </trkpt>
      <trkpt lat="45.68943" lon="5.84797">
        <ele>759.098145</ele>
        <time>2011-05-24T10:10:46Z</time>
      </trkpt>
      <trkpt lat="45.68942" lon="5.8479">
        <ele>761.020752</ele>
        <time>2011-05-24T10:10:57Z</time>
      </trkpt>
      <trkpt lat="45.68941" lon="5.8478">
        <ele>762.462646</ele>
        <time>2011-05-24T10:11:06Z</time>
      </trkpt>
      <trkpt lat="45.68939" lon="5.84774">
        <ele>763.424072</ele>
        <time>2011-05-24T10:11:15Z</time>
      </trkpt>
      <trkpt lat="45.68938" lon="5.84768">
        <ele>765.346924</ele>
        <time>2011-05-24T10:11:24Z</time>
      </trkpt>
      <trkpt lat="45.68935" lon="5.84762">
        <ele>765.827637</ele>
        <time>2011-05-24T10:11:34Z</time>
      </trkpt>
      <trkpt lat="45.68931" lon="5.84752">
        <ele>767.269531</ele>
        <time>2011-05-24T10:11:43Z</time>
      </trkpt>
      <trkpt lat="45.68929" lon="5.84744">
        <ele>768.711426</ele>
        <time>2011-05-24T10:11:54Z</time>
      </trkpt>
      <trkpt lat="45.68924" lon="5.8474">
        <ele>769.672852</ele>
        <time>2011-05-24T10:12:02Z</time>
      </trkpt>
      <trkpt lat="45.68922" lon="5.84734">
        <ele>772.075928</ele>
        <time>2011-05-24T10:12:10Z</time>
      </trkpt>
      <trkpt lat="45.68922" lon="5.84732">
        <ele>773.037354</ele>
        <time>2011-05-24T10:12:13Z</time>
      </trkpt>
      <trkpt lat="45.68918" lon="5.84727">
        <ele>773.998535</ele>
        <time>2011-05-24T10:12:22Z</time>
      </trkpt>
      <trkpt lat="45.68917" lon="5.84722">
        <ele>777.363281</ele>
        <time>2011-05-24T10:12:42Z</time>
      </trkpt>
      <trkpt lat="45.68917" lon="5.84725">
        <ele>779.285645</ele>
        <time>2011-05-24T10:12:47Z</time>
      </trkpt>
      <trkpt lat="45.68919" lon="5.84726">
        <ele>780.728027</ele>
        <time>2011-05-24T10:12:57Z</time>
      </trkpt>
      <trkpt lat="45.68924" lon="5.84724">
        <ele>782.169922</ele>
        <time>2011-05-24T10:13:06Z</time>
      </trkpt>
      <trkpt lat="45.68925" lon="5.84717">
        <ele>784.092529</ele>
        <time>2011-05-24T10:13:14Z</time>
      </trkpt>
      <trkpt lat="45.68926" lon="5.8471">
        <ele>785.053955</ele>
        <time>2011-05-24T10:13:24Z</time>
      </trkpt>
      <trkpt lat="45.68925" lon="5.84705">
        <ele>786.015137</ele>
        <time>2011-05-24T10:13:31Z</time>
      </trkpt>
      <trkpt lat="45.68924" lon="5.847">
        <ele>787.457031</ele>
        <time>2011-05-24T10:13:39Z</time>
      </trkpt>
      <trkpt lat="45.68921" lon="5.84696">
        <ele>790.341064</ele>
        <time>2011-05-24T10:13:54Z</time>
      </trkpt>
      <trkpt lat="45.68924" lon="5.84693">
        <ele>792.263672</ele>
        <time>2011-05-24T10:14:03Z</time>
      </trkpt>
      <trkpt lat="45.68925" lon="5.84689">
        <ele>793.705566</ele>
        <time>2011-05-24T10:14:12Z</time>
      </trkpt>
      <trkpt lat="45.68926" lon="5.84682">
        <ele>796.109131</ele>
        <time>2011-05-24T10:14:22Z</time>
      </trkpt>
      <trkpt lat="45.68928" lon="5.84676">
        <ele>797.551025</ele>
        <time>2011-05-24T10:14:31Z</time>
      </trkpt>
      <trkpt lat="45.68931" lon="5.84671">
        <ele>800.915527</ele>
        <time>2011-05-24T10:14:43Z</time>
      </trkpt>
      <trkpt lat="45.68934" lon="5.84665">
        <ele>802.357422</ele>
        <time>2011-05-24T10:14:54Z</time>
      </trkpt>
      <trkpt lat="45.68932" lon="5.84659">
        <ele>803.799561</ele>
        <time>2011-05-24T10:15:06Z</time>
      </trkpt>
      <trkpt lat="45.68927" lon="5.84652">
        <ele>806.202637</ele>
        <time>2011-05-24T10:15:16Z</time>
      </trkpt>
      <trkpt lat="45.68921" lon="5.84647">
        <ele>806.68335</ele>
        <time>2011-05-24T10:15:24Z</time>
      </trkpt>
      <trkpt lat="45.68914" lon="5.84644">
        <ele>807.644775</ele>
        <time>2011-05-24T10:15:32Z</time>
      </trkpt>
      <trkpt lat="45.68909" lon="5.8464">
        <ele>808.125488</ele>
        <time>2011-05-24T10:15:39Z</time>
      </trkpt>
      <trkpt lat="45.68907" lon="5.84637">
        <ele>809.08667</ele>
        <time>2011-05-24T10:15:48Z</time>
      </trkpt>
      <trkpt lat="45.68901" lon="5.84622">
        <ele>812.451416</ele>
        <time>2011-05-24T10:16:06Z</time>
      </trkpt>
      <trkpt lat="45.68901" lon="5.84616">
        <ele>811.970703</ele>
        <time>2011-05-24T10:16:14Z</time>
      </trkpt>
      <trkpt lat="45.68896" lon="5.84608">
        <ele>812.451416</ele>
        <time>2011-05-24T10:19:29Z</time>
      </trkpt>
      <trkpt lat="45.68894" lon="5.84599">
        <ele>811.970703</ele>
        <time>2011-05-24T10:19:36Z</time>
      </trkpt>
      <trkpt lat="45.68892" lon="5.84593">
        <ele>813.412842</ele>
        <time>2011-05-24T10:19:41Z</time>
      </trkpt>
      <trkpt lat="45.68891" lon="5.84589">
        <ele>811.48999</ele>
        <time>2011-05-24T10:19:44Z</time>
      </trkpt>
      <trkpt lat="45.68884" lon="5.84579">
        <ele>811.009277</ele>
        <time>2011-05-24T10:19:52Z</time>
      </trkpt>
      <trkpt lat="45.68878" lon="5.8457">
        <ele>811.48999</ele>
        <time>2011-05-24T10:20:02Z</time>
      </trkpt>
      <trkpt lat="45.6887" lon="5.84561">
        <ele>812.451416</ele>
        <time>2011-05-24T10:20:11Z</time>
      </trkpt>
      <trkpt lat="45.68861" lon="5.84551">
        <ele>812.451416</ele>
        <time>2011-05-24T10:20:20Z</time>
      </trkpt>
      <trkpt lat="45.68854" lon="5.84548">
        <ele>812.451416</ele>
        <time>2011-05-24T10:20:27Z</time>
      </trkpt>
      <trkpt lat="45.68853" lon="5.84538">
        <ele>814.374023</ele>
        <time>2011-05-24T10:20:39Z</time>
      </trkpt>
      <trkpt lat="45.68845" lon="5.84532">
        <ele>816.296631</ele>
        <time>2011-05-24T10:20:51Z</time>
      </trkpt>
      <trkpt lat="45.68841" lon="5.8453">
        <ele>818.699951</ele>
        <time>2011-05-24T10:21:01Z</time>
      </trkpt>
      <trkpt lat="45.68834" lon="5.84535">
        <ele>820.141846</ele>
        <time>2011-05-24T10:21:11Z</time>
      </trkpt>
      <trkpt lat="45.6883" lon="5.84535">
        <ele>821.58374</ele>
        <time>2011-05-24T10:21:19Z</time>
      </trkpt>
      <trkpt lat="45.68831" lon="5.84531">
        <ele>823.025879</ele>
        <time>2011-05-24T10:21:28Z</time>
      </trkpt>
      <trkpt lat="45.68826" lon="5.84529">
        <ele>824.948486</ele>
        <time>2011-05-24T10:21:35Z</time>
      </trkpt>
      <trkpt lat="45.68821" lon="5.84528">
        <ele>826.390381</ele>
        <time>2011-05-24T10:21:43Z</time>
      </trkpt>
      <trkpt lat="45.68817" lon="5.84522">
        <ele>827.832275</ele>
        <time>2011-05-24T10:21:53Z</time>
      </trkpt>
      <trkpt lat="45.68814" lon="5.84519">
        <ele>830.23584</ele>
        <time>2011-05-24T10:22:03Z</time>
      </trkpt>
      <trkpt lat="45.68811" lon="5.84518">
        <ele>831.677734</ele>
        <time>2011-05-24T10:22:11Z</time>
      </trkpt>
      <trkpt lat="45.68807" lon="5.84514">
        <ele>832.63916</ele>
        <time>2011-05-24T10:22:18Z</time>
      </trkpt>
      <trkpt lat="45.68802" lon="5.84514">
        <ele>833.600342</ele>
        <time>2011-05-24T10:22:24Z</time>
      </trkpt>
      <trkpt lat="45.68797" lon="5.84514">
        <ele>835.522949</ele>
        <time>2011-05-24T10:22:33Z</time>
      </trkpt>
      <trkpt lat="45.68793" lon="5.84514">
        <ele>836.484375</ele>
        <time>2011-05-24T10:22:41Z</time>
      </trkpt>
      <trkpt lat="45.68787" lon="5.84513">
        <ele>838.406982</ele>
        <time>2011-05-24T10:22:48Z</time>
      </trkpt>
      <trkpt lat="45.6878" lon="5.84505">
        <ele>840.810059</ele>
        <time>2011-05-24T10:23:03Z</time>
      </trkpt>
      <trkpt lat="45.68776" lon="5.84509">
        <ele>842.252197</ele>
        <time>2011-05-24T10:23:11Z</time>
      </trkpt>
      <trkpt lat="45.68771" lon="5.84508">
        <ele>844.175049</ele>
        <time>2011-05-24T10:23:20Z</time>
      </trkpt>
      <trkpt lat="45.68766" lon="5.84505">
        <ele>845.616943</ele>
        <time>2011-05-24T10:23:29Z</time>
      </trkpt>
      <trkpt lat="45.68763" lon="5.84501">
        <ele>847.058838</ele>
        <time>2011-05-24T10:23:37Z</time>
      </trkpt>
      <trkpt lat="45.68758" lon="5.84501">
        <ele>847.539551</ele>
        <time>2011-05-24T10:23:45Z</time>
      </trkpt>
      <trkpt lat="45.68748" lon="5.84493">
        <ele>846.578369</ele>
        <time>2011-05-24T10:23:55Z</time>
      </trkpt>
      <trkpt lat="45.68741" lon="5.84491">
        <ele>846.097656</ele>
        <time>2011-05-24T10:24:02Z</time>
      </trkpt>
      <trkpt lat="45.68734" lon="5.84484">
        <ele>847.539551</ele>
        <time>2011-05-24T10:24:11Z</time>
      </trkpt>
      <trkpt lat="45.6873" lon="5.84478">
        <ele>848.020264</ele>
        <time>2011-05-24T10:24:17Z</time>
      </trkpt>
      <trkpt lat="45.68725" lon="5.84473">
        <ele>849.942871</ele>
        <time>2011-05-24T10:24:27Z</time>
      </trkpt>
      <trkpt lat="45.68718" lon="5.84469">
        <ele>850.423584</ele>
        <time>2011-05-24T10:24:35Z</time>
      </trkpt>
      <trkpt lat="45.68712" lon="5.84466">
        <ele>850.904053</ele>
        <time>2011-05-24T10:24:42Z</time>
      </trkpt>
      <trkpt lat="45.68709" lon="5.84461">
        <ele>851.865479</ele>
        <time>2011-05-24T10:24:50Z</time>
      </trkpt>
      <trkpt lat="45.68705" lon="5.84457">
        <ele>852.345947</ele>
        <time>2011-05-24T10:24:57Z</time>
      </trkpt>
      <trkpt lat="45.68701" lon="5.8445">
        <ele>854.749268</ele>
        <time>2011-05-24T10:25:05Z</time>
      </trkpt>
      <trkpt lat="45.687" lon="5.84444">
        <ele>855.710693</ele>
        <time>2011-05-24T10:25:12Z</time>
      </trkpt>
      <trkpt lat="45.68694" lon="5.84445">
        <ele>857.152588</ele>
        <time>2011-05-24T10:25:21Z</time>
      </trkpt>
      <trkpt lat="45.68688" lon="5.84439">
        <ele>859.075195</ele>
        <time>2011-05-24T10:25:31Z</time>
      </trkpt>
      <trkpt lat="45.68689" lon="5.84436">
        <ele>861.47876</ele>
        <time>2011-05-24T10:25:39Z</time>
      </trkpt>
      <trkpt lat="45.68688" lon="5.84433">
        <ele>862.920654</ele>
        <time>2011-05-24T10:25:48Z</time>
      </trkpt>
      <trkpt lat="45.68686" lon="5.8443">
        <ele>864.362549</ele>
        <time>2011-05-24T10:25:57Z</time>
      </trkpt>
      <trkpt lat="45.68685" lon="5.84429">
        <ele>865.323975</ele>
        <time>2011-05-24T10:25:59Z</time>
      </trkpt>
      <trkpt lat="45.68689" lon="5.84426">
        <ele>867.246582</ele>
        <time>2011-05-24T10:26:07Z</time>
      </trkpt>
      <trkpt lat="45.68693" lon="5.84425">
        <ele>867.727051</ele>
        <time>2011-05-24T10:26:14Z</time>
      </trkpt>
      <trkpt lat="45.68693" lon="5.84422">
        <ele>869.649902</ele>
        <time>2011-05-24T10:26:22Z</time>
      </trkpt>
      <trkpt lat="45.68691" lon="5.84422">
        <ele>871.572266</ele>
        <time>2011-05-24T10:26:32Z</time>
      </trkpt>
      <trkpt lat="45.68689" lon="5.8441">
        <ele>873.014404</ele>
        <time>2011-05-24T10:26:46Z</time>
      </trkpt>
      <trkpt lat="45.68684" lon="5.84405">
        <ele>873.975586</ele>
        <time>2011-05-24T10:26:56Z</time>
      </trkpt>
      <trkpt lat="45.6868" lon="5.844">
        <ele>876.859863</ele>
        <time>2011-05-24T10:27:05Z</time>
      </trkpt>
      <trkpt lat="45.68679" lon="5.84396">
        <ele>877.340576</ele>
        <time>2011-05-24T10:27:12Z</time>
      </trkpt>
      <trkpt lat="45.6868" lon="5.84394">
        <ele>879.743652</ele>
        <time>2011-05-24T10:27:22Z</time>
      </trkpt>
      <trkpt lat="45.68674" lon="5.84397">
        <ele>880.705078</ele>
        <time>2011-05-24T10:27:31Z</time>
      </trkpt>
      <trkpt lat="45.68665" lon="5.84396">
        <ele>883.108154</ele>
        <time>2011-05-24T10:27:41Z</time>
      </trkpt>
      <trkpt lat="45.68662" lon="5.84394">
        <ele>885.031006</ele>
        <time>2011-05-24T10:27:50Z</time>
      </trkpt>
      <trkpt lat="45.68657" lon="5.84394">
        <ele>885.511475</ele>
        <time>2011-05-24T10:28:00Z</time>
      </trkpt>
      <trkpt lat="45.68652" lon="5.84394">
        <ele>887.434082</ele>
        <time>2011-05-24T10:28:08Z</time>
      </trkpt>
      <trkpt lat="45.68648" lon="5.84398">
        <ele>888.395508</ele>
        <time>2011-05-24T10:28:19Z</time>
      </trkpt>
      <trkpt lat="45.68643" lon="5.84401">
        <ele>889.356689</ele>
        <time>2011-05-24T10:28:27Z</time>
      </trkpt>
      <trkpt lat="45.68638" lon="5.84402">
        <ele>891.279297</ele>
        <time>2011-05-24T10:28:36Z</time>
      </trkpt>
      <trkpt lat="45.68632" lon="5.84402">
        <ele>891.279297</ele>
        <time>2011-05-24T10:28:45Z</time>
      </trkpt>
      <trkpt lat="45.68627" lon="5.84405">
        <ele>892.72168</ele>
        <time>2011-05-24T10:28:54Z</time>
      </trkpt>
      <trkpt lat="45.68621" lon="5.84412">
        <ele>894.163574</ele>
        <time>2011-05-24T10:29:03Z</time>
      </trkpt>
      <trkpt lat="45.68616" lon="5.84415">
        <ele>894.644043</ele>
        <time>2011-05-24T10:29:10Z</time>
      </trkpt>
      <trkpt lat="45.68609" lon="5.84419">
        <ele>895.605469</ele>
        <time>2011-05-24T10:29:18Z</time>
      </trkpt>
      <trkpt lat="45.68605" lon="5.8442">
        <ele>895.605469</ele>
        <time>2011-05-24T10:29:25Z</time>
      </trkpt>
      <trkpt lat="45.68602" lon="5.84419">
        <ele>897.528076</ele>
        <time>2011-05-24T10:29:34Z</time>
      </trkpt>
      <trkpt lat="45.68601" lon="5.84412">
        <ele>898.489258</ele>
        <time>2011-05-24T10:29:42Z</time>
      </trkpt>
      <trkpt lat="45.686" lon="5.84405">
        <ele>899.450684</ele>
        <time>2011-05-24T10:29:50Z</time>
      </trkpt>
      <trkpt lat="45.68602" lon="5.84397">
        <ele>901.373291</ele>
        <time>2011-05-24T10:30:02Z</time>
      </trkpt>
      <trkpt lat="45.68603" lon="5.84389">
        <ele>901.854004</ele>
        <time>2011-05-24T10:30:09Z</time>
      </trkpt>
      <trkpt lat="45.68607" lon="5.84376">
        <ele>903.295898</ele>
        <time>2011-05-24T10:30:20Z</time>
      </trkpt>
      <trkpt lat="45.68606" lon="5.84374">
        <ele>905.699219</ele>
        <time>2011-05-24T10:30:28Z</time>
      </trkpt>
      <trkpt lat="45.68604" lon="5.84367">
        <ele>907.621826</ele>
        <time>2011-05-24T10:30:35Z</time>
      </trkpt>
      <trkpt lat="45.68605" lon="5.8436">
        <ele>908.102783</ele>
        <time>2011-05-24T10:30:42Z</time>
      </trkpt>
      <trkpt lat="45.68599" lon="5.84356">
        <ele>910.505859</ele>
        <time>2011-05-24T10:30:51Z</time>
      </trkpt>
      <trkpt lat="45.68594" lon="5.84356">
        <ele>911.467285</ele>
        <time>2011-05-24T10:31:00Z</time>
      </trkpt>
      <trkpt lat="45.68588" lon="5.84357">
        <ele>912.428467</ele>
        <time>2011-05-24T10:31:08Z</time>
      </trkpt>
      <trkpt lat="45.6858" lon="5.84352">
        <ele>914.351074</ele>
        <time>2011-05-24T10:31:18Z</time>
      </trkpt>
      <trkpt lat="45.68575" lon="5.84353">
        <ele>915.3125</ele>
        <time>2011-05-24T10:31:27Z</time>
      </trkpt>
      <trkpt lat="45.68572" lon="5.84357">
        <ele>915.3125</ele>
        <time>2011-05-24T10:31:33Z</time>
      </trkpt>
      <trkpt lat="45.68567" lon="5.84359">
        <ele>916.754395</ele>
        <time>2011-05-24T10:31:44Z</time>
      </trkpt>
      <trkpt lat="45.68558" lon="5.8436">
        <ele>918.677002</ele>
        <time>2011-05-24T10:31:55Z</time>
      </trkpt>
      <trkpt lat="45.68551" lon="5.84364">
        <ele>923.00293</ele>
        <time>2011-05-24T10:32:03Z</time>
      </trkpt>
      <trkpt lat="45.68544" lon="5.8437">
        <ele>922.041504</ele>
        <time>2011-05-24T10:32:15Z</time>
      </trkpt>
      <trkpt lat="45.68537" lon="5.84371">
        <ele>922.522217</ele>
        <time>2011-05-24T10:32:23Z</time>
      </trkpt>
      <trkpt lat="45.68531" lon="5.84373">
        <ele>923.483643</ele>
        <time>2011-05-24T10:32:30Z</time>
      </trkpt>
      <trkpt lat="45.68527" lon="5.84376">
        <ele>924.445068</ele>
        <time>2011-05-24T10:32:37Z</time>
      </trkpt>
      <trkpt lat="45.68523" lon="5.84378">
        <ele>925.886963</ele>
        <time>2011-05-24T10:32:45Z</time>
      </trkpt>
      <trkpt lat="45.68522" lon="5.84377">
        <ele>926.848389</ele>
        <time>2011-05-24T10:32:53Z</time>
      </trkpt>
      <trkpt lat="45.68524" lon="5.84372">
        <ele>929.251465</ele>
        <time>2011-05-24T10:33:02Z</time>
      </trkpt>
      <trkpt lat="45.68522" lon="5.84368">
        <ele>930.693604</ele>
        <time>2011-05-24T10:33:16Z</time>
      </trkpt>
      <trkpt lat="45.68523" lon="5.8436">
        <ele>932.135498</ele>
        <time>2011-05-24T10:33:23Z</time>
      </trkpt>
      <trkpt lat="45.68524" lon="5.84352">
        <ele>933.577393</ele>
        <time>2011-05-24T10:33:32Z</time>
      </trkpt>
      <trkpt lat="45.68524" lon="5.8434">
        <ele>935.5</ele>
        <time>2011-05-24T10:33:41Z</time>
      </trkpt>
      <trkpt lat="45.68517" lon="5.8433">
        <ele>936.941895</ele>
        <time>2011-05-24T10:33:51Z</time>
      </trkpt>
      <trkpt lat="45.68513" lon="5.84324">
        <ele>937.90332</ele>
        <time>2011-05-24T10:33:59Z</time>
      </trkpt>
      <trkpt lat="45.68515" lon="5.84319">
        <ele>940.306885</ele>
        <time>2011-05-24T10:34:09Z</time>
      </trkpt>
      <trkpt lat="45.68517" lon="5.84318">
        <ele>944.1521</ele>
        <time>2011-05-24T10:34:36Z</time>
      </trkpt>
      <trkpt lat="45.68521" lon="5.84312">
        <ele>945.113281</ele>
        <time>2011-05-24T10:34:45Z</time>
      </trkpt>
      <trkpt lat="45.68521" lon="5.84301">
        <ele>947.516602</ele>
        <time>2011-05-24T10:34:55Z</time>
      </trkpt>
      <trkpt lat="45.68518" lon="5.84296">
        <ele>947.997314</ele>
        <time>2011-05-24T10:35:03Z</time>
      </trkpt>
      <trkpt lat="45.68514" lon="5.8429">
        <ele>949.439209</ele>
        <time>2011-05-24T10:35:11Z</time>
      </trkpt>
      <trkpt lat="45.68507" lon="5.84287">
        <ele>951.361816</ele>
        <time>2011-05-24T10:35:20Z</time>
      </trkpt>
      <trkpt lat="45.68501" lon="5.84293">
        <ele>951.842529</ele>
        <time>2011-05-24T10:35:29Z</time>
      </trkpt>
      <trkpt lat="45.68497" lon="5.84292">
        <ele>952.322998</ele>
        <time>2011-05-24T10:35:37Z</time>
      </trkpt>
      <trkpt lat="45.68492" lon="5.8429">
        <ele>954.726318</ele>
        <time>2011-05-24T10:35:46Z</time>
      </trkpt>
      <trkpt lat="45.68488" lon="5.8429">
        <ele>956.168457</ele>
        <time>2011-05-24T10:35:52Z</time>
      </trkpt>
      <trkpt lat="45.68484" lon="5.84289">
        <ele>957.129883</ele>
        <time>2011-05-24T10:36:02Z</time>
      </trkpt>
      <trkpt lat="45.68475" lon="5.8429">
        <ele>958.571777</ele>
        <time>2011-05-24T10:36:12Z</time>
      </trkpt>
      <trkpt lat="45.68469" lon="5.8429">
        <ele>960.975098</ele>
        <time>2011-05-24T10:36:23Z</time>
      </trkpt>
      <trkpt lat="45.68462" lon="5.84296">
        <ele>961.455811</ele>
        <time>2011-05-24T10:36:33Z</time>
      </trkpt>
      <trkpt lat="45.68456" lon="5.84295">
        <ele>962.897705</ele>
        <time>2011-05-24T10:36:41Z</time>
      </trkpt>
      <trkpt lat="45.68449" lon="5.84292">
        <ele>962.416992</ele>
        <time>2011-05-24T10:36:49Z</time>
      </trkpt>
      <trkpt lat="45.68447" lon="5.84293">
        <ele>965.781738</ele>
        <time>2011-05-24T10:36:52Z</time>
      </trkpt>
      <trkpt lat="45.68446" lon="5.84293">
        <ele>961.936523</ele>
        <time>2011-05-24T10:36:53Z</time>
      </trkpt>
      <trkpt lat="45.68443" lon="5.84294">
        <ele>961.455811</ele>
        <time>2011-05-24T10:36:59Z</time>
      </trkpt>
      <trkpt lat="45.68436" lon="5.84293">
        <ele>962.897705</ele>
        <time>2011-05-24T10:37:08Z</time>
      </trkpt>
      <trkpt lat="45.68432" lon="5.84289">
        <ele>964.820313</ele>
        <time>2011-05-24T10:37:17Z</time>
      </trkpt>
      <trkpt lat="45.68427" lon="5.84281">
        <ele>964.820313</ele>
        <time>2011-05-24T10:37:25Z</time>
      </trkpt>
      <trkpt lat="45.68422" lon="5.84277">
        <ele>963.378418</ele>
        <time>2011-05-24T10:37:31Z</time>
      </trkpt>
      <trkpt lat="45.68417" lon="5.84272">
        <ele>963.858887</ele>
        <time>2011-05-24T10:37:38Z</time>
      </trkpt>
      <trkpt lat="45.68414" lon="5.84266">
        <ele>963.858887</ele>
        <time>2011-05-24T10:37:45Z</time>
      </trkpt>
      <trkpt lat="45.6841" lon="5.8426">
        <ele>963.858887</ele>
        <time>2011-05-24T10:37:53Z</time>
      </trkpt>
      <trkpt lat="45.68409" lon="5.84254">
        <ele>962.416992</ele>
        <time>2011-05-24T10:38:00Z</time>
      </trkpt>
      <trkpt lat="45.68409" lon="5.84245">
        <ele>960.975098</ele>
        <time>2011-05-24T10:38:08Z</time>
      </trkpt>
      <trkpt lat="45.68407" lon="5.84238">
        <ele>960.975098</ele>
        <time>2011-05-24T10:38:14Z</time>
      </trkpt>
      <trkpt lat="45.684" lon="5.84224">
        <ele>958.571777</ele>
        <time>2011-05-24T10:38:29Z</time>
      </trkpt>
      <trkpt lat="45.68395" lon="5.84218">
        <ele>956.64917</ele>
        <time>2011-05-24T10:38:39Z</time>
      </trkpt>
      <trkpt lat="45.68392" lon="5.84212">
        <ele>955.687744</ele>
        <time>2011-05-24T10:38:45Z</time>
      </trkpt>
      <trkpt lat="45.68387" lon="5.84202">
        <ele>954.726318</ele>
        <time>2011-05-24T10:38:52Z</time>
      </trkpt>
      <trkpt lat="45.6838" lon="5.84194">
        <ele>958.571777</ele>
        <time>2011-05-24T10:39:09Z</time>
      </trkpt>
      <trkpt lat="45.68373" lon="5.84198">
        <ele>959.533203</ele>
        <time>2011-05-24T10:39:16Z</time>
      </trkpt>
      <trkpt lat="45.68365" lon="5.84204">
        <ele>962.416992</ele>
        <time>2011-05-24T10:39:26Z</time>
      </trkpt>
      <trkpt lat="45.68362" lon="5.84206">
        <ele>963.378418</ele>
        <time>2011-05-24T10:39:35Z</time>
      </trkpt>
      <trkpt lat="45.68359" lon="5.84205">
        <ele>965.301025</ele>
        <time>2011-05-24T10:39:48Z</time>
      </trkpt>
      <trkpt lat="45.68355" lon="5.84206">
        <ele>967.704102</ele>
        <time>2011-05-24T10:39:57Z</time>
      </trkpt>
      <trkpt lat="45.68352" lon="5.84205">
        <ele>969.14624</ele>
        <time>2011-05-24T10:40:06Z</time>
      </trkpt>
      <trkpt lat="45.68354" lon="5.84204">
        <ele>970.588135</ele>
        <time>2011-05-24T10:40:18Z</time>
      </trkpt>
      <trkpt lat="45.68352" lon="5.84206">
        <ele>972.510986</ele>
        <time>2011-05-24T10:40:28Z</time>
      </trkpt>
      <trkpt lat="45.68359" lon="5.84209">
        <ele>977.317627</ele>
        <time>2011-05-24T10:40:52Z</time>
      </trkpt>
      <trkpt lat="45.68358" lon="5.84205">
        <ele>980.682129</ele>
        <time>2011-05-24T10:41:07Z</time>
      </trkpt>
      <trkpt lat="45.68356" lon="5.84198">
        <ele>983.085205</ele>
        <time>2011-05-24T10:41:21Z</time>
      </trkpt>
      <trkpt lat="45.68353" lon="5.84189">
        <ele>985.488525</ele>
        <time>2011-05-24T10:41:38Z</time>
      </trkpt>
      <trkpt lat="45.68356" lon="5.84182">
        <ele>987.891846</ele>
        <time>2011-05-24T10:41:53Z</time>
      </trkpt>
      <trkpt lat="45.68359" lon="5.84185">
        <ele>989.814697</ele>
        <time>2011-05-24T10:42:04Z</time>
      </trkpt>
      <trkpt lat="45.6836" lon="5.84186">
        <ele>990.29541</ele>
        <time>2011-05-24T10:42:13Z</time>
      </trkpt>
      <trkpt lat="45.68358" lon="5.84183">
        <ele>992.218018</ele>
        <time>2011-05-24T10:42:23Z</time>
      </trkpt>
      <trkpt lat="45.68361" lon="5.8418">
        <ele>993.659912</ele>
        <time>2011-05-24T10:42:30Z</time>
      </trkpt>
      <trkpt lat="45.68359" lon="5.84179">
        <ele>995.58252</ele>
        <time>2011-05-24T10:42:37Z</time>
      </trkpt>
      <trkpt lat="45.68356" lon="5.84179">
        <ele>999.427734</ele>
        <time>2011-05-24T10:42:48Z</time>
      </trkpt>
      <trkpt lat="45.68347" lon="5.84174">
        <ele>999.427734</ele>
        <time>2011-05-24T10:43:00Z</time>
      </trkpt>
      <trkpt lat="45.68343" lon="5.8417">
        <ele>1001.350342</ele>
        <time>2011-05-24T10:43:06Z</time>
      </trkpt>
      <trkpt lat="45.68342" lon="5.84169">
        <ele>1000.869629</ele>
        <time>2011-05-24T10:43:08Z</time>
      </trkpt>
      <trkpt lat="45.68342" lon="5.84171">
        <ele>1001.831055</ele>
        <time>2011-05-24T10:43:12Z</time>
      </trkpt>
      <trkpt lat="45.68339" lon="5.84169">
        <ele>1001.831055</ele>
        <time>2011-05-24T10:43:20Z</time>
      </trkpt>
      <trkpt lat="45.68337" lon="5.84163">
        <ele>1004.715088</ele>
        <time>2011-05-24T10:43:30Z</time>
      </trkpt>
      <trkpt lat="45.68334" lon="5.84159">
        <ele>1005.195801</ele>
        <time>2011-05-24T10:43:39Z</time>
      </trkpt>
      <trkpt lat="45.68332" lon="5.84157">
        <ele>1006.637695</ele>
        <time>2011-05-24T10:43:49Z</time>
      </trkpt>
      <trkpt lat="45.68331" lon="5.84162">
        <ele>1008.560303</ele>
        <time>2011-05-24T10:44:03Z</time>
      </trkpt>
      <trkpt lat="45.6833" lon="5.84159">
        <ele>1010.48291</ele>
        <time>2011-05-24T10:44:12Z</time>
      </trkpt>
      <trkpt lat="45.68333" lon="5.84153">
        <ele>1011.444336</ele>
        <time>2011-05-24T10:44:19Z</time>
      </trkpt>
      <trkpt lat="45.68331" lon="5.84146">
        <ele>1012.405518</ele>
        <time>2011-05-24T10:44:28Z</time>
      </trkpt>
      <trkpt lat="45.68329" lon="5.84141">
        <ele>1016.250732</ele>
        <time>2011-05-24T10:44:47Z</time>
      </trkpt>
      <trkpt lat="45.68325" lon="5.84137">
        <ele>1017.212158</ele>
        <time>2011-05-24T10:44:56Z</time>
      </trkpt>
      <trkpt lat="45.68324" lon="5.84137">
        <ele>1018.654053</ele>
        <time>2011-05-24T10:45:04Z</time>
      </trkpt>
      <trkpt lat="45.68318" lon="5.84138">
        <ele>1022.018799</ele>
        <time>2011-05-24T10:45:16Z</time>
      </trkpt>
      <trkpt lat="45.68312" lon="5.8414">
        <ele>1023.941406</ele>
        <time>2011-05-24T10:45:26Z</time>
      </trkpt>
      <trkpt lat="45.6831" lon="5.84137">
        <ele>1024.902832</ele>
        <time>2011-05-24T10:45:33Z</time>
      </trkpt>
      <trkpt lat="45.68309" lon="5.84132">
        <ele>1025.864014</ele>
        <time>2011-05-24T10:45:43Z</time>
      </trkpt>
      <trkpt lat="45.68301" lon="5.84129">
        <ele>1029.709229</ele>
        <time>2011-05-24T10:56:51Z</time>
      </trkpt>
      <trkpt lat="45.68303" lon="5.84124">
        <ele>1031.151367</ele>
        <time>2011-05-24T10:56:59Z</time>
      </trkpt>
      <trkpt lat="45.68302" lon="5.84115">
        <ele>1032.112549</ele>
        <time>2011-05-24T10:57:09Z</time>
      </trkpt>
      <trkpt lat="45.683" lon="5.84109">
        <ele>1033.07373</ele>
        <time>2011-05-24T10:57:16Z</time>
      </trkpt>
      <trkpt lat="45.683" lon="5.841">
        <ele>1033.554443</ele>
        <time>2011-05-24T10:57:24Z</time>
      </trkpt>
      <trkpt lat="45.68304" lon="5.84088">
        <ele>1034.515869</ele>
        <time>2011-05-24T10:57:34Z</time>
      </trkpt>
      <trkpt lat="45.68304" lon="5.84076">
        <ele>1035.477051</ele>
        <time>2011-05-24T10:57:44Z</time>
      </trkpt>
      <trkpt lat="45.68301" lon="5.84069">
        <ele>1036.919189</ele>
        <time>2011-05-24T10:57:53Z</time>
      </trkpt>
      <trkpt lat="45.68297" lon="5.84061">
        <ele>1038.361328</ele>
        <time>2011-05-24T10:58:01Z</time>
      </trkpt>
      <trkpt lat="45.68294" lon="5.84055">
        <ele>1040.764404</ele>
        <time>2011-05-24T10:58:09Z</time>
      </trkpt>
      <trkpt lat="45.68289" lon="5.8405">
        <ele>1043.648438</ele>
        <time>2011-05-24T10:58:20Z</time>
      </trkpt>
      <trkpt lat="45.68285" lon="5.84047">
        <ele>1044.12915</ele>
        <time>2011-05-24T10:58:27Z</time>
      </trkpt>
      <trkpt lat="45.68279" lon="5.84036">
        <ele>1045.571045</ele>
        <time>2011-05-24T10:58:39Z</time>
      </trkpt>
      <trkpt lat="45.68277" lon="5.84031">
        <ele>1045.571045</ele>
        <time>2011-05-24T10:58:47Z</time>
      </trkpt>
      <trkpt lat="45.68275" lon="5.84026">
        <ele>1047.493652</ele>
        <time>2011-05-24T10:58:57Z</time>
      </trkpt>
      <trkpt lat="45.68275" lon="5.84024">
        <ele>1048.454834</ele>
        <time>2011-05-24T10:59:01Z</time>
      </trkpt>
      <trkpt lat="45.68274" lon="5.84021">
        <ele>1049.896973</ele>
        <time>2011-05-24T10:59:10Z</time>
      </trkpt>
      <trkpt lat="45.68275" lon="5.84017">
        <ele>1051.81958</ele>
        <time>2011-05-24T10:59:20Z</time>
      </trkpt>
      <trkpt lat="45.68275" lon="5.84014">
        <ele>1053.261719</ele>
        <time>2011-05-24T10:59:28Z</time>
      </trkpt>
      <trkpt lat="45.68278" lon="5.84009">
        <ele>1054.703613</ele>
        <time>2011-05-24T10:59:36Z</time>
      </trkpt>
      <trkpt lat="45.68277" lon="5.84">
        <ele>1056.145508</ele>
        <time>2011-05-24T10:59:45Z</time>
      </trkpt>
      <trkpt lat="45.68275" lon="5.83992">
        <ele>1057.587646</ele>
        <time>2011-05-24T10:59:57Z</time>
      </trkpt>
      <trkpt lat="45.68273" lon="5.83986">
        <ele>1058.548828</ele>
        <time>2011-05-24T11:00:07Z</time>
      </trkpt>
      <trkpt lat="45.68269" lon="5.8398">
        <ele>1060.471436</ele>
        <time>2011-05-24T11:00:17Z</time>
      </trkpt>
      <trkpt lat="45.68263" lon="5.83976">
        <ele>1062.394043</ele>
        <time>2011-05-24T11:00:24Z</time>
      </trkpt>
      <trkpt lat="45.68259" lon="5.83974">
        <ele>1063.355469</ele>
        <time>2011-05-24T11:00:32Z</time>
      </trkpt>
      <trkpt lat="45.68256" lon="5.8397">
        <ele>1064.31665</ele>
        <time>2011-05-24T11:00:41Z</time>
      </trkpt>
      <trkpt lat="45.68251" lon="5.83962">
        <ele>1064.31665</ele>
        <time>2011-05-24T11:00:49Z</time>
      </trkpt>
      <trkpt lat="45.68244" lon="5.83957">
        <ele>1064.31665</ele>
        <time>2011-05-24T11:00:59Z</time>
      </trkpt>
      <trkpt lat="45.68238" lon="5.83954">
        <ele>1064.797363</ele>
        <time>2011-05-24T11:01:07Z</time>
      </trkpt>
      <trkpt lat="45.68232" lon="5.83946">
        <ele>1064.31665</ele>
        <time>2011-05-24T11:01:16Z</time>
      </trkpt>
      <trkpt lat="45.68222" lon="5.83943">
        <ele>1066.239258</ele>
        <time>2011-05-24T11:01:26Z</time>
      </trkpt>
      <trkpt lat="45.68216" lon="5.8394">
        <ele>1067.200684</ele>
        <time>2011-05-24T11:01:36Z</time>
      </trkpt>
      <trkpt lat="45.68212" lon="5.83934">
        <ele>1069.604248</ele>
        <time>2011-05-24T11:01:48Z</time>
      </trkpt>
      <trkpt lat="45.6821" lon="5.83929">
        <ele>1071.046143</ele>
        <time>2011-05-24T11:01:56Z</time>
      </trkpt>
      <trkpt lat="45.68207" lon="5.83924">
        <ele>1071.526611</ele>
        <time>2011-05-24T11:02:02Z</time>
      </trkpt>
      <trkpt lat="45.68202" lon="5.83918">
        <ele>1072.007324</ele>
        <time>2011-05-24T11:02:10Z</time>
      </trkpt>
      <trkpt lat="45.68197" lon="5.8391">
        <ele>1072.488037</ele>
        <time>2011-05-24T11:02:18Z</time>
      </trkpt>
      <trkpt lat="45.68193" lon="5.83906">
        <ele>1073.929932</ele>
        <time>2011-05-24T11:02:27Z</time>
      </trkpt>
      <trkpt lat="45.68187" lon="5.83903">
        <ele>1075.371826</ele>
        <time>2011-05-24T11:02:35Z</time>
      </trkpt>
      <trkpt lat="45.68185" lon="5.83901">
        <ele>1076.813965</ele>
        <time>2011-05-24T11:02:46Z</time>
      </trkpt>
      <trkpt lat="45.68183" lon="5.83904">
        <ele>1077.775146</ele>
        <time>2011-05-24T11:02:55Z</time>
      </trkpt>
      <trkpt lat="45.68182" lon="5.83901">
        <ele>1079.697754</ele>
        <time>2011-05-24T11:03:04Z</time>
      </trkpt>
      <trkpt lat="45.68178" lon="5.83898">
        <ele>1081.620361</ele>
        <time>2011-05-24T11:03:13Z</time>
      </trkpt>
      <trkpt lat="45.68172" lon="5.83903">
        <ele>1082.581787</ele>
        <time>2011-05-24T11:03:23Z</time>
      </trkpt>
      <trkpt lat="45.68167" lon="5.83907">
        <ele>1083.542969</ele>
        <time>2011-05-24T11:03:30Z</time>
      </trkpt>
      <trkpt lat="45.68164" lon="5.83912">
        <ele>1085.46582</ele>
        <time>2011-05-24T11:03:40Z</time>
      </trkpt>
      <trkpt lat="45.68161" lon="5.83914">
        <ele>1086.427246</ele>
        <time>2011-05-24T11:03:48Z</time>
      </trkpt>
      <trkpt lat="45.68157" lon="5.83912">
        <ele>1087.388428</ele>
        <time>2011-05-24T11:03:56Z</time>
      </trkpt>
      <trkpt lat="45.68152" lon="5.8391">
        <ele>1087.869141</ele>
        <time>2011-05-24T11:04:05Z</time>
      </trkpt>
      <trkpt lat="45.68147" lon="5.83906">
        <ele>1089.791748</ele>
        <time>2011-05-24T11:04:15Z</time>
      </trkpt>
      <trkpt lat="45.68142" lon="5.83902">
        <ele>1090.272461</ele>
        <time>2011-05-24T11:04:24Z</time>
      </trkpt>
      <trkpt lat="45.68139" lon="5.83895">
        <ele>1091.233643</ele>
        <time>2011-05-24T11:04:34Z</time>
      </trkpt>
      <trkpt lat="45.68137" lon="5.8389">
        <ele>1090.75293</ele>
        <time>2011-05-24T11:04:42Z</time>
      </trkpt>
      <trkpt lat="45.68137" lon="5.83882">
        <ele>1089.791748</ele>
        <time>2011-05-24T11:04:52Z</time>
      </trkpt>
      <trkpt lat="45.68137" lon="5.83873">
        <ele>1088.349854</ele>
        <time>2011-05-24T11:04:59Z</time>
      </trkpt>
      <trkpt lat="45.68134" lon="5.83866">
        <ele>1087.388428</ele>
        <time>2011-05-24T11:05:06Z</time>
      </trkpt>
      <trkpt lat="45.68127" lon="5.83866">
        <ele>1086.427246</ele>
        <time>2011-05-24T11:05:15Z</time>
      </trkpt>
      <trkpt lat="45.6812" lon="5.83867">
        <ele>1084.985352</ele>
        <time>2011-05-24T11:05:23Z</time>
      </trkpt>
      <trkpt lat="45.68113" lon="5.83868">
        <ele>1083.542969</ele>
        <time>2011-05-24T11:05:31Z</time>
      </trkpt>
      <trkpt lat="45.68104" lon="5.8387">
        <ele>1083.542969</ele>
        <time>2011-05-24T11:05:41Z</time>
      </trkpt>
      <trkpt lat="45.68095" lon="5.8387">
        <ele>1083.062256</ele>
        <time>2011-05-24T11:05:50Z</time>
      </trkpt>
      <trkpt lat="45.68088" lon="5.83871">
        <ele>1081.620361</ele>
        <time>2011-05-24T11:05:59Z</time>
      </trkpt>
      <trkpt lat="45.68082" lon="5.83872">
        <ele>1080.178467</ele>
        <time>2011-05-24T11:06:05Z</time>
      </trkpt>
      <trkpt lat="45.68075" lon="5.83873">
        <ele>1079.697754</ele>
        <time>2011-05-24T11:06:13Z</time>
      </trkpt>
      <trkpt lat="45.68069" lon="5.83876">
        <ele>1079.217041</ele>
        <time>2011-05-24T11:06:22Z</time>
      </trkpt>
      <trkpt lat="45.68065" lon="5.83877">
        <ele>1080.178467</ele>
        <time>2011-05-24T11:06:31Z</time>
      </trkpt>
      <trkpt lat="45.68059" lon="5.83879">
        <ele>1080.65918</ele>
        <time>2011-05-24T11:06:39Z</time>
      </trkpt>
      <trkpt lat="45.68055" lon="5.83877">
        <ele>1078.736572</ele>
        <time>2011-05-24T11:06:47Z</time>
      </trkpt>
      <trkpt lat="45.68052" lon="5.83874">
        <ele>1077.294678</ele>
        <time>2011-05-24T11:06:55Z</time>
      </trkpt>
      <trkpt lat="45.68047" lon="5.83869">
        <ele>1075.852539</ele>
        <time>2011-05-24T11:07:03Z</time>
      </trkpt>
      <trkpt lat="45.68045" lon="5.83864">
        <ele>1074.410645</ele>
        <time>2011-05-24T11:07:10Z</time>
      </trkpt>
      <trkpt lat="45.68042" lon="5.83858">
        <ele>1072.96875</ele>
        <time>2011-05-24T11:07:17Z</time>
      </trkpt>
      <trkpt lat="45.68039" lon="5.83852">
        <ele>1071.046143</ele>
        <time>2011-05-24T11:07:25Z</time>
      </trkpt>
      <trkpt lat="45.6804" lon="5.83845">
        <ele>1069.604248</ele>
        <time>2011-05-24T11:07:32Z</time>
      </trkpt>
      <trkpt lat="45.68034" lon="5.83846">
        <ele>1068.642822</ele>
        <time>2011-05-24T11:07:42Z</time>
      </trkpt>
      <trkpt lat="45.68029" lon="5.83845">
        <ele>1067.681152</ele>
        <time>2011-05-24T11:07:50Z</time>
      </trkpt>
      <trkpt lat="45.68025" lon="5.83846">
        <ele>1065.758789</ele>
        <time>2011-05-24T11:07:59Z</time>
      </trkpt>
      <trkpt lat="45.68023" lon="5.83845">
        <ele>1063.835938</ele>
        <time>2011-05-24T11:08:04Z</time>
      </trkpt>
      <trkpt lat="45.68018" lon="5.83844">
        <ele>1061.432861</ele>
        <time>2011-05-24T11:08:13Z</time>
      </trkpt>
      <trkpt lat="45.68011" lon="5.83845">
        <ele>1060.471436</ele>
        <time>2011-05-24T11:08:20Z</time>
      </trkpt>
      <trkpt lat="45.68006" lon="5.83846">
        <ele>1059.029541</ele>
        <time>2011-05-24T11:08:27Z</time>
      </trkpt>
      <trkpt lat="45.68004" lon="5.83844">
        <ele>1059.510254</ele>
        <time>2011-05-24T11:08:35Z</time>
      </trkpt>
      <trkpt lat="45.67999" lon="5.83844">
        <ele>1059.510254</ele>
        <time>2011-05-24T11:08:47Z</time>
      </trkpt>
      <trkpt lat="45.67997" lon="5.83839">
        <ele>1059.510254</ele>
        <time>2011-05-24T11:09:13Z</time>
      </trkpt>
      <trkpt lat="45.67992" lon="5.83843">
        <ele>1060.471436</ele>
        <time>2011-05-24T11:10:03Z</time>
      </trkpt>
      <trkpt lat="45.67992" lon="5.83844">
        <ele>1061.913574</ele>
        <time>2011-05-24T11:10:12Z</time>
      </trkpt>
      <trkpt lat="45.67984" lon="5.83845">
        <ele>1062.394043</ele>
        <time>2011-05-24T11:10:20Z</time>
      </trkpt>
      <trkpt lat="45.6798" lon="5.83845">
        <ele>1063.835938</ele>
        <time>2011-05-24T11:10:30Z</time>
      </trkpt>
      <trkpt lat="45.67975" lon="5.8385">
        <ele>1064.31665</ele>
        <time>2011-05-24T11:10:39Z</time>
      </trkpt>
      <trkpt lat="45.67966" lon="5.83856">
        <ele>1065.278076</ele>
        <time>2011-05-24T11:10:48Z</time>
      </trkpt>
      <trkpt lat="45.67963" lon="5.83858">
        <ele>1066.719971</ele>
        <time>2011-05-24T11:10:56Z</time>
      </trkpt>
      <trkpt lat="45.67964" lon="5.83862">
        <ele>1069.123535</ele>
        <time>2011-05-24T11:11:07Z</time>
      </trkpt>
      <trkpt lat="45.67962" lon="5.83869">
        <ele>1070.084717</ele>
        <time>2011-05-24T11:11:15Z</time>
      </trkpt>
      <trkpt lat="45.67956" lon="5.83874">
        <ele>1072.007324</ele>
        <time>2011-05-24T11:11:26Z</time>
      </trkpt>
      <trkpt lat="45.67947" lon="5.83881">
        <ele>1072.488037</ele>
        <time>2011-05-24T11:11:38Z</time>
      </trkpt>
      <trkpt lat="45.67942" lon="5.83885">
        <ele>1073.929932</ele>
        <time>2011-05-24T11:11:48Z</time>
      </trkpt>
      <trkpt lat="45.6794" lon="5.8389">
        <ele>1074.410645</ele>
        <time>2011-05-24T11:11:56Z</time>
      </trkpt>
      <trkpt lat="45.67936" lon="5.83893">
        <ele>1074.891357</ele>
        <time>2011-05-24T11:12:04Z</time>
      </trkpt>
      <trkpt lat="45.6793" lon="5.83894">
        <ele>1078.255859</ele>
        <time>2011-05-24T11:12:15Z</time>
      </trkpt>
      <trkpt lat="45.67921" lon="5.83898">
        <ele>1080.178467</ele>
        <time>2011-05-24T11:12:25Z</time>
      </trkpt>
      <trkpt lat="45.67916" lon="5.83902">
        <ele>1082.101074</ele>
        <time>2011-05-24T11:12:34Z</time>
      </trkpt>
      <trkpt lat="45.67912" lon="5.83904">
        <ele>1083.062256</ele>
        <time>2011-05-24T11:12:41Z</time>
      </trkpt>
      <trkpt lat="45.67905" lon="5.83907">
        <ele>1084.985352</ele>
        <time>2011-05-24T11:12:53Z</time>
      </trkpt>
      <trkpt lat="45.67903" lon="5.83909">
        <ele>1086.907715</ele>
        <time>2011-05-24T11:13:04Z</time>
      </trkpt>
      <trkpt lat="45.67902" lon="5.83908">
        <ele>1088.830566</ele>
        <time>2011-05-24T11:13:14Z</time>
      </trkpt>
      <trkpt lat="45.67899" lon="5.83909">
        <ele>1091.714355</ele>
        <time>2011-05-24T11:13:28Z</time>
      </trkpt>
      <trkpt lat="45.67893" lon="5.83908">
        <ele>1093.15625</ele>
        <time>2011-05-24T11:13:37Z</time>
      </trkpt>
      <trkpt lat="45.6789" lon="5.83908">
        <ele>1094.598145</ele>
        <time>2011-05-24T11:13:48Z</time>
      </trkpt>
      <trkpt lat="45.6789" lon="5.83906">
        <ele>1096.040283</ele>
        <time>2011-05-24T11:13:58Z</time>
      </trkpt>
      <trkpt lat="45.6789" lon="5.83903">
        <ele>1097.001465</ele>
        <time>2011-05-24T11:14:07Z</time>
      </trkpt>
      <trkpt lat="45.67892" lon="5.83898">
        <ele>1098.924072</ele>
        <time>2011-05-24T11:14:17Z</time>
      </trkpt>
      <trkpt lat="45.67893" lon="5.83897">
        <ele>1100.846924</ele>
        <time>2011-05-24T11:14:25Z</time>
      </trkpt>
      <trkpt lat="45.67898" lon="5.8389">
        <ele>1102.769531</ele>
        <time>2011-05-24T11:14:38Z</time>
      </trkpt>
      <trkpt lat="45.67896" lon="5.83884">
        <ele>1104.21167</ele>
        <time>2011-05-24T11:14:48Z</time>
      </trkpt>
      <trkpt lat="45.67895" lon="5.83879">
        <ele>1105.653564</ele>
        <time>2011-05-24T11:14:58Z</time>
      </trkpt>
      <trkpt lat="45.67895" lon="5.83873">
        <ele>1108.537354</ele>
        <time>2011-05-24T11:15:06Z</time>
      </trkpt>
      <trkpt lat="45.67898" lon="5.83867">
        <ele>1110.459961</ele>
        <time>2011-05-24T11:15:16Z</time>
      </trkpt>
      <trkpt lat="45.67899" lon="5.83859">
        <ele>1111.9021</ele>
        <time>2011-05-24T11:15:29Z</time>
      </trkpt>
      <trkpt lat="45.67902" lon="5.83854">
        <ele>1112.382568</ele>
        <time>2011-05-24T11:15:35Z</time>
      </trkpt>
      <trkpt lat="45.67898" lon="5.83848">
        <ele>1113.343994</ele>
        <time>2011-05-24T11:15:43Z</time>
      </trkpt>
      <trkpt lat="45.67902" lon="5.83841">
        <ele>1115.747314</ele>
        <time>2011-05-24T11:15:52Z</time>
      </trkpt>
      <trkpt lat="45.67907" lon="5.83833">
        <ele>1117.189453</ele>
        <time>2011-05-24T11:16:01Z</time>
      </trkpt>
      <trkpt lat="45.67909" lon="5.83827">
        <ele>1119.112061</ele>
        <time>2011-05-24T11:16:11Z</time>
      </trkpt>
      <trkpt lat="45.67912" lon="5.83818">
        <ele>1120.073242</ele>
        <time>2011-05-24T11:16:21Z</time>
      </trkpt>
      <trkpt lat="45.67918" lon="5.83816">
        <ele>1121.034668</ele>
        <time>2011-05-24T11:16:29Z</time>
      </trkpt>
      <trkpt lat="45.67918" lon="5.83813">
        <ele>1123.437988</ele>
        <time>2011-05-24T11:16:40Z</time>
      </trkpt>
      <trkpt lat="45.67915" lon="5.83815">
        <ele>1125.360352</ele>
        <time>2011-05-24T11:16:49Z</time>
      </trkpt>
      <trkpt lat="45.67911" lon="5.83816">
        <ele>1127.283203</ele>
        <time>2011-05-24T11:16:59Z</time>
      </trkpt>
      <trkpt lat="45.67906" lon="5.83817">
        <ele>1128.725098</ele>
        <time>2011-05-24T11:17:07Z</time>
      </trkpt>
      <trkpt lat="45.67908" lon="5.83813">
        <ele>1129.686279</ele>
        <time>2011-05-24T11:17:15Z</time>
      </trkpt>
      <trkpt lat="45.6791" lon="5.83809">
        <ele>1131.608887</ele>
        <time>2011-05-24T11:17:25Z</time>
      </trkpt>
      <trkpt lat="45.67909" lon="5.83805">
        <ele>1134.012451</ele>
        <time>2011-05-24T11:17:35Z</time>
      </trkpt>
      <trkpt lat="45.6791" lon="5.83799">
        <ele>1135.454346</ele>
        <time>2011-05-24T11:17:44Z</time>
      </trkpt>
      <trkpt lat="45.67912" lon="5.83794">
        <ele>1137.376953</ele>
        <time>2011-05-24T11:17:52Z</time>
      </trkpt>
      <trkpt lat="45.67911" lon="5.83789">
        <ele>1138.819092</ele>
        <time>2011-05-24T11:18:01Z</time>
      </trkpt>
      <trkpt lat="45.67905" lon="5.83782">
        <ele>1141.702881</ele>
        <time>2011-05-24T11:18:13Z</time>
      </trkpt>
      <trkpt lat="45.67902" lon="5.83782">
        <ele>1142.183594</ele>
        <time>2011-05-24T11:18:22Z</time>
      </trkpt>
      <trkpt lat="45.67903" lon="5.83778">
        <ele>1143.625488</ele>
        <time>2011-05-24T11:18:32Z</time>
      </trkpt>
      <trkpt lat="45.67905" lon="5.83775">
        <ele>1145.548096</ele>
        <time>2011-05-24T11:18:41Z</time>
      </trkpt>
      <trkpt lat="45.67903" lon="5.83766">
        <ele>1146.98999</ele>
        <time>2011-05-24T11:18:49Z</time>
      </trkpt>
      <trkpt lat="45.67905" lon="5.83759">
        <ele>1147.470703</ele>
        <time>2011-05-24T11:18:57Z</time>
      </trkpt>
      <trkpt lat="45.67905" lon="5.8375">
        <ele>1149.874268</ele>
        <time>2011-05-24T11:19:06Z</time>
      </trkpt>
      <trkpt lat="45.67905" lon="5.83743">
        <ele>1151.796875</ele>
        <time>2011-05-24T11:19:16Z</time>
      </trkpt>
      <trkpt lat="45.67904" lon="5.83737">
        <ele>1153.23877</ele>
        <time>2011-05-24T11:19:26Z</time>
      </trkpt>
      <trkpt lat="45.67899" lon="5.83732">
        <ele>1156.603271</ele>
        <time>2011-05-24T11:19:38Z</time>
      </trkpt>
      <trkpt lat="45.67893" lon="5.83724">
        <ele>1158.525879</ele>
        <time>2011-05-24T11:19:49Z</time>
      </trkpt>
      <trkpt lat="45.67889" lon="5.8372">
        <ele>1159.487305</ele>
        <time>2011-05-24T11:19:59Z</time>
      </trkpt>
      <trkpt lat="45.67884" lon="5.83717">
        <ele>1159.487305</ele>
        <time>2011-05-24T11:20:08Z</time>
      </trkpt>
      <trkpt lat="45.6788" lon="5.83714">
        <ele>1160.929199</ele>
        <time>2011-05-24T11:20:19Z</time>
      </trkpt>
      <trkpt lat="45.67875" lon="5.83713">
        <ele>1161.890625</ele>
        <time>2011-05-24T11:20:29Z</time>
      </trkpt>
      <trkpt lat="45.67869" lon="5.83705">
        <ele>1161.890625</ele>
        <time>2011-05-24T11:24:10Z</time>
      </trkpt>
      <trkpt lat="45.67864" lon="5.83702">
        <ele>1161.890625</ele>
        <time>2011-05-24T11:24:20Z</time>
      </trkpt>
      <trkpt lat="45.67859" lon="5.83699">
        <ele>1162.371094</ele>
        <time>2011-05-24T11:24:29Z</time>
      </trkpt>
      <trkpt lat="45.67852" lon="5.83697">
        <ele>1164.293945</ele>
        <time>2011-05-24T11:24:38Z</time>
      </trkpt>
      <trkpt lat="45.67846" lon="5.83696">
        <ele>1164.293945</ele>
        <time>2011-05-24T11:24:45Z</time>
      </trkpt>
      <trkpt lat="45.67835" lon="5.83693">
        <ele>1162.371094</ele>
        <time>2011-05-24T11:24:55Z</time>
      </trkpt>
      <trkpt lat="45.6783" lon="5.83691">
        <ele>1161.409912</ele>
        <time>2011-05-24T11:25:03Z</time>
      </trkpt>
      <trkpt lat="45.67828" lon="5.83682">
        <ele>1160.929199</ele>
        <time>2011-05-24T11:25:10Z</time>
      </trkpt>
      <trkpt lat="45.67826" lon="5.83676">
        <ele>1159.006592</ele>
        <time>2011-05-24T11:25:16Z</time>
      </trkpt>
      <trkpt lat="45.67819" lon="5.83668">
        <ele>1159.006592</ele>
        <time>2011-05-24T11:25:23Z</time>
      </trkpt>
      <trkpt lat="45.67815" lon="5.83665">
        <ele>1160.929199</ele>
        <time>2011-05-24T11:25:31Z</time>
      </trkpt>
      <trkpt lat="45.67811" lon="5.83662">
        <ele>1162.371094</ele>
        <time>2011-05-24T11:25:42Z</time>
      </trkpt>
      <trkpt lat="45.67804" lon="5.83659">
        <ele>1163.33252</ele>
        <time>2011-05-24T11:25:50Z</time>
      </trkpt>
      <trkpt lat="45.678" lon="5.83655">
        <ele>1164.293945</ele>
        <time>2011-05-24T11:25:57Z</time>
      </trkpt>
      <trkpt lat="45.67798" lon="5.83651">
        <ele>1165.736084</ele>
        <time>2011-05-24T11:26:06Z</time>
      </trkpt>
      <trkpt lat="45.67795" lon="5.8364">
        <ele>1164.774658</ele>
        <time>2011-05-24T11:26:16Z</time>
      </trkpt>
      <trkpt lat="45.67793" lon="5.83625">
        <ele>1164.293945</ele>
        <time>2011-05-24T11:26:26Z</time>
      </trkpt>
      <trkpt lat="45.67788" lon="5.83614">
        <ele>1165.736084</ele>
        <time>2011-05-24T11:26:36Z</time>
      </trkpt>
      <trkpt lat="45.67787" lon="5.83606">
        <ele>1167.658447</ele>
        <time>2011-05-24T11:26:44Z</time>
      </trkpt>
      <trkpt lat="45.67783" lon="5.83603">
        <ele>1170.061768</ele>
        <time>2011-05-24T11:26:54Z</time>
      </trkpt>
      <trkpt lat="45.6778" lon="5.836">
        <ele>1171.023193</ele>
        <time>2011-05-24T11:27:01Z</time>
      </trkpt>
      <trkpt lat="45.67775" lon="5.83593">
        <ele>1172.945801</ele>
        <time>2011-05-24T11:27:11Z</time>
      </trkpt>
      <trkpt lat="45.67771" lon="5.83589">
        <ele>1174.868408</ele>
        <time>2011-05-24T11:27:19Z</time>
      </trkpt>
      <trkpt lat="45.67766" lon="5.83586">
        <ele>1176.310303</ele>
        <time>2011-05-24T11:27:27Z</time>
      </trkpt>
      <trkpt lat="45.67763" lon="5.83585">
        <ele>1177.752197</ele>
        <time>2011-05-24T11:27:35Z</time>
      </trkpt>
      <trkpt lat="45.67758" lon="5.83581">
        <ele>1178.713623</ele>
        <time>2011-05-24T11:27:44Z</time>
      </trkpt>
      <trkpt lat="45.67757" lon="5.83581">
        <ele>1180.636475</ele>
        <time>2011-05-24T11:27:51Z</time>
      </trkpt>
      <trkpt lat="45.67754" lon="5.83576">
        <ele>1182.078369</ele>
        <time>2011-05-24T11:28:02Z</time>
      </trkpt>
      <trkpt lat="45.67748" lon="5.83571">
        <ele>1184.000977</ele>
        <time>2011-05-24T11:28:12Z</time>
      </trkpt>
      <trkpt lat="45.67743" lon="5.83568">
        <ele>1184.962402</ele>
        <time>2011-05-24T11:28:22Z</time>
      </trkpt>
      <trkpt lat="45.67738" lon="5.83564">
        <ele>1186.884766</ele>
        <time>2011-05-24T11:28:32Z</time>
      </trkpt>
      <trkpt lat="45.67733" lon="5.8356">
        <ele>1186.404297</ele>
        <time>2011-05-24T11:28:40Z</time>
      </trkpt>
      <trkpt lat="45.67726" lon="5.83554">
        <ele>1185.442871</ele>
        <time>2011-05-24T11:28:48Z</time>
      </trkpt>
      <trkpt lat="45.67722" lon="5.8355">
        <ele>1186.404297</ele>
        <time>2011-05-24T11:28:55Z</time>
      </trkpt>
      <trkpt lat="45.67718" lon="5.83546">
        <ele>1187.365479</ele>
        <time>2011-05-24T11:29:01Z</time>
      </trkpt>
      <trkpt lat="45.67713" lon="5.83542">
        <ele>1187.365479</ele>
        <time>2011-05-24T11:29:08Z</time>
      </trkpt>
      <trkpt lat="45.67708" lon="5.83539">
        <ele>1186.884766</ele>
        <time>2011-05-24T11:29:15Z</time>
      </trkpt>
      <trkpt lat="45.67698" lon="5.83534">
        <ele>1186.404297</ele>
        <time>2011-05-24T11:29:24Z</time>
      </trkpt>
      <trkpt lat="45.67692" lon="5.8353">
        <ele>1185.442871</ele>
        <time>2011-05-24T11:29:32Z</time>
      </trkpt>
      <trkpt lat="45.67686" lon="5.83526">
        <ele>1186.404297</ele>
        <time>2011-05-24T11:29:41Z</time>
      </trkpt>
      <trkpt lat="45.67681" lon="5.83522">
        <ele>1187.846191</ele>
        <time>2011-05-24T11:29:51Z</time>
      </trkpt>
      <trkpt lat="45.67677" lon="5.8352">
        <ele>1190.249512</ele>
        <time>2011-05-24T11:30:02Z</time>
      </trkpt>
      <trkpt lat="45.67672" lon="5.83519">
        <ele>1191.210693</ele>
        <time>2011-05-24T11:30:10Z</time>
      </trkpt>
      <trkpt lat="45.67667" lon="5.83516">
        <ele>1193.614014</ele>
        <time>2011-05-24T11:30:21Z</time>
      </trkpt>
      <trkpt lat="45.67664" lon="5.83515">
        <ele>1195.536621</ele>
        <time>2011-05-24T11:30:32Z</time>
      </trkpt>
      <trkpt lat="45.67662" lon="5.83513">
        <ele>1196.97876</ele>
        <time>2011-05-24T11:30:41Z</time>
      </trkpt>
      <trkpt lat="45.67659" lon="5.83509">
        <ele>1199.38208</ele>
        <time>2011-05-24T11:30:50Z</time>
      </trkpt>
      <trkpt lat="45.67658" lon="5.83505">
        <ele>1200.343506</ele>
        <time>2011-05-24T11:30:57Z</time>
      </trkpt>
      <trkpt lat="45.67653" lon="5.83502">
        <ele>1202.265869</ele>
        <time>2011-05-24T11:31:06Z</time>
      </trkpt>
      <trkpt lat="45.67654" lon="5.83499">
        <ele>1204.188721</ele>
        <time>2011-05-24T11:31:15Z</time>
      </trkpt>
      <trkpt lat="45.67651" lon="5.83497">
        <ele>1205.149902</ele>
        <time>2011-05-24T11:31:26Z</time>
      </trkpt>
      <trkpt lat="45.6765" lon="5.83492">
        <ele>1207.553223</ele>
        <time>2011-05-24T11:31:36Z</time>
      </trkpt>
      <trkpt lat="45.67648" lon="5.83487">
        <ele>1209.47583</ele>
        <time>2011-05-24T11:31:45Z</time>
      </trkpt>
      <trkpt lat="45.67647" lon="5.83484">
        <ele>1211.398438</ele>
        <time>2011-05-24T11:31:55Z</time>
      </trkpt>
      <trkpt lat="45.67645" lon="5.83479">
        <ele>1212.840576</ele>
        <time>2011-05-24T11:32:04Z</time>
      </trkpt>
      <trkpt lat="45.67643" lon="5.83474">
        <ele>1214.282471</ele>
        <time>2011-05-24T11:32:13Z</time>
      </trkpt>
      <trkpt lat="45.67642" lon="5.8347">
        <ele>1215.724609</ele>
        <time>2011-05-24T11:32:20Z</time>
      </trkpt>
      <trkpt lat="45.67641" lon="5.83465">
        <ele>1217.166504</ele>
        <time>2011-05-24T11:32:29Z</time>
      </trkpt>
      <trkpt lat="45.67638" lon="5.83457">
        <ele>1218.608398</ele>
        <time>2011-05-24T11:32:41Z</time>
      </trkpt>
      <trkpt lat="45.67637" lon="5.8345">
        <ele>1220.531006</ele>
        <time>2011-05-24T11:32:52Z</time>
      </trkpt>
      <trkpt lat="45.67631" lon="5.83444">
        <ele>1221.9729</ele>
        <time>2011-05-24T11:33:02Z</time>
      </trkpt>
      <trkpt lat="45.6763" lon="5.8344">
        <ele>1223.895508</ele>
        <time>2011-05-24T11:33:10Z</time>
      </trkpt>
      <trkpt lat="45.6763" lon="5.83437">
        <ele>1225.337402</ele>
        <time>2011-05-24T11:33:19Z</time>
      </trkpt>
      <trkpt lat="45.6763" lon="5.83432">
        <ele>1228.22168</ele>
        <time>2011-05-24T11:33:29Z</time>
      </trkpt>
      <trkpt lat="45.67627" lon="5.83427">
        <ele>1230.144287</ele>
        <time>2011-05-24T11:33:39Z</time>
      </trkpt>
      <trkpt lat="45.67624" lon="5.83426">
        <ele>1231.586182</ele>
        <time>2011-05-24T11:33:45Z</time>
      </trkpt>
      <trkpt lat="45.67621" lon="5.83423">
        <ele>1232.547607</ele>
        <time>2011-05-24T11:33:53Z</time>
      </trkpt>
      <trkpt lat="45.67617" lon="5.83416">
        <ele>1234.470215</ele>
        <time>2011-05-24T11:34:03Z</time>
      </trkpt>
      <trkpt lat="45.67617" lon="5.83413">
        <ele>1236.873291</ele>
        <time>2011-05-24T11:34:13Z</time>
      </trkpt>
      <trkpt lat="45.67614" lon="5.83409">
        <ele>1238.31543</ele>
        <time>2011-05-24T11:34:24Z</time>
      </trkpt>
      <trkpt lat="45.67612" lon="5.83405">
        <ele>1239.757324</ele>
        <time>2011-05-24T11:34:34Z</time>
      </trkpt>
      <trkpt lat="45.6761" lon="5.83402">
        <ele>1241.679932</ele>
        <time>2011-05-24T11:34:44Z</time>
      </trkpt>
      <trkpt lat="45.67609" lon="5.83399">
        <ele>1244.083496</ele>
        <time>2011-05-24T11:34:53Z</time>
      </trkpt>
      <trkpt lat="45.67608" lon="5.83393">
        <ele>1245.044678</ele>
        <time>2011-05-24T11:35:02Z</time>
      </trkpt>
      <trkpt lat="45.67604" lon="5.83388">
        <ele>1248.40918</ele>
        <time>2011-05-24T11:35:12Z</time>
      </trkpt>
      <trkpt lat="45.676" lon="5.83386">
        <ele>1249.370605</ele>
        <time>2011-05-24T11:35:21Z</time>
      </trkpt>
      <trkpt lat="45.676" lon="5.83384">
        <ele>1252.735107</ele>
        <time>2011-05-24T11:35:40Z</time>
      </trkpt>
      <trkpt lat="45.67597" lon="5.83381">
        <ele>1254.657715</ele>
        <time>2011-05-24T11:35:57Z</time>
      </trkpt>
      <trkpt lat="45.67595" lon="5.83377">
        <ele>1255.619141</ele>
        <time>2011-05-24T11:36:06Z</time>
      </trkpt>
      <trkpt lat="45.67592" lon="5.83372">
        <ele>1258.022461</ele>
        <time>2011-05-24T11:36:17Z</time>
      </trkpt>
      <trkpt lat="45.67589" lon="5.83367">
        <ele>1257.541748</ele>
        <time>2011-05-24T11:36:25Z</time>
      </trkpt>
      <trkpt lat="45.67584" lon="5.83368">
        <ele>1257.541748</ele>
        <time>2011-05-24T11:41:45Z</time>
      </trkpt>
      <trkpt lat="45.67585" lon="5.83367">
        <ele>1257.061035</ele>
        <time>2011-05-24T11:41:57Z</time>
      </trkpt>
      <trkpt lat="45.67583" lon="5.83365">
        <ele>1256.099609</ele>
        <time>2011-05-24T11:42:08Z</time>
      </trkpt>
      <trkpt lat="45.67579" lon="5.83364">
        <ele>1255.138428</ele>
        <time>2011-05-24T11:42:16Z</time>
      </trkpt>
      <trkpt lat="45.67576" lon="5.83362">
        <ele>1256.099609</ele>
        <time>2011-05-24T11:42:26Z</time>
      </trkpt>
      <trkpt lat="45.67577" lon="5.83358">
        <ele>1255.138428</ele>
        <time>2011-05-24T11:42:40Z</time>
      </trkpt>
      <trkpt lat="45.67571" lon="5.8333">
        <ele>1257.541748</ele>
        <time>2011-05-24T11:43:38Z</time>
      </trkpt>
      <trkpt lat="45.67568" lon="5.83333">
        <ele>1260.425781</ele>
        <time>2011-05-24T11:43:59Z</time>
      </trkpt>
      <trkpt lat="45.67567" lon="5.83329">
        <ele>1261.387207</ele>
        <time>2011-05-24T11:44:08Z</time>
      </trkpt>
      <trkpt lat="45.67562" lon="5.8332">
        <ele>1262.829102</ele>
        <time>2011-05-24T11:44:18Z</time>
      </trkpt>
      <trkpt lat="45.6756" lon="5.83318">
        <ele>1264.751709</ele>
        <time>2011-05-24T11:44:28Z</time>
      </trkpt>
      <trkpt lat="45.67556" lon="5.83319">
        <ele>1265.713135</ele>
        <time>2011-05-24T11:44:37Z</time>
      </trkpt>
      <trkpt lat="45.67556" lon="5.83315">
        <ele>1266.193604</ele>
        <time>2011-05-24T11:44:45Z</time>
      </trkpt>
      <trkpt lat="45.67554" lon="5.8331">
        <ele>1267.155029</ele>
        <time>2011-05-24T11:44:55Z</time>
      </trkpt>
      <trkpt lat="45.67553" lon="5.83303">
        <ele>1268.596924</ele>
        <time>2011-05-24T11:45:06Z</time>
      </trkpt>
      <trkpt lat="45.6755" lon="5.83298">
        <ele>1270.519531</ele>
        <time>2011-05-24T11:45:15Z</time>
      </trkpt>
      <trkpt lat="45.67547" lon="5.83295">
        <ele>1271.000244</ele>
        <time>2011-05-24T11:45:23Z</time>
      </trkpt>
      <trkpt lat="45.67545" lon="5.83297">
        <ele>1272.922852</ele>
        <time>2011-05-24T11:45:32Z</time>
      </trkpt>
      <trkpt lat="45.67541" lon="5.83295">
        <ele>1274.845459</ele>
        <time>2011-05-24T11:45:44Z</time>
      </trkpt>
      <trkpt lat="45.67539" lon="5.83294">
        <ele>1275.806641</ele>
        <time>2011-05-24T11:45:53Z</time>
      </trkpt>
      <trkpt lat="45.67537" lon="5.83293">
        <ele>1277.729492</ele>
        <time>2011-05-24T11:45:57Z</time>
      </trkpt>
      <trkpt lat="45.67532" lon="5.8329">
        <ele>1278.210205</ele>
        <time>2011-05-24T11:46:07Z</time>
      </trkpt>
      <trkpt lat="45.67529" lon="5.8329">
        <ele>1279.6521</ele>
        <time>2011-05-24T11:46:18Z</time>
      </trkpt>
      <trkpt lat="45.67525" lon="5.83285">
        <ele>1279.171387</ele>
        <time>2011-05-24T11:46:41Z</time>
      </trkpt>
      <trkpt lat="45.67518" lon="5.83273">
        <ele>1276.768311</ele>
        <time>2011-05-24T11:46:50Z</time>
      </trkpt>
      <trkpt lat="45.67512" lon="5.83258">
        <ele>1275.325928</ele>
        <time>2011-05-24T11:46:59Z</time>
      </trkpt>
      <trkpt lat="45.67511" lon="5.83265">
        <ele>1281.574707</ele>
        <time>2011-05-24T11:49:37Z</time>
      </trkpt>
      <trkpt lat="45.6751" lon="5.83284">
        <ele>1283.978027</ele>
        <time>2011-05-24T11:51:11Z</time>
      </trkpt>
      <trkpt lat="45.67507" lon="5.83286">
        <ele>1283.016602</ele>
        <time>2011-05-24T11:51:35Z</time>
      </trkpt>
      <trkpt lat="45.67506" lon="5.83271">
        <ele>1283.016602</ele>
        <time>2011-05-24T11:52:27Z</time>
      </trkpt>
      <trkpt lat="45.67503" lon="5.83255">
        <ele>1285.419922</ele>
        <time>2011-05-24T11:52:39Z</time>
      </trkpt>
      <trkpt lat="45.67503" lon="5.83249">
        <ele>1285.900635</ele>
        <time>2011-05-24T11:52:51Z</time>
      </trkpt>
      <trkpt lat="45.67502" lon="5.83244">
        <ele>1287.342529</ele>
        <time>2011-05-24T11:52:57Z</time>
      </trkpt>
      <trkpt lat="45.67499" lon="5.8323">
        <ele>1287.342529</ele>
        <time>2011-05-24T11:53:03Z</time>
      </trkpt>
      <trkpt lat="45.67499" lon="5.83225">
        <ele>1287.823242</ele>
        <time>2011-05-24T11:53:07Z</time>
      </trkpt>
      <trkpt lat="45.67499" lon="5.83222">
        <ele>1288.784668</ele>
        <time>2011-05-24T11:53:09Z</time>
      </trkpt>
      <trkpt lat="45.67498" lon="5.83212">
        <ele>1292.149414</ele>
        <time>2011-05-24T11:53:20Z</time>
      </trkpt>
      <trkpt lat="45.67497" lon="5.83207">
        <ele>1293.591309</ele>
        <time>2011-05-24T11:53:26Z</time>
      </trkpt>
      <trkpt lat="45.67498" lon="5.83204">
        <ele>1294.55249</ele>
        <time>2011-05-24T11:53:34Z</time>
      </trkpt>
      <trkpt lat="45.67491" lon="5.83203">
        <ele>1296.955811</ele>
        <time>2011-05-24T11:53:53Z</time>
      </trkpt>
      <trkpt lat="45.67484" lon="5.83203">
        <ele>1298.397705</ele>
        <time>2011-05-24T11:54:02Z</time>
      </trkpt>
      <trkpt lat="45.67478" lon="5.83201">
        <ele>1299.839844</ele>
        <time>2011-05-24T11:54:10Z</time>
      </trkpt>
      <trkpt lat="45.67472" lon="5.83201">
        <ele>1300.801025</ele>
        <time>2011-05-24T11:54:17Z</time>
      </trkpt>
      <trkpt lat="45.67471" lon="5.83201">
        <ele>1300.801025</ele>
        <time>2011-05-24T11:54:19Z</time>
      </trkpt>
      <trkpt lat="45.67465" lon="5.83202">
        <ele>1300.801025</ele>
        <time>2011-05-24T11:54:26Z</time>
      </trkpt>
      <trkpt lat="45.67461" lon="5.83201">
        <ele>1300.801025</ele>
        <time>2011-05-24T11:54:31Z</time>
      </trkpt>
      <trkpt lat="45.67455" lon="5.83207">
        <ele>1301.281738</ele>
        <time>2011-05-24T11:54:38Z</time>
      </trkpt>
      <trkpt lat="45.67447" lon="5.83209">
        <ele>1300.801025</ele>
        <time>2011-05-24T11:54:47Z</time>
      </trkpt>
      <trkpt lat="45.67442" lon="5.83205">
        <ele>1300.320557</ele>
        <time>2011-05-24T11:54:55Z</time>
      </trkpt>
      <trkpt lat="45.67437" lon="5.83204">
        <ele>1298.878418</ele>
        <time>2011-05-24T11:54:59Z</time>
      </trkpt>
      <trkpt lat="45.67426" lon="5.83207">
        <ele>1299.839844</ele>
        <time>2011-05-24T11:55:09Z</time>
      </trkpt>
      <trkpt lat="45.67424" lon="5.83207">
        <ele>1300.320557</ele>
        <time>2011-05-24T11:55:16Z</time>
      </trkpt>
      <trkpt lat="45.6742" lon="5.83212">
        <ele>1300.320557</ele>
        <time>2011-05-24T11:55:24Z</time>
      </trkpt>
      <trkpt lat="45.67416" lon="5.83213">
        <ele>1298.397705</ele>
        <time>2011-05-24T11:55:33Z</time>
      </trkpt>
      <trkpt lat="45.6741" lon="5.83213">
        <ele>1298.397705</ele>
        <time>2011-05-24T11:55:38Z</time>
      </trkpt>
      <trkpt lat="45.67403" lon="5.8321">
        <ele>1299.359131</ele>
        <time>2011-05-24T11:55:45Z</time>
      </trkpt>
      <trkpt lat="45.67401" lon="5.83213">
        <ele>1299.839844</ele>
        <time>2011-05-24T11:55:51Z</time>
      </trkpt>
      <trkpt lat="45.67395" lon="5.83221">
        <ele>1300.801025</ele>
        <time>2011-05-24T11:56:02Z</time>
      </trkpt>
      <trkpt lat="45.67392" lon="5.83219">
        <ele>1302.723633</ele>
        <time>2011-05-24T11:56:13Z</time>
      </trkpt>
      <trkpt lat="45.67389" lon="5.83226">
        <ele>1305.607666</ele>
        <time>2011-05-24T11:56:26Z</time>
      </trkpt>
      <trkpt lat="45.67385" lon="5.83231">
        <ele>1306.568848</ele>
        <time>2011-05-24T11:56:34Z</time>
      </trkpt>
      <trkpt lat="45.67383" lon="5.83236">
        <ele>1308.01123</ele>
        <time>2011-05-24T11:56:42Z</time>
      </trkpt>
      <trkpt lat="45.6738" lon="5.8324">
        <ele>1311.856445</ele>
        <time>2011-05-24T11:56:50Z</time>
      </trkpt>
      <trkpt lat="45.67377" lon="5.83245">
        <ele>1312.817627</ele>
        <time>2011-05-24T11:57:00Z</time>
      </trkpt>
      <trkpt lat="45.67377" lon="5.83251">
        <ele>1312.336914</ele>
        <time>2011-05-24T11:57:10Z</time>
      </trkpt>
      <trkpt lat="45.67381" lon="5.83252">
        <ele>1312.336914</ele>
        <time>2011-05-24T11:57:21Z</time>
      </trkpt>
      <trkpt lat="45.6739" lon="5.83254">
        <ele>1312.817627</ele>
        <time>2011-05-24T11:57:33Z</time>
      </trkpt>
      <trkpt lat="45.67395" lon="5.83255">
        <ele>1312.817627</ele>
        <time>2011-05-24T11:57:46Z</time>
      </trkpt>
      <trkpt lat="45.67393" lon="5.83256">
        <ele>1312.817627</ele>
        <time>2011-05-24T11:58:05Z</time>
      </trkpt>
      <trkpt lat="45.67394" lon="5.83262">
        <ele>1314.259521</ele>
        <time>2011-05-24T11:58:27Z</time>
      </trkpt>
      <trkpt lat="45.67393" lon="5.83269">
        <ele>1314.259521</ele>
        <time>2011-05-24T11:58:36Z</time>
      </trkpt>
      <trkpt lat="45.67396" lon="5.83275">
        <ele>1313.778809</ele>
        <time>2011-05-24T11:58:44Z</time>
      </trkpt>
      <trkpt lat="45.67401" lon="5.83279">
        <ele>1314.740234</ele>
        <time>2011-05-24T11:58:53Z</time>
      </trkpt>
      <trkpt lat="45.67404" lon="5.83284">
        <ele>1316.182129</ele>
        <time>2011-05-24T11:59:02Z</time>
      </trkpt>
      <trkpt lat="45.67409" lon="5.83289">
        <ele>1317.143555</ele>
        <time>2011-05-24T11:59:12Z</time>
      </trkpt>
      <trkpt lat="45.67412" lon="5.83297">
        <ele>1317.624023</ele>
        <time>2011-05-24T11:59:22Z</time>
      </trkpt>
      <trkpt lat="45.67416" lon="5.83303">
        <ele>1319.066162</ele>
        <time>2011-05-24T11:59:32Z</time>
      </trkpt>
      <trkpt lat="45.6742" lon="5.83307">
        <ele>1320.027344</ele>
        <time>2011-05-24T11:59:42Z</time>
      </trkpt>
      <trkpt lat="45.67423" lon="5.83314">
        <ele>1321.469238</ele>
        <time>2011-05-24T11:59:52Z</time>
      </trkpt>
      <trkpt lat="45.67426" lon="5.83318">
        <ele>1322.911377</ele>
        <time>2011-05-24T12:00:03Z</time>
      </trkpt>
      <trkpt lat="45.67435" lon="5.83324">
        <ele>1321.469238</ele>
        <time>2011-05-24T12:00:17Z</time>
      </trkpt>
      <trkpt lat="45.67438" lon="5.83325">
        <ele>1322.911377</ele>
        <time>2011-05-24T12:00:23Z</time>
      </trkpt>
      <trkpt lat="45.67442" lon="5.83326">
        <ele>1324.353516</ele>
        <time>2011-05-24T12:00:32Z</time>
      </trkpt>
      <trkpt lat="45.67448" lon="5.83325">
        <ele>1326.276123</ele>
        <time>2011-05-24T12:00:39Z</time>
      </trkpt>
      <trkpt lat="45.67449" lon="5.83332">
        <ele>1327.237549</ele>
        <time>2011-05-24T12:00:46Z</time>
      </trkpt>
      <trkpt lat="45.67452" lon="5.83335">
        <ele>1328.19873</ele>
        <time>2011-05-24T12:00:58Z</time>
      </trkpt>
      <trkpt lat="45.67452" lon="5.83341">
        <ele>1329.159912</ele>
        <time>2011-05-24T12:01:08Z</time>
      </trkpt>
      <trkpt lat="45.67455" lon="5.83343">
        <ele>1329.640625</ele>
        <time>2011-05-24T12:01:17Z</time>
      </trkpt>
      <trkpt lat="45.67459" lon="5.83343">
        <ele>1331.563232</ele>
        <time>2011-05-24T12:01:25Z</time>
      </trkpt>
      <trkpt lat="45.67458" lon="5.83348">
        <ele>1332.524658</ele>
        <time>2011-05-24T12:01:35Z</time>
      </trkpt>
      <trkpt lat="45.67463" lon="5.83352">
        <ele>1334.447266</ele>
        <time>2011-05-24T12:01:45Z</time>
      </trkpt>
      <trkpt lat="45.67467" lon="5.83353">
        <ele>1335.88916</ele>
        <time>2011-05-24T12:01:56Z</time>
      </trkpt>
      <trkpt lat="45.67467" lon="5.83356">
        <ele>1336.369873</ele>
        <time>2011-05-24T12:02:04Z</time>
      </trkpt>
      <trkpt lat="45.6747" lon="5.83358">
        <ele>1336.850342</ele>
        <time>2011-05-24T12:02:11Z</time>
      </trkpt>
      <trkpt lat="45.67472" lon="5.8336">
        <ele>1339.734375</ele>
        <time>2011-05-24T12:02:19Z</time>
      </trkpt>
      <trkpt lat="45.67474" lon="5.83361">
        <ele>1338.773193</ele>
        <time>2011-05-24T12:02:22Z</time>
      </trkpt>
      <trkpt lat="45.67476" lon="5.83364">
        <ele>1340.215332</ele>
        <time>2011-05-24T12:02:32Z</time>
      </trkpt>
      <trkpt lat="45.67477" lon="5.83364">
        <ele>1343.099121</ele>
        <time>2011-05-24T12:02:43Z</time>
      </trkpt>
      <trkpt lat="45.67481" lon="5.83363">
        <ele>1344.541016</ele>
        <time>2011-05-24T12:03:02Z</time>
      </trkpt>
      <trkpt lat="45.67483" lon="5.83364">
        <ele>1346.944336</ele>
        <time>2011-05-24T12:03:16Z</time>
      </trkpt>
      <trkpt lat="45.67485" lon="5.83364">
        <ele>1348.866943</ele>
        <time>2011-05-24T12:03:26Z</time>
      </trkpt>
      <trkpt lat="45.67486" lon="5.83365">
        <ele>1349.828369</ele>
        <time>2011-05-24T12:03:38Z</time>
      </trkpt>
      <trkpt lat="45.67484" lon="5.83362">
        <ele>1351.270264</ele>
        <time>2011-05-24T12:04:02Z</time>
      </trkpt>
      <trkpt lat="45.67484" lon="5.83357">
        <ele>1352.231445</ele>
        <time>2011-05-24T12:04:15Z</time>
      </trkpt>
      <trkpt lat="45.67486" lon="5.83358">
        <ele>1354.634766</ele>
        <time>2011-05-24T12:04:36Z</time>
      </trkpt>
      <trkpt lat="45.67488" lon="5.83358">
        <ele>1357.999756</ele>
        <time>2011-05-24T12:04:48Z</time>
      </trkpt>
      <trkpt lat="45.6749" lon="5.83357">
        <ele>1358.480225</ele>
        <time>2011-05-24T12:05:01Z</time>
      </trkpt>
      <trkpt lat="45.67491" lon="5.83354">
        <ele>1360.402832</ele>
        <time>2011-05-24T12:05:12Z</time>
      </trkpt>
      <trkpt lat="45.67492" lon="5.83352">
        <ele>1362.325439</ele>
        <time>2011-05-24T12:05:22Z</time>
      </trkpt>
      <trkpt lat="45.67491" lon="5.83349">
        <ele>1363.286865</ele>
        <time>2011-05-24T12:05:32Z</time>
      </trkpt>
      <trkpt lat="45.6749" lon="5.83342">
        <ele>1365.690186</ele>
        <time>2011-05-24T12:05:42Z</time>
      </trkpt>
      <trkpt lat="45.67488" lon="5.83337">
        <ele>1366.651367</ele>
        <time>2011-05-24T12:05:50Z</time>
      </trkpt>
      <trkpt lat="45.67488" lon="5.83332">
        <ele>1367.13208</ele>
        <time>2011-05-24T12:06:00Z</time>
      </trkpt>
      <trkpt lat="45.67489" lon="5.8333">
        <ele>1367.612549</ele>
        <time>2011-05-24T12:06:09Z</time>
      </trkpt>
      <trkpt lat="45.67487" lon="5.83328">
        <ele>1369.5354</ele>
        <time>2011-05-24T12:06:17Z</time>
      </trkpt>
      <trkpt lat="45.67489" lon="5.83325">
        <ele>1370.496582</ele>
        <time>2011-05-24T12:06:26Z</time>
      </trkpt>
      <trkpt lat="45.67488" lon="5.8332">
        <ele>1371.938477</ele>
        <time>2011-05-24T12:06:36Z</time>
      </trkpt>
      <trkpt lat="45.67488" lon="5.83316">
        <ele>1374.342041</ele>
        <time>2011-05-24T12:06:46Z</time>
      </trkpt>
      <trkpt lat="45.67486" lon="5.83312">
        <ele>1374.822754</ele>
        <time>2011-05-24T12:06:55Z</time>
      </trkpt>
      <trkpt lat="45.67488" lon="5.83312">
        <ele>1375.783936</ele>
        <time>2011-05-24T12:07:12Z</time>
      </trkpt>
      <trkpt lat="45.6749" lon="5.83312">
        <ele>1377.706543</ele>
        <time>2011-05-24T12:07:22Z</time>
      </trkpt>
      <trkpt lat="45.6749" lon="5.83311">
        <ele>1379.148438</ele>
        <time>2011-05-24T12:07:30Z</time>
      </trkpt>
      <trkpt lat="45.67492" lon="5.83314">
        <ele>1380.590576</ele>
        <time>2011-05-24T12:07:41Z</time>
      </trkpt>
      <trkpt lat="45.67494" lon="5.83313">
        <ele>1380.590576</ele>
        <time>2011-05-24T12:07:51Z</time>
      </trkpt>
      <trkpt lat="45.67495" lon="5.83315">
        <ele>1381.551758</ele>
        <time>2011-05-24T12:08:00Z</time>
      </trkpt>
      <trkpt lat="45.67493" lon="5.83316">
        <ele>1383.474365</ele>
        <time>2011-05-24T12:08:10Z</time>
      </trkpt>
      <trkpt lat="45.67494" lon="5.83318">
        <ele>1384.435791</ele>
        <time>2011-05-24T12:08:18Z</time>
      </trkpt>
      <trkpt lat="45.67496" lon="5.83321">
        <ele>1385.877686</ele>
        <time>2011-05-24T12:08:27Z</time>
      </trkpt>
      <trkpt lat="45.67496" lon="5.83324">
        <ele>1387.31958</ele>
        <time>2011-05-24T12:08:36Z</time>
      </trkpt>
      <trkpt lat="45.675" lon="5.83328">
        <ele>1387.31958</ele>
        <time>2011-05-24T12:08:46Z</time>
      </trkpt>
      <trkpt lat="45.67501" lon="5.83331">
        <ele>1392.126465</ele>
        <time>2011-05-24T12:09:04Z</time>
      </trkpt>
      <trkpt lat="45.67499" lon="5.83327">
        <ele>1390.203857</ele>
        <time>2011-05-24T12:23:45Z</time>
      </trkpt>
      <trkpt lat="45.67497" lon="5.83326">
        <ele>1390.203857</ele>
        <time>2011-05-24T12:24:02Z</time>
      </trkpt>
      <trkpt lat="45.67497" lon="5.83324">
        <ele>1389.723145</ele>
        <time>2011-05-24T12:24:13Z</time>
      </trkpt>
      <trkpt lat="45.67496" lon="5.83322">
        <ele>1388.761963</ele>
        <time>2011-05-24T12:24:51Z</time>
      </trkpt>
      <trkpt lat="45.67497" lon="5.8332">
        <ele>1387.800293</ele>
        <time>2011-05-24T12:25:00Z</time>
      </trkpt>
      <trkpt lat="45.67496" lon="5.83318">
        <ele>1386.358398</ele>
        <time>2011-05-24T12:25:21Z</time>
      </trkpt>
      <trkpt lat="45.67494" lon="5.83316">
        <ele>1385.396973</ele>
        <time>2011-05-24T12:25:31Z</time>
      </trkpt>
      <trkpt lat="45.67495" lon="5.83314">
        <ele>1384.435791</ele>
        <time>2011-05-24T12:25:37Z</time>
      </trkpt>
      <trkpt lat="45.67495" lon="5.83312">
        <ele>1383.474365</ele>
        <time>2011-05-24T12:25:53Z</time>
      </trkpt>
      <trkpt lat="45.67491" lon="5.83312">
        <ele>1382.513184</ele>
        <time>2011-05-24T12:26:02Z</time>
      </trkpt>
      <trkpt lat="45.67489" lon="5.83311">
        <ele>1381.551758</ele>
        <time>2011-05-24T12:26:11Z</time>
      </trkpt>
      <trkpt lat="45.67486" lon="5.83312">
        <ele>1379.148438</ele>
        <time>2011-05-24T12:26:29Z</time>
      </trkpt>
      <trkpt lat="45.67487" lon="5.83316">
        <ele>1376.264648</ele>
        <time>2011-05-24T12:26:45Z</time>
      </trkpt>
      <trkpt lat="45.67487" lon="5.83319">
        <ele>1374.342041</ele>
        <time>2011-05-24T12:26:54Z</time>
      </trkpt>
      <trkpt lat="45.67487" lon="5.83323">
        <ele>1373.861328</ele>
        <time>2011-05-24T12:27:02Z</time>
      </trkpt>
      <trkpt lat="45.67485" lon="5.83327">
        <ele>1371.457764</ele>
        <time>2011-05-24T12:27:11Z</time>
      </trkpt>
      <trkpt lat="45.67486" lon="5.83331">
        <ele>1370.015869</ele>
        <time>2011-05-24T12:27:27Z</time>
      </trkpt>
      <trkpt lat="45.67486" lon="5.83335">
        <ele>1368.093262</ele>
        <time>2011-05-24T12:27:35Z</time>
      </trkpt>
      <trkpt lat="45.67488" lon="5.83346">
        <ele>1366.651367</ele>
        <time>2011-05-24T12:27:46Z</time>
      </trkpt>
      <trkpt lat="45.67489" lon="5.83349">
        <ele>1366.170654</ele>
        <time>2011-05-24T12:27:57Z</time>
      </trkpt>
      <trkpt lat="45.6749" lon="5.8335">
        <ele>1365.209473</ele>
        <time>2011-05-24T12:28:07Z</time>
      </trkpt>
      <trkpt lat="45.67491" lon="5.83352">
        <ele>1364.72876</ele>
        <time>2011-05-24T12:28:24Z</time>
      </trkpt>
      <trkpt lat="45.67493" lon="5.83358">
        <ele>1362.325439</ele>
        <time>2011-05-24T12:30:49Z</time>
      </trkpt>
      <trkpt lat="45.67492" lon="5.8336">
        <ele>1361.364258</ele>
        <time>2011-05-24T12:31:00Z</time>
      </trkpt>
      <trkpt lat="45.67492" lon="5.83362">
        <ele>1359.922119</ele>
        <time>2011-05-24T12:31:08Z</time>
      </trkpt>
      <trkpt lat="45.67491" lon="5.83362">
        <ele>1358.960938</ele>
        <time>2011-05-24T12:31:40Z</time>
      </trkpt>
      <trkpt lat="45.67486" lon="5.83359">
        <ele>1357.999756</ele>
        <time>2011-05-24T12:32:08Z</time>
      </trkpt>
      <trkpt lat="45.67482" lon="5.8336">
        <ele>1356.076904</ele>
        <time>2011-05-24T12:32:55Z</time>
      </trkpt>
      <trkpt lat="45.67481" lon="5.8336">
        <ele>1355.115479</ele>
        <time>2011-05-24T12:33:14Z</time>
      </trkpt>
      <trkpt lat="45.6748" lon="5.8336">
        <ele>1353.192871</ele>
        <time>2011-05-24T12:33:39Z</time>
      </trkpt>
      <trkpt lat="45.6748" lon="5.8336">
        <ele>1351.270264</ele>
        <time>2011-05-24T12:34:01Z</time>
      </trkpt>
      <trkpt lat="45.6748" lon="5.83362">
        <ele>1350.309082</ele>
        <time>2011-05-24T12:34:14Z</time>
      </trkpt>
      <trkpt lat="45.67479" lon="5.83362">
        <ele>1353.673584</ele>
        <time>2011-05-24T12:34:16Z</time>
      </trkpt>
      <trkpt lat="45.67479" lon="5.83362">
        <ele>1349.347656</ele>
        <time>2011-05-24T12:34:19Z</time>
      </trkpt>
      <trkpt lat="45.67475" lon="5.8336">
        <ele>1347.425049</ele>
        <time>2011-05-24T12:34:27Z</time>
      </trkpt>
      <trkpt lat="45.67472" lon="5.83358">
        <ele>1345.021729</ele>
        <time>2011-05-24T12:34:46Z</time>
      </trkpt>
      <trkpt lat="45.67471" lon="5.83357">
        <ele>1342.618652</ele>
        <time>2011-05-24T12:34:54Z</time>
      </trkpt>
      <trkpt lat="45.67468" lon="5.83355">
        <ele>1340.695801</ele>
        <time>2011-05-24T12:35:06Z</time>
      </trkpt>
      <trkpt lat="45.67467" lon="5.83354">
        <ele>1339.734375</ele>
        <time>2011-05-24T12:35:13Z</time>
      </trkpt>
      <trkpt lat="45.67466" lon="5.83351">
        <ele>1339.734375</ele>
        <time>2011-05-24T12:35:23Z</time>
      </trkpt>
      <trkpt lat="45.67464" lon="5.83347">
        <ele>1337.811768</ele>
        <time>2011-05-24T12:35:32Z</time>
      </trkpt>
      <trkpt lat="45.67461" lon="5.83344">
        <ele>1336.369873</ele>
        <time>2011-05-24T12:35:41Z</time>
      </trkpt>
      <trkpt lat="45.67457" lon="5.83342">
        <ele>1334.447266</ele>
        <time>2011-05-24T12:35:49Z</time>
      </trkpt>
      <trkpt lat="45.67453" lon="5.83338">
        <ele>1332.524658</ele>
        <time>2011-05-24T12:35:56Z</time>
      </trkpt>
      <trkpt lat="45.67451" lon="5.83337">
        <ele>1332.043945</ele>
        <time>2011-05-24T12:36:07Z</time>
      </trkpt>
      <trkpt lat="45.67448" lon="5.83335">
        <ele>1330.121338</ele>
        <time>2011-05-24T12:36:14Z</time>
      </trkpt>
      <trkpt lat="45.67446" lon="5.83334">
        <ele>1329.159912</ele>
        <time>2011-05-24T12:36:22Z</time>
      </trkpt>
      <trkpt lat="45.67442" lon="5.83331">
        <ele>1327.237549</ele>
        <time>2011-05-24T12:36:31Z</time>
      </trkpt>
      <trkpt lat="45.67437" lon="5.83327">
        <ele>1324.834229</ele>
        <time>2011-05-24T12:36:38Z</time>
      </trkpt>
      <trkpt lat="45.67429" lon="5.8332">
        <ele>1325.314697</ele>
        <time>2011-05-24T12:36:46Z</time>
      </trkpt>
      <trkpt lat="45.67426" lon="5.83318">
        <ele>1325.79541</ele>
        <time>2011-05-24T12:36:55Z</time>
      </trkpt>
      <trkpt lat="45.67424" lon="5.83315">
        <ele>1324.834229</ele>
        <time>2011-05-24T12:37:03Z</time>
      </trkpt>
      <trkpt lat="45.6742" lon="5.8331">
        <ele>1322.911377</ele>
        <time>2011-05-24T12:37:11Z</time>
      </trkpt>
      <trkpt lat="45.67415" lon="5.83304">
        <ele>1320.508057</ele>
        <time>2011-05-24T12:37:19Z</time>
      </trkpt>
      <trkpt lat="45.67413" lon="5.83301">
        <ele>1320.027344</ele>
        <time>2011-05-24T12:37:22Z</time>
      </trkpt>
      <trkpt lat="45.6741" lon="5.83293">
        <ele>1320.027344</ele>
        <time>2011-05-24T12:37:28Z</time>
      </trkpt>
      <trkpt lat="45.67405" lon="5.83286">
        <ele>1318.585449</ele>
        <time>2011-05-24T12:37:37Z</time>
      </trkpt>
      <trkpt lat="45.67403" lon="5.83284">
        <ele>1318.104736</ele>
        <time>2011-05-24T12:37:46Z</time>
      </trkpt>
      <trkpt lat="45.67401" lon="5.83282">
        <ele>1317.143555</ele>
        <time>2011-05-24T12:37:56Z</time>
      </trkpt>
      <trkpt lat="45.67399" lon="5.8328">
        <ele>1317.143555</ele>
        <time>2011-05-24T12:38:04Z</time>
      </trkpt>
      <trkpt lat="45.67396" lon="5.83276">
        <ele>1316.662842</ele>
        <time>2011-05-24T12:38:13Z</time>
      </trkpt>
      <trkpt lat="45.67393" lon="5.83271">
        <ele>1316.182129</ele>
        <time>2011-05-24T12:38:21Z</time>
      </trkpt>
      <trkpt lat="45.6739" lon="5.83264">
        <ele>1315.70166</ele>
        <time>2011-05-24T12:38:27Z</time>
      </trkpt>
      <trkpt lat="45.67383" lon="5.83259">
        <ele>1314.740234</ele>
        <time>2011-05-24T12:38:35Z</time>
      </trkpt>
      <trkpt lat="45.67377" lon="5.83254">
        <ele>1314.740234</ele>
        <time>2011-05-24T12:38:43Z</time>
      </trkpt>
      <trkpt lat="45.67371" lon="5.8325">
        <ele>1315.70166</ele>
        <time>2011-05-24T12:38:53Z</time>
      </trkpt>
      <trkpt lat="45.67367" lon="5.83248">
        <ele>1316.662842</ele>
        <time>2011-05-24T12:39:03Z</time>
      </trkpt>
      <trkpt lat="45.67366" lon="5.83246">
        <ele>1318.104736</ele>
        <time>2011-05-24T12:39:21Z</time>
      </trkpt>
      <trkpt lat="45.67358" lon="5.83245">
        <ele>1323.39209</ele>
        <time>2011-05-24T13:24:03Z</time>
      </trkpt>
      <trkpt lat="45.6736" lon="5.83247">
        <ele>1322.430664</ele>
        <time>2011-05-24T13:24:06Z</time>
      </trkpt>
      <trkpt lat="45.67364" lon="5.8325">
        <ele>1321.469238</ele>
        <time>2011-05-24T13:24:13Z</time>
      </trkpt>
      <trkpt lat="45.67368" lon="5.83251">
        <ele>1320.508057</ele>
        <time>2011-05-24T13:24:21Z</time>
      </trkpt>
      <trkpt lat="45.67366" lon="5.83252">
        <ele>1320.508057</ele>
        <time>2011-05-24T13:24:31Z</time>
      </trkpt>
      <trkpt lat="45.67363" lon="5.83252">
        <ele>1320.027344</ele>
        <time>2011-05-24T13:24:39Z</time>
      </trkpt>
      <trkpt lat="45.67362" lon="5.83253">
        <ele>1320.027344</ele>
        <time>2011-05-24T13:24:57Z</time>
      </trkpt>
      <trkpt lat="45.67358" lon="5.83258">
        <ele>1320.027344</ele>
        <time>2011-05-24T13:25:13Z</time>
      </trkpt>
      <trkpt lat="45.67354" lon="5.83257">
        <ele>1319.546875</ele>
        <time>2011-05-24T13:25:20Z</time>
      </trkpt>
      <trkpt lat="45.67348" lon="5.83258">
        <ele>1318.104736</ele>
        <time>2011-05-24T13:25:28Z</time>
      </trkpt>
      <trkpt lat="45.67342" lon="5.83256">
        <ele>1317.143555</ele>
        <time>2011-05-24T13:25:36Z</time>
      </trkpt>
      <trkpt lat="45.67343" lon="5.8326">
        <ele>1315.70166</ele>
        <time>2011-05-24T13:25:43Z</time>
      </trkpt>
      <trkpt lat="45.67342" lon="5.83259">
        <ele>1315.70166</ele>
        <time>2011-05-24T13:25:57Z</time>
      </trkpt>
      <trkpt lat="45.67344" lon="5.83264">
        <ele>1315.220947</ele>
        <time>2011-05-24T13:26:14Z</time>
      </trkpt>
      <trkpt lat="45.67348" lon="5.83265">
        <ele>1315.220947</ele>
        <time>2011-05-24T13:26:20Z</time>
      </trkpt>
      <trkpt lat="45.67353" lon="5.83268">
        <ele>1314.259521</ele>
        <time>2011-05-24T13:26:27Z</time>
      </trkpt>
      <trkpt lat="45.6736" lon="5.83269">
        <ele>1313.29834</ele>
        <time>2011-05-24T13:26:35Z</time>
      </trkpt>
      <trkpt lat="45.67367" lon="5.83272">
        <ele>1312.336914</ele>
        <time>2011-05-24T13:26:41Z</time>
      </trkpt>
      <trkpt lat="45.67371" lon="5.83273">
        <ele>1312.336914</ele>
        <time>2011-05-24T13:26:46Z</time>
      </trkpt>
      <trkpt lat="45.67377" lon="5.83278">
        <ele>1311.375732</ele>
        <time>2011-05-24T13:26:54Z</time>
      </trkpt>
      <trkpt lat="45.67376" lon="5.8328">
        <ele>1310.414307</ele>
        <time>2011-05-24T13:27:00Z</time>
      </trkpt>
      <trkpt lat="45.67372" lon="5.83281">
        <ele>1308.972412</ele>
        <time>2011-05-24T13:27:08Z</time>
      </trkpt>
      <trkpt lat="45.6737" lon="5.83285">
        <ele>1308.01123</ele>
        <time>2011-05-24T13:29:31Z</time>
      </trkpt>
      <trkpt lat="45.67367" lon="5.83285">
        <ele>1307.049561</ele>
        <time>2011-05-24T13:29:38Z</time>
      </trkpt>
      <trkpt lat="45.6736" lon="5.83287">
        <ele>1305.607666</ele>
        <time>2011-05-24T13:29:45Z</time>
      </trkpt>
      <trkpt lat="45.67356" lon="5.83289">
        <ele>1304.64624</ele>
        <time>2011-05-24T13:29:49Z</time>
      </trkpt>
      <trkpt lat="45.67353" lon="5.83291">
        <ele>1304.64624</ele>
        <time>2011-05-24T13:29:53Z</time>
      </trkpt>
      <trkpt lat="45.67343" lon="5.83292">
        <ele>1304.165771</ele>
        <time>2011-05-24T13:30:01Z</time>
      </trkpt>
      <trkpt lat="45.67338" lon="5.83291">
        <ele>1303.685059</ele>
        <time>2011-05-24T13:30:09Z</time>
      </trkpt>
      <trkpt lat="45.67329" lon="5.83289">
        <ele>1300.801025</ele>
        <time>2011-05-24T13:30:17Z</time>
      </trkpt>
      <trkpt lat="45.67324" lon="5.83287">
        <ele>1300.801025</ele>
        <time>2011-05-24T13:30:24Z</time>
      </trkpt>
      <trkpt lat="45.67314" lon="5.83283">
        <ele>1298.878418</ele>
        <time>2011-05-24T13:30:33Z</time>
      </trkpt>
      <trkpt lat="45.67306" lon="5.83279">
        <ele>1298.878418</ele>
        <time>2011-05-24T13:30:40Z</time>
      </trkpt>
      <trkpt lat="45.673" lon="5.83276">
        <ele>1297.436523</ele>
        <time>2011-05-24T13:30:48Z</time>
      </trkpt>
      <trkpt lat="45.67293" lon="5.83278">
        <ele>1295.513916</ele>
        <time>2011-05-24T13:30:55Z</time>
      </trkpt>
      <trkpt lat="45.67288" lon="5.83278">
        <ele>1295.513916</ele>
        <time>2011-05-24T13:31:00Z</time>
      </trkpt>
      <trkpt lat="45.67283" lon="5.83276">
        <ele>1295.513916</ele>
        <time>2011-05-24T13:31:07Z</time>
      </trkpt>
      <trkpt lat="45.67276" lon="5.83268">
        <ele>1295.513916</ele>
        <time>2011-05-24T13:31:14Z</time>
      </trkpt>
      <trkpt lat="45.67269" lon="5.83264">
        <ele>1295.513916</ele>
        <time>2011-05-24T13:31:21Z</time>
      </trkpt>
      <trkpt lat="45.67263" lon="5.83258">
        <ele>1293.110596</ele>
        <time>2011-05-24T13:31:33Z</time>
      </trkpt>
      <trkpt lat="45.67266" lon="5.83262">
        <ele>1291.187744</ele>
        <time>2011-05-24T13:31:39Z</time>
      </trkpt>
      <trkpt lat="45.67271" lon="5.83266">
        <ele>1290.707031</ele>
        <time>2011-05-24T13:31:45Z</time>
      </trkpt>
      <trkpt lat="45.67274" lon="5.8327">
        <ele>1290.226563</ele>
        <time>2011-05-24T13:31:50Z</time>
      </trkpt>
      <trkpt lat="45.67278" lon="5.83277">
        <ele>1288.784668</ele>
        <time>2011-05-24T13:31:56Z</time>
      </trkpt>
      <trkpt lat="45.6728" lon="5.83287">
        <ele>1286.381348</ele>
        <time>2011-05-24T13:32:03Z</time>
      </trkpt>
      <trkpt lat="45.67289" lon="5.83295">
        <ele>1284.939453</ele>
        <time>2011-05-24T13:32:13Z</time>
      </trkpt>
      <trkpt lat="45.67296" lon="5.83297">
        <ele>1283.978027</ele>
        <time>2011-05-24T13:32:21Z</time>
      </trkpt>
      <trkpt lat="45.67301" lon="5.83303">
        <ele>1284.939453</ele>
        <time>2011-05-24T13:32:29Z</time>
      </trkpt>
      <trkpt lat="45.67303" lon="5.83306">
        <ele>1283.978027</ele>
        <time>2011-05-24T13:32:35Z</time>
      </trkpt>
      <trkpt lat="45.67304" lon="5.83307">
        <ele>1283.978027</ele>
        <time>2011-05-24T13:32:36Z</time>
      </trkpt>
      <trkpt lat="45.67314" lon="5.83319">
        <ele>1282.05542</ele>
        <time>2011-05-24T13:32:46Z</time>
      </trkpt>
      <trkpt lat="45.67319" lon="5.83329">
        <ele>1281.094238</ele>
        <time>2011-05-24T13:32:55Z</time>
      </trkpt>
      <trkpt lat="45.67324" lon="5.83335">
        <ele>1279.6521</ele>
        <time>2011-05-24T13:33:04Z</time>
      </trkpt>
      <trkpt lat="45.67318" lon="5.83336">
        <ele>1277.249023</ele>
        <time>2011-05-24T13:33:13Z</time>
      </trkpt>
      <trkpt lat="45.67313" lon="5.83336">
        <ele>1276.287598</ele>
        <time>2011-05-24T13:33:21Z</time>
      </trkpt>
      <trkpt lat="45.67304" lon="5.83331">
        <ele>1275.325928</ele>
        <time>2011-05-24T13:33:32Z</time>
      </trkpt>
      <trkpt lat="45.67297" lon="5.83328">
        <ele>1272.922852</ele>
        <time>2011-05-24T13:33:40Z</time>
      </trkpt>
      <trkpt lat="45.6729" lon="5.83326">
        <ele>1271.480713</ele>
        <time>2011-05-24T13:33:48Z</time>
      </trkpt>
      <trkpt lat="45.67286" lon="5.83324">
        <ele>1270.519531</ele>
        <time>2011-05-24T13:33:53Z</time>
      </trkpt>
      <trkpt lat="45.6728" lon="5.83321">
        <ele>1270.519531</ele>
        <time>2011-05-24T13:34:01Z</time>
      </trkpt>
      <trkpt lat="45.67271" lon="5.83315">
        <ele>1268.596924</ele>
        <time>2011-05-24T13:34:12Z</time>
      </trkpt>
      <trkpt lat="45.67269" lon="5.83315">
        <ele>1268.116211</ele>
        <time>2011-05-24T13:34:18Z</time>
      </trkpt>
      <trkpt lat="45.6727" lon="5.83314">
        <ele>1267.155029</ele>
        <time>2011-05-24T13:34:27Z</time>
      </trkpt>
      <trkpt lat="45.67275" lon="5.83318">
        <ele>1265.713135</ele>
        <time>2011-05-24T13:34:45Z</time>
      </trkpt>
      <trkpt lat="45.67277" lon="5.83321">
        <ele>1265.713135</ele>
        <time>2011-05-24T13:34:51Z</time>
      </trkpt>
      <trkpt lat="45.67281" lon="5.83323">
        <ele>1264.270996</ele>
        <time>2011-05-24T13:35:03Z</time>
      </trkpt>
      <trkpt lat="45.67283" lon="5.83332">
        <ele>1262.829102</ele>
        <time>2011-05-24T13:35:10Z</time>
      </trkpt>
      <trkpt lat="45.67285" lon="5.83335">
        <ele>1262.829102</ele>
        <time>2011-05-24T13:35:13Z</time>
      </trkpt>
      <trkpt lat="45.67291" lon="5.83346">
        <ele>1262.348389</ele>
        <time>2011-05-24T13:35:23Z</time>
      </trkpt>
      <trkpt lat="45.67295" lon="5.83351">
        <ele>1261.387207</ele>
        <time>2011-05-24T13:35:29Z</time>
      </trkpt>
      <trkpt lat="45.67299" lon="5.83354">
        <ele>1260.906494</ele>
        <time>2011-05-24T13:35:35Z</time>
      </trkpt>
      <trkpt lat="45.67305" lon="5.83357">
        <ele>1260.906494</ele>
        <time>2011-05-24T13:35:43Z</time>
      </trkpt>
      <trkpt lat="45.67302" lon="5.83358">
        <ele>1259.464355</ele>
        <time>2011-05-24T13:35:50Z</time>
      </trkpt>
      <trkpt lat="45.67294" lon="5.83357">
        <ele>1258.983643</ele>
        <time>2011-05-24T13:35:58Z</time>
      </trkpt>
      <trkpt lat="45.67289" lon="5.83357">
        <ele>1258.50293</ele>
        <time>2011-05-24T13:36:04Z</time>
      </trkpt>
      <trkpt lat="45.67281" lon="5.83354">
        <ele>1257.061035</ele>
        <time>2011-05-24T13:36:13Z</time>
      </trkpt>
      <trkpt lat="45.67276" lon="5.83348">
        <ele>1254.657715</ele>
        <time>2011-05-24T13:36:21Z</time>
      </trkpt>
      <trkpt lat="45.6727" lon="5.83338">
        <ele>1255.138428</ele>
        <time>2011-05-24T13:36:30Z</time>
      </trkpt>
      <trkpt lat="45.67266" lon="5.83339">
        <ele>1253.696533</ele>
        <time>2011-05-24T13:36:37Z</time>
      </trkpt>
      <trkpt lat="45.67269" lon="5.83342">
        <ele>1252.735107</ele>
        <time>2011-05-24T13:36:43Z</time>
      </trkpt>
      <trkpt lat="45.67273" lon="5.83345">
        <ele>1251.293213</ele>
        <time>2011-05-24T13:36:49Z</time>
      </trkpt>
      <trkpt lat="45.67274" lon="5.83349">
        <ele>1250.8125</ele>
        <time>2011-05-24T13:36:52Z</time>
      </trkpt>
      <trkpt lat="45.67276" lon="5.83362">
        <ele>1250.332031</ele>
        <time>2011-05-24T13:36:59Z</time>
      </trkpt>
      <trkpt lat="45.67281" lon="5.83369">
        <ele>1249.370605</ele>
        <time>2011-05-24T13:37:07Z</time>
      </trkpt>
      <trkpt lat="45.67286" lon="5.83374">
        <ele>1248.40918</ele>
        <time>2011-05-24T13:37:14Z</time>
      </trkpt>
      <trkpt lat="45.6729" lon="5.83381">
        <ele>1248.40918</ele>
        <time>2011-05-24T13:37:20Z</time>
      </trkpt>
      <trkpt lat="45.67294" lon="5.83384">
        <ele>1246.967285</ele>
        <time>2011-05-24T13:37:27Z</time>
      </trkpt>
      <trkpt lat="45.67298" lon="5.83386">
        <ele>1246.967285</ele>
        <time>2011-05-24T13:37:33Z</time>
      </trkpt>
      <trkpt lat="45.67298" lon="5.8339">
        <ele>1246.006104</ele>
        <time>2011-05-24T13:37:40Z</time>
      </trkpt>
      <trkpt lat="45.67291" lon="5.83393">
        <ele>1244.083496</ele>
        <time>2011-05-24T13:37:47Z</time>
      </trkpt>
      <trkpt lat="45.67284" lon="5.83391">
        <ele>1242.641357</ele>
        <time>2011-05-24T13:37:57Z</time>
      </trkpt>
      <trkpt lat="45.67283" lon="5.8339">
        <ele>1242.641357</ele>
        <time>2011-05-24T13:37:59Z</time>
      </trkpt>
      <trkpt lat="45.67278" lon="5.83387">
        <ele>1240.238037</ele>
        <time>2011-05-24T13:38:06Z</time>
      </trkpt>
      <trkpt lat="45.67275" lon="5.83383">
        <ele>1239.276611</ele>
        <time>2011-05-24T13:38:12Z</time>
      </trkpt>
      <trkpt lat="45.67269" lon="5.83376">
        <ele>1238.796143</ele>
        <time>2011-05-24T13:38:20Z</time>
      </trkpt>
      <trkpt lat="45.67265" lon="5.83372">
        <ele>1238.31543</ele>
        <time>2011-05-24T13:38:25Z</time>
      </trkpt>
      <trkpt lat="45.67261" lon="5.83367">
        <ele>1238.31543</ele>
        <time>2011-05-24T13:38:33Z</time>
      </trkpt>
      <trkpt lat="45.67258" lon="5.83369">
        <ele>1235.912109</ele>
        <time>2011-05-24T13:38:39Z</time>
      </trkpt>
      <trkpt lat="45.67261" lon="5.83375">
        <ele>1235.431396</ele>
        <time>2011-05-24T13:38:45Z</time>
      </trkpt>
      <trkpt lat="45.67263" lon="5.83377">
        <ele>1234.470215</ele>
        <time>2011-05-24T13:38:50Z</time>
      </trkpt>
      <trkpt lat="45.67263" lon="5.83384">
        <ele>1233.028076</ele>
        <time>2011-05-24T13:38:58Z</time>
      </trkpt>
      <trkpt lat="45.67263" lon="5.83393">
        <ele>1231.105713</ele>
        <time>2011-05-24T13:39:07Z</time>
      </trkpt>
      <trkpt lat="45.67265" lon="5.83401">
        <ele>1229.663574</ele>
        <time>2011-05-24T13:39:14Z</time>
      </trkpt>
      <trkpt lat="45.67268" lon="5.83409">
        <ele>1227.740723</ele>
        <time>2011-05-24T13:39:23Z</time>
      </trkpt>
      <trkpt lat="45.67276" lon="5.83415">
        <ele>1227.260254</ele>
        <time>2011-05-24T13:39:32Z</time>
      </trkpt>
      <trkpt lat="45.6728" lon="5.83418">
        <ele>1226.779541</ele>
        <time>2011-05-24T13:39:37Z</time>
      </trkpt>
      <trkpt lat="45.67285" lon="5.83426">
        <ele>1224.856934</ele>
        <time>2011-05-24T13:39:44Z</time>
      </trkpt>
      <trkpt lat="45.6729" lon="5.83431">
        <ele>1223.895508</ele>
        <time>2011-05-24T13:39:51Z</time>
      </trkpt>
      <trkpt lat="45.67294" lon="5.83436">
        <ele>1223.415039</ele>
        <time>2011-05-24T13:39:57Z</time>
      </trkpt>
      <trkpt lat="45.67297" lon="5.83441">
        <ele>1222.453613</ele>
        <time>2011-05-24T13:40:04Z</time>
      </trkpt>
      <trkpt lat="45.67294" lon="5.83439">
        <ele>1220.531006</ele>
        <time>2011-05-24T13:40:11Z</time>
      </trkpt>
      <trkpt lat="45.67288" lon="5.8344">
        <ele>1219.569824</ele>
        <time>2011-05-24T13:40:18Z</time>
      </trkpt>
      <trkpt lat="45.67283" lon="5.8344">
        <ele>1219.569824</ele>
        <time>2011-05-24T13:40:25Z</time>
      </trkpt>
      <trkpt lat="45.67279" lon="5.83438">
        <ele>1218.608398</ele>
        <time>2011-05-24T13:40:32Z</time>
      </trkpt>
      <trkpt lat="45.67274" lon="5.83436">
        <ele>1217.646973</ele>
        <time>2011-05-24T13:40:38Z</time>
      </trkpt>
      <trkpt lat="45.67271" lon="5.83435">
        <ele>1217.166504</ele>
        <time>2011-05-24T13:40:42Z</time>
      </trkpt>
      <trkpt lat="45.67263" lon="5.83435">
        <ele>1217.166504</ele>
        <time>2011-05-24T13:40:49Z</time>
      </trkpt>
      <trkpt lat="45.6726" lon="5.83432">
        <ele>1216.205078</ele>
        <time>2011-05-24T13:40:54Z</time>
      </trkpt>
      <trkpt lat="45.67254" lon="5.83426">
        <ele>1215.724609</ele>
        <time>2011-05-24T13:41:00Z</time>
      </trkpt>
      <trkpt lat="45.6725" lon="5.83421">
        <ele>1215.243896</ele>
        <time>2011-05-24T13:41:06Z</time>
      </trkpt>
      <trkpt lat="45.67245" lon="5.83414">
        <ele>1214.763184</ele>
        <time>2011-05-24T13:41:12Z</time>
      </trkpt>
      <trkpt lat="45.67241" lon="5.83412">
        <ele>1213.801758</ele>
        <time>2011-05-24T13:41:17Z</time>
      </trkpt>
      <trkpt lat="45.67237" lon="5.83408">
        <ele>1212.840576</ele>
        <time>2011-05-24T13:41:22Z</time>
      </trkpt>
      <trkpt lat="45.67231" lon="5.83399">
        <ele>1211.398438</ele>
        <time>2011-05-24T13:41:29Z</time>
      </trkpt>
      <trkpt lat="45.67227" lon="5.83391">
        <ele>1210.917725</ele>
        <time>2011-05-24T13:41:34Z</time>
      </trkpt>
      <trkpt lat="45.67217" lon="5.83386">
        <ele>1208.995117</ele>
        <time>2011-05-24T13:41:45Z</time>
      </trkpt>
      <trkpt lat="45.67214" lon="5.83384">
        <ele>1208.033936</ele>
        <time>2011-05-24T13:41:50Z</time>
      </trkpt>
      <trkpt lat="45.67205" lon="5.83383">
        <ele>1207.07251</ele>
        <time>2011-05-24T13:41:59Z</time>
      </trkpt>
      <trkpt lat="45.672" lon="5.83383">
        <ele>1206.111084</ele>
        <time>2011-05-24T13:42:04Z</time>
      </trkpt>
      <trkpt lat="45.67196" lon="5.83379">
        <ele>1205.149902</ele>
        <time>2011-05-24T13:42:12Z</time>
      </trkpt>
      <trkpt lat="45.67193" lon="5.8337">
        <ele>1204.669189</ele>
        <time>2011-05-24T13:42:17Z</time>
      </trkpt>
      <trkpt lat="45.67189" lon="5.83365">
        <ele>1204.188721</ele>
        <time>2011-05-24T13:42:22Z</time>
      </trkpt>
      <trkpt lat="45.67179" lon="5.83368">
        <ele>1201.304688</ele>
        <time>2011-05-24T13:42:38Z</time>
      </trkpt>
      <trkpt lat="45.67178" lon="5.83368">
        <ele>1200.343506</ele>
        <time>2011-05-24T13:42:40Z</time>
      </trkpt>
      <trkpt lat="45.67172" lon="5.83377">
        <ele>1199.862793</ele>
        <time>2011-05-24T13:42:46Z</time>
      </trkpt>
      <trkpt lat="45.67167" lon="5.83385">
        <ele>1199.862793</ele>
        <time>2011-05-24T13:42:53Z</time>
      </trkpt>
      <trkpt lat="45.67162" lon="5.83392">
        <ele>1199.862793</ele>
        <time>2011-05-24T13:43:00Z</time>
      </trkpt>
      <trkpt lat="45.67157" lon="5.83394">
        <ele>1198.901367</ele>
        <time>2011-05-24T13:43:05Z</time>
      </trkpt>
      <trkpt lat="45.67149" lon="5.83398">
        <ele>1198.901367</ele>
        <time>2011-05-24T13:43:13Z</time>
      </trkpt>
      <trkpt lat="45.67143" lon="5.83408">
        <ele>1196.498291</ele>
        <time>2011-05-24T13:43:21Z</time>
      </trkpt>
      <trkpt lat="45.67142" lon="5.83412">
        <ele>1195.055908</ele>
        <time>2011-05-24T13:43:23Z</time>
      </trkpt>
      <trkpt lat="45.67136" lon="5.83415">
        <ele>1193.614014</ele>
        <time>2011-05-24T13:43:31Z</time>
      </trkpt>
      <trkpt lat="45.6713" lon="5.83429">
        <ele>1193.133301</ele>
        <time>2011-05-24T13:43:40Z</time>
      </trkpt>
      <trkpt lat="45.67125" lon="5.83432">
        <ele>1192.652832</ele>
        <time>2011-05-24T13:43:46Z</time>
      </trkpt>
      <trkpt lat="45.67121" lon="5.83432">
        <ele>1192.652832</ele>
        <time>2011-05-24T13:43:52Z</time>
      </trkpt>
      <trkpt lat="45.67117" lon="5.83431">
        <ele>1192.652832</ele>
        <time>2011-05-24T13:44:00Z</time>
      </trkpt>
      <trkpt lat="45.67114" lon="5.8343">
        <ele>1192.652832</ele>
        <time>2011-05-24T13:44:16Z</time>
      </trkpt>
      <trkpt lat="45.67107" lon="5.83438">
        <ele>1192.172119</ele>
        <time>2011-05-24T13:44:25Z</time>
      </trkpt>
      <trkpt lat="45.67103" lon="5.83443">
        <ele>1191.691406</ele>
        <time>2011-05-24T13:44:32Z</time>
      </trkpt>
      <trkpt lat="45.67101" lon="5.83445">
        <ele>1191.210693</ele>
        <time>2011-05-24T13:44:44Z</time>
      </trkpt>
      <trkpt lat="45.67097" lon="5.83444">
        <ele>1191.691406</ele>
        <time>2011-05-24T13:44:50Z</time>
      </trkpt>
      <trkpt lat="45.67094" lon="5.83443">
        <ele>1190.249512</ele>
        <time>2011-05-24T13:44:56Z</time>
      </trkpt>
      <trkpt lat="45.67088" lon="5.83445">
        <ele>1188.326904</ele>
        <time>2011-05-24T13:45:04Z</time>
      </trkpt>
      <trkpt lat="45.6708" lon="5.83443">
        <ele>1188.807617</ele>
        <time>2011-05-24T13:45:13Z</time>
      </trkpt>
      <trkpt lat="45.67074" lon="5.83441">
        <ele>1187.365479</ele>
        <time>2011-05-24T13:45:22Z</time>
      </trkpt>
      <trkpt lat="45.67069" lon="5.83441">
        <ele>1186.404297</ele>
        <time>2011-05-24T13:45:28Z</time>
      </trkpt>
      <trkpt lat="45.67063" lon="5.83438">
        <ele>1186.404297</ele>
        <time>2011-05-24T13:45:35Z</time>
      </trkpt>
      <trkpt lat="45.67062" lon="5.83437">
        <ele>1185.923584</ele>
        <time>2011-05-24T13:45:37Z</time>
      </trkpt>
      <trkpt lat="45.67055" lon="5.83433">
        <ele>1185.923584</ele>
        <time>2011-05-24T13:45:44Z</time>
      </trkpt>
      <trkpt lat="45.67048" lon="5.83431">
        <ele>1184.481689</ele>
        <time>2011-05-24T13:45:52Z</time>
      </trkpt>
      <trkpt lat="45.67039" lon="5.83431">
        <ele>1184.000977</ele>
        <time>2011-05-24T13:46:00Z</time>
      </trkpt>
      <trkpt lat="45.67035" lon="5.83428">
        <ele>1182.559082</ele>
        <time>2011-05-24T13:46:05Z</time>
      </trkpt>
      <trkpt lat="45.6703" lon="5.83427">
        <ele>1180.636475</ele>
        <time>2011-05-24T13:46:11Z</time>
      </trkpt>
      <trkpt lat="45.67023" lon="5.83425">
        <ele>1179.674805</ele>
        <time>2011-05-24T13:46:19Z</time>
      </trkpt>
      <trkpt lat="45.67016" lon="5.83425">
        <ele>1179.674805</ele>
        <time>2011-05-24T13:46:26Z</time>
      </trkpt>
      <trkpt lat="45.67012" lon="5.83421">
        <ele>1179.194092</ele>
        <time>2011-05-24T13:46:33Z</time>
      </trkpt>
      <trkpt lat="45.67005" lon="5.83421">
        <ele>1179.194092</ele>
        <time>2011-05-24T13:46:41Z</time>
      </trkpt>
      <trkpt lat="45.66999" lon="5.83416">
        <ele>1178.713623</ele>
        <time>2011-05-24T13:46:48Z</time>
      </trkpt>
      <trkpt lat="45.66993" lon="5.83416">
        <ele>1178.23291</ele>
        <time>2011-05-24T13:46:54Z</time>
      </trkpt>
      <trkpt lat="45.66988" lon="5.83414">
        <ele>1177.752197</ele>
        <time>2011-05-24T13:47:00Z</time>
      </trkpt>
      <trkpt lat="45.66982" lon="5.83411">
        <ele>1176.310303</ele>
        <time>2011-05-24T13:47:07Z</time>
      </trkpt>
      <trkpt lat="45.66977" lon="5.8341">
        <ele>1176.310303</ele>
        <time>2011-05-24T13:47:13Z</time>
      </trkpt>
      <trkpt lat="45.6697" lon="5.83411">
        <ele>1174.387695</ele>
        <time>2011-05-24T13:47:19Z</time>
      </trkpt>
      <trkpt lat="45.66965" lon="5.8341">
        <ele>1174.387695</ele>
        <time>2011-05-24T13:47:25Z</time>
      </trkpt>
      <trkpt lat="45.66959" lon="5.83407">
        <ele>1173.426514</ele>
        <time>2011-05-24T13:47:33Z</time>
      </trkpt>
      <trkpt lat="45.66953" lon="5.83406">
        <ele>1172.945801</ele>
        <time>2011-05-24T13:47:39Z</time>
      </trkpt>
      <trkpt lat="45.66948" lon="5.83407">
        <ele>1171.503662</ele>
        <time>2011-05-24T13:47:45Z</time>
      </trkpt>
      <trkpt lat="45.66941" lon="5.83405">
        <ele>1171.023193</ele>
        <time>2011-05-24T13:47:53Z</time>
      </trkpt>
      <trkpt lat="45.66935" lon="5.83404">
        <ele>1170.061768</ele>
        <time>2011-05-24T13:48:00Z</time>
      </trkpt>
      <trkpt lat="45.6693" lon="5.83405">
        <ele>1169.100586</ele>
        <time>2011-05-24T13:48:06Z</time>
      </trkpt>
      <trkpt lat="45.66923" lon="5.83404">
        <ele>1168.619873</ele>
        <time>2011-05-24T13:48:13Z</time>
      </trkpt>
      <trkpt lat="45.66918" lon="5.83401">
        <ele>1168.13916</ele>
        <time>2011-05-24T13:48:19Z</time>
      </trkpt>
      <trkpt lat="45.66913" lon="5.83398">
        <ele>1167.177979</ele>
        <time>2011-05-24T13:48:25Z</time>
      </trkpt>
      <trkpt lat="45.66906" lon="5.83396">
        <ele>1165.255371</ele>
        <time>2011-05-24T13:48:33Z</time>
      </trkpt>
      <trkpt lat="45.66901" lon="5.83394">
        <ele>1165.255371</ele>
        <time>2011-05-24T13:48:39Z</time>
      </trkpt>
      <trkpt lat="45.66896" lon="5.83395">
        <ele>1163.812988</ele>
        <time>2011-05-24T13:48:46Z</time>
      </trkpt>
      <trkpt lat="45.66889" lon="5.83395">
        <ele>1162.851807</ele>
        <time>2011-05-24T13:48:53Z</time>
      </trkpt>
      <trkpt lat="45.66882" lon="5.83391">
        <ele>1161.890625</ele>
        <time>2011-05-24T13:49:06Z</time>
      </trkpt>
      <trkpt lat="45.66877" lon="5.83392">
        <ele>1160.929199</ele>
        <time>2011-05-24T13:49:12Z</time>
      </trkpt>
      <trkpt lat="45.66871" lon="5.83389">
        <ele>1159.487305</ele>
        <time>2011-05-24T13:49:20Z</time>
      </trkpt>
      <trkpt lat="45.6687" lon="5.83388">
        <ele>1157.564697</ele>
        <time>2011-05-24T13:49:23Z</time>
      </trkpt>
      <trkpt lat="45.66865" lon="5.83386">
        <ele>1157.083984</ele>
        <time>2011-05-24T13:49:29Z</time>
      </trkpt>
      <trkpt lat="45.66865" lon="5.83381">
        <ele>1158.525879</ele>
        <time>2011-05-24T13:49:33Z</time>
      </trkpt>
      <trkpt lat="45.66858" lon="5.83385">
        <ele>1156.603271</ele>
        <time>2011-05-24T13:49:41Z</time>
      </trkpt>
      <trkpt lat="45.66854" lon="5.83389">
        <ele>1156.603271</ele>
        <time>2011-05-24T13:49:46Z</time>
      </trkpt>
      <trkpt lat="45.66849" lon="5.8339">
        <ele>1155.161377</ele>
        <time>2011-05-24T13:49:52Z</time>
      </trkpt>
      <trkpt lat="45.66844" lon="5.83388">
        <ele>1153.719482</ele>
        <time>2011-05-24T13:49:58Z</time>
      </trkpt>
      <trkpt lat="45.66839" lon="5.83386">
        <ele>1152.277344</ele>
        <time>2011-05-24T13:50:05Z</time>
      </trkpt>
      <trkpt lat="45.66834" lon="5.83384">
        <ele>1151.796875</ele>
        <time>2011-05-24T13:50:11Z</time>
      </trkpt>
      <trkpt lat="45.66829" lon="5.83382">
        <ele>1150.835449</ele>
        <time>2011-05-24T13:50:16Z</time>
      </trkpt>
      <trkpt lat="45.6682" lon="5.83383">
        <ele>1149.874268</ele>
        <time>2011-05-24T13:50:26Z</time>
      </trkpt>
      <trkpt lat="45.66815" lon="5.83384">
        <ele>1148.912842</ele>
        <time>2011-05-24T13:50:33Z</time>
      </trkpt>
      <trkpt lat="45.6681" lon="5.83382">
        <ele>1147.470703</ele>
        <time>2011-05-24T13:50:41Z</time>
      </trkpt>
      <trkpt lat="45.66805" lon="5.83381">
        <ele>1147.470703</ele>
        <time>2011-05-24T13:50:46Z</time>
      </trkpt>
      <trkpt lat="45.66801" lon="5.83382">
        <ele>1146.509521</ele>
        <time>2011-05-24T13:50:52Z</time>
      </trkpt>
      <trkpt lat="45.66799" lon="5.83382">
        <ele>1146.028809</ele>
        <time>2011-05-24T13:50:54Z</time>
      </trkpt>
      <trkpt lat="45.66789" lon="5.83379">
        <ele>1145.067383</ele>
        <time>2011-05-24T13:51:04Z</time>
      </trkpt>
      <trkpt lat="45.66785" lon="5.83377">
        <ele>1145.067383</ele>
        <time>2011-05-24T13:51:09Z</time>
      </trkpt>
      <trkpt lat="45.66778" lon="5.83376">
        <ele>1143.625488</ele>
        <time>2011-05-24T13:51:16Z</time>
      </trkpt>
      <trkpt lat="45.66774" lon="5.83377">
        <ele>1144.58667</ele>
        <time>2011-05-24T13:51:22Z</time>
      </trkpt>
      <trkpt lat="45.66769" lon="5.83375">
        <ele>1143.144775</ele>
        <time>2011-05-24T13:51:29Z</time>
      </trkpt>
      <trkpt lat="45.66763" lon="5.83373">
        <ele>1142.183594</ele>
        <time>2011-05-24T13:51:36Z</time>
      </trkpt>
      <trkpt lat="45.6676" lon="5.83371">
        <ele>1142.183594</ele>
        <time>2011-05-24T13:51:42Z</time>
      </trkpt>
      <trkpt lat="45.66754" lon="5.83367">
        <ele>1140.260986</ele>
        <time>2011-05-24T13:51:51Z</time>
      </trkpt>
      <trkpt lat="45.66747" lon="5.83367">
        <ele>1139.780273</ele>
        <time>2011-05-24T13:51:58Z</time>
      </trkpt>
      <trkpt lat="45.66744" lon="5.83366">
        <ele>1139.299561</ele>
        <time>2011-05-24T13:52:05Z</time>
      </trkpt>
      <trkpt lat="45.66738" lon="5.83368">
        <ele>1138.338379</ele>
        <time>2011-05-24T13:52:11Z</time>
      </trkpt>
      <trkpt lat="45.66735" lon="5.83364">
        <ele>1137.376953</ele>
        <time>2011-05-24T13:52:16Z</time>
      </trkpt>
      <trkpt lat="45.66726" lon="5.83362">
        <ele>1135.935059</ele>
        <time>2011-05-24T13:52:26Z</time>
      </trkpt>
      <trkpt lat="45.66719" lon="5.83362">
        <ele>1135.454346</ele>
        <time>2011-05-24T13:52:32Z</time>
      </trkpt>
      <trkpt lat="45.66715" lon="5.83361">
        <ele>1134.973877</ele>
        <time>2011-05-24T13:52:37Z</time>
      </trkpt>
      <trkpt lat="45.66711" lon="5.83362">
        <ele>1134.012451</ele>
        <time>2011-05-24T13:55:13Z</time>
      </trkpt>
      <trkpt lat="45.66704" lon="5.83361">
        <ele>1134.493164</ele>
        <time>2011-05-24T13:55:24Z</time>
      </trkpt>
      <trkpt lat="45.667" lon="5.83363">
        <ele>1133.051025</ele>
        <time>2011-05-24T13:55:32Z</time>
      </trkpt>
      <trkpt lat="45.66685" lon="5.8336">
        <ele>1131.128418</ele>
        <time>2011-05-24T13:55:58Z</time>
      </trkpt>
      <trkpt lat="45.66681" lon="5.83362">
        <ele>1131.128418</ele>
        <time>2011-05-24T13:56:13Z</time>
      </trkpt>
      <trkpt lat="45.66669" lon="5.83363">
        <ele>1129.205566</ele>
        <time>2011-05-24T13:56:27Z</time>
      </trkpt>
      <trkpt lat="45.66662" lon="5.83363">
        <ele>1128.725098</ele>
        <time>2011-05-24T13:56:34Z</time>
      </trkpt>
      <trkpt lat="45.66656" lon="5.83364">
        <ele>1128.244385</ele>
        <time>2011-05-24T13:56:39Z</time>
      </trkpt>
      <trkpt lat="45.66651" lon="5.83364">
        <ele>1127.763672</ele>
        <time>2011-05-24T13:56:44Z</time>
      </trkpt>
      <trkpt lat="45.66644" lon="5.83363">
        <ele>1126.321777</ele>
        <time>2011-05-24T13:56:54Z</time>
      </trkpt>
      <trkpt lat="45.66634" lon="5.83363">
        <ele>1125.360352</ele>
        <time>2011-05-24T13:57:04Z</time>
      </trkpt>
      <trkpt lat="45.66626" lon="5.83366">
        <ele>1124.879883</ele>
        <time>2011-05-24T13:57:12Z</time>
      </trkpt>
      <trkpt lat="45.66615" lon="5.83366">
        <ele>1122.957275</ele>
        <time>2011-05-24T13:57:23Z</time>
      </trkpt>
      <trkpt lat="45.6661" lon="5.83366">
        <ele>1121.99585</ele>
        <time>2011-05-24T13:57:29Z</time>
      </trkpt>
      <trkpt lat="45.66596" lon="5.83363">
        <ele>1121.034668</ele>
        <time>2011-05-24T13:57:45Z</time>
      </trkpt>
      <trkpt lat="45.66591" lon="5.83355">
        <ele>1120.553955</ele>
        <time>2011-05-24T13:58:13Z</time>
      </trkpt>
      <trkpt lat="45.66587" lon="5.83353">
        <ele>1119.592773</ele>
        <time>2011-05-24T13:58:18Z</time>
      </trkpt>
      <trkpt lat="45.66581" lon="5.83351">
        <ele>1118.150635</ele>
        <time>2011-05-24T13:58:25Z</time>
      </trkpt>
      <trkpt lat="45.66573" lon="5.83348">
        <ele>1116.70874</ele>
        <time>2011-05-24T13:58:35Z</time>
      </trkpt>
      <trkpt lat="45.66567" lon="5.83346">
        <ele>1115.747314</ele>
        <time>2011-05-24T13:58:41Z</time>
      </trkpt>
      <trkpt lat="45.6656" lon="5.83344">
        <ele>1114.785889</ele>
        <time>2011-05-24T13:58:48Z</time>
      </trkpt>
      <trkpt lat="45.66552" lon="5.83337">
        <ele>1114.305176</ele>
        <time>2011-05-24T13:59:01Z</time>
      </trkpt>
      <trkpt lat="45.66543" lon="5.83338">
        <ele>1113.824463</ele>
        <time>2011-05-24T13:59:13Z</time>
      </trkpt>
      <trkpt lat="45.66529" lon="5.83333">
        <ele>1112.863281</ele>
        <time>2011-05-24T13:59:29Z</time>
      </trkpt>
      <trkpt lat="45.66511" lon="5.83328">
        <ele>1110.940674</ele>
        <time>2011-05-24T13:59:47Z</time>
      </trkpt>
      <trkpt lat="45.66496" lon="5.83325">
        <ele>1110.459961</ele>
        <time>2011-05-24T14:00:01Z</time>
      </trkpt>
      <trkpt lat="45.66492" lon="5.83323">
        <ele>1110.459961</ele>
        <time>2011-05-24T14:00:06Z</time>
      </trkpt>
      <trkpt lat="45.66484" lon="5.83323">
        <ele>1109.979248</ele>
        <time>2011-05-24T14:00:15Z</time>
      </trkpt>
      <trkpt lat="45.66468" lon="5.83315">
        <ele>1108.056885</ele>
        <time>2011-05-24T14:00:31Z</time>
      </trkpt>
      <trkpt lat="45.6646" lon="5.83316">
        <ele>1108.056885</ele>
        <time>2011-05-24T14:00:37Z</time>
      </trkpt>
      <trkpt lat="45.6645" lon="5.83314">
        <ele>1106.134033</ele>
        <time>2011-05-24T14:00:49Z</time>
      </trkpt>
      <trkpt lat="45.66442" lon="5.83309">
        <ele>1106.134033</ele>
        <time>2011-05-24T14:01:00Z</time>
      </trkpt>
      <trkpt lat="45.66431" lon="5.83308">
        <ele>1106.134033</ele>
        <time>2011-05-24T14:01:13Z</time>
      </trkpt>
      <trkpt lat="45.66424" lon="5.83305">
        <ele>1105.172852</ele>
        <time>2011-05-24T14:01:19Z</time>
      </trkpt>
      <trkpt lat="45.66417" lon="5.83304">
        <ele>1104.692139</ele>
        <time>2011-05-24T14:01:25Z</time>
      </trkpt>
      <trkpt lat="45.6641" lon="5.83303">
        <ele>1103.730957</ele>
        <time>2011-05-24T14:01:32Z</time>
      </trkpt>
      <trkpt lat="45.66404" lon="5.833">
        <ele>1102.769531</ele>
        <time>2011-05-24T14:01:39Z</time>
      </trkpt>
      <trkpt lat="45.66399" lon="5.83303">
        <ele>1102.288818</ele>
        <time>2011-05-24T14:01:45Z</time>
      </trkpt>
      <trkpt lat="45.66392" lon="5.83303">
        <ele>1102.288818</ele>
        <time>2011-05-24T14:01:51Z</time>
      </trkpt>
      <trkpt lat="45.66382" lon="5.83301">
        <ele>1100.366455</ele>
        <time>2011-05-24T14:02:00Z</time>
      </trkpt>
      <trkpt lat="45.66376" lon="5.83302">
        <ele>1099.404785</ele>
        <time>2011-05-24T14:02:05Z</time>
      </trkpt>
      <trkpt lat="45.66368" lon="5.83304">
        <ele>1098.443359</ele>
        <time>2011-05-24T14:02:12Z</time>
      </trkpt>
      <trkpt lat="45.66363" lon="5.83306">
        <ele>1098.443359</ele>
        <time>2011-05-24T14:02:18Z</time>
      </trkpt>
      <trkpt lat="45.66355" lon="5.83312">
        <ele>1097.482178</ele>
        <time>2011-05-24T14:02:25Z</time>
      </trkpt>
      <trkpt lat="45.66346" lon="5.83313">
        <ele>1096.520996</ele>
        <time>2011-05-24T14:02:35Z</time>
      </trkpt>
      <trkpt lat="45.66337" lon="5.83316">
        <ele>1095.078857</ele>
        <time>2011-05-24T14:02:43Z</time>
      </trkpt>
      <trkpt lat="45.66328" lon="5.83316">
        <ele>1093.636963</ele>
        <time>2011-05-24T14:02:53Z</time>
      </trkpt>
      <trkpt lat="45.6632" lon="5.83318">
        <ele>1091.714355</ele>
        <time>2011-05-24T14:03:02Z</time>
      </trkpt>
      <trkpt lat="45.66313" lon="5.83321">
        <ele>1090.75293</ele>
        <time>2011-05-24T14:03:09Z</time>
      </trkpt>
      <trkpt lat="45.66303" lon="5.83322">
        <ele>1089.311035</ele>
        <time>2011-05-24T14:03:19Z</time>
      </trkpt>
      <trkpt lat="45.66298" lon="5.83323">
        <ele>1088.830566</ele>
        <time>2011-05-24T14:03:24Z</time>
      </trkpt>
      <trkpt lat="45.66289" lon="5.83323">
        <ele>1086.427246</ele>
        <time>2011-05-24T14:03:33Z</time>
      </trkpt>
      <trkpt lat="45.66283" lon="5.83321">
        <ele>1085.946533</ele>
        <time>2011-05-24T14:03:39Z</time>
      </trkpt>
      <trkpt lat="45.66278" lon="5.83319">
        <ele>1085.946533</ele>
        <time>2011-05-24T14:03:44Z</time>
      </trkpt>
      <trkpt lat="45.66273" lon="5.83316">
        <ele>1084.985352</ele>
        <time>2011-05-24T14:03:50Z</time>
      </trkpt>
      <trkpt lat="45.66269" lon="5.83313">
        <ele>1084.023926</ele>
        <time>2011-05-24T14:03:56Z</time>
      </trkpt>
      <trkpt lat="45.66262" lon="5.83311">
        <ele>1083.542969</ele>
        <time>2011-05-24T14:04:03Z</time>
      </trkpt>
      <trkpt lat="45.66257" lon="5.83309">
        <ele>1082.581787</ele>
        <time>2011-05-24T14:04:10Z</time>
      </trkpt>
      <trkpt lat="45.66257" lon="5.83316">
        <ele>1083.062256</ele>
        <time>2011-05-24T14:15:43Z</time>
      </trkpt>
      <trkpt lat="45.66261" lon="5.83316">
        <ele>1083.062256</ele>
        <time>2011-05-24T14:15:49Z</time>
      </trkpt>
      <trkpt lat="45.66266" lon="5.8332">
        <ele>1081.620361</ele>
        <time>2011-05-24T14:15:57Z</time>
      </trkpt>
      <trkpt lat="45.66271" lon="5.83325">
        <ele>1080.65918</ele>
        <time>2011-05-24T14:16:04Z</time>
      </trkpt>
      <trkpt lat="45.66278" lon="5.83331">
        <ele>1080.178467</ele>
        <time>2011-05-24T14:16:12Z</time>
      </trkpt>
      <trkpt lat="45.66286" lon="5.83335">
        <ele>1079.217041</ele>
        <time>2011-05-24T14:16:20Z</time>
      </trkpt>
      <trkpt lat="45.66292" lon="5.83339">
        <ele>1077.294678</ele>
        <time>2011-05-24T14:16:27Z</time>
      </trkpt>
      <trkpt lat="45.66297" lon="5.83342">
        <ele>1076.333252</ele>
        <time>2011-05-24T14:16:35Z</time>
      </trkpt>
      <trkpt lat="45.66297" lon="5.83346">
        <ele>1075.371826</ele>
        <time>2011-05-24T14:16:44Z</time>
      </trkpt>
      <trkpt lat="45.66298" lon="5.83347">
        <ele>1074.410645</ele>
        <time>2011-05-24T14:16:47Z</time>
      </trkpt>
      <trkpt lat="45.66296" lon="5.83348">
        <ele>1072.96875</ele>
        <time>2011-05-24T14:16:56Z</time>
      </trkpt>
      <trkpt lat="45.66293" lon="5.83349">
        <ele>1072.007324</ele>
        <time>2011-05-24T14:17:02Z</time>
      </trkpt>
      <trkpt lat="45.66288" lon="5.83353">
        <ele>1070.084717</ele>
        <time>2011-05-24T14:17:11Z</time>
      </trkpt>
      <trkpt lat="45.66282" lon="5.83353">
        <ele>1068.162109</ele>
        <time>2011-05-24T14:17:19Z</time>
      </trkpt>
      <trkpt lat="45.66271" lon="5.83353">
        <ele>1066.719971</ele>
        <time>2011-05-24T14:17:28Z</time>
      </trkpt>
      <trkpt lat="45.66267" lon="5.8335">
        <ele>1066.239258</ele>
        <time>2011-05-24T14:17:34Z</time>
      </trkpt>
      <trkpt lat="45.66259" lon="5.8335">
        <ele>1065.278076</ele>
        <time>2011-05-24T14:17:41Z</time>
      </trkpt>
      <trkpt lat="45.66255" lon="5.83351">
        <ele>1065.278076</ele>
        <time>2011-05-24T14:17:53Z</time>
      </trkpt>
      <trkpt lat="45.66246" lon="5.83349">
        <ele>1063.355469</ele>
        <time>2011-05-24T14:18:43Z</time>
      </trkpt>
      <trkpt lat="45.66244" lon="5.83349">
        <ele>1062.394043</ele>
        <time>2011-05-24T14:18:46Z</time>
      </trkpt>
      <trkpt lat="45.66241" lon="5.83353">
        <ele>1061.432861</ele>
        <time>2011-05-24T14:18:56Z</time>
      </trkpt>
      <trkpt lat="45.66238" lon="5.83355">
        <ele>1060.952148</ele>
        <time>2011-05-24T14:19:02Z</time>
      </trkpt>
      <trkpt lat="45.66234" lon="5.83356">
        <ele>1059.990723</ele>
        <time>2011-05-24T14:19:11Z</time>
      </trkpt>
      <trkpt lat="45.66228" lon="5.83357">
        <ele>1058.548828</ele>
        <time>2011-05-24T14:19:18Z</time>
      </trkpt>
      <trkpt lat="45.66221" lon="5.83356">
        <ele>1057.106934</ele>
        <time>2011-05-24T14:19:25Z</time>
      </trkpt>
      <trkpt lat="45.66212" lon="5.83358">
        <ele>1054.703613</ele>
        <time>2011-05-24T14:19:33Z</time>
      </trkpt>
      <trkpt lat="45.66206" lon="5.83361">
        <ele>1052.781006</ele>
        <time>2011-05-24T14:19:41Z</time>
      </trkpt>
      <trkpt lat="45.66196" lon="5.83367">
        <ele>1051.81958</ele>
        <time>2011-05-24T14:19:49Z</time>
      </trkpt>
      <trkpt lat="45.66192" lon="5.83365">
        <ele>1050.377686</ele>
        <time>2011-05-24T14:19:58Z</time>
      </trkpt>
      <trkpt lat="45.6619" lon="5.83366">
        <ele>1050.377686</ele>
        <time>2011-05-24T14:20:00Z</time>
      </trkpt>
      <trkpt lat="45.66181" lon="5.83366">
        <ele>1049.41626</ele>
        <time>2011-05-24T14:20:08Z</time>
      </trkpt>
      <trkpt lat="45.66175" lon="5.83362">
        <ele>1047.493652</ele>
        <time>2011-05-24T14:20:19Z</time>
      </trkpt>
      <trkpt lat="45.66168" lon="5.83364">
        <ele>1045.090332</ele>
        <time>2011-05-24T14:20:33Z</time>
      </trkpt>
      <trkpt lat="45.66163" lon="5.83366">
        <ele>1044.12915</ele>
        <time>2011-05-24T14:20:41Z</time>
      </trkpt>
      <trkpt lat="45.66157" lon="5.83366">
        <ele>1043.167725</ele>
        <time>2011-05-24T14:20:47Z</time>
      </trkpt>
      <trkpt lat="45.66146" lon="5.8337">
        <ele>1042.206543</ele>
        <time>2011-05-24T14:20:57Z</time>
      </trkpt>
      <trkpt lat="45.66142" lon="5.83373">
        <ele>1040.764404</ele>
        <time>2011-05-24T14:21:04Z</time>
      </trkpt>
      <trkpt lat="45.66132" lon="5.8338">
        <ele>1039.803223</ele>
        <time>2011-05-24T14:21:12Z</time>
      </trkpt>
      <trkpt lat="45.66126" lon="5.83376">
        <ele>1038.361328</ele>
        <time>2011-05-24T14:21:18Z</time>
      </trkpt>
      <trkpt lat="45.66114" lon="5.83379">
        <ele>1036.919189</ele>
        <time>2011-05-24T14:21:25Z</time>
      </trkpt>
      <trkpt lat="45.66111" lon="5.83381">
        <ele>1036.438721</ele>
        <time>2011-05-24T14:21:31Z</time>
      </trkpt>
      <trkpt lat="45.66106" lon="5.83386">
        <ele>1035.957764</ele>
        <time>2011-05-24T14:21:38Z</time>
      </trkpt>
      <trkpt lat="45.66106" lon="5.83392">
        <ele>1035.957764</ele>
        <time>2011-05-24T14:22:22Z</time>
      </trkpt>
      <trkpt lat="45.66103" lon="5.83396">
        <ele>1035.957764</ele>
        <time>2011-05-24T14:22:24Z</time>
      </trkpt>
      <trkpt lat="45.66095" lon="5.83409">
        <ele>1035.957764</ele>
        <time>2011-05-24T14:22:31Z</time>
      </trkpt>
      <trkpt lat="45.66107" lon="5.83395">
        <ele>1035.957764</ele>
        <time>2011-05-24T14:22:43Z</time>
      </trkpt>
      <trkpt lat="45.66107" lon="5.83393">
        <ele>1035.957764</ele>
        <time>2011-05-24T14:22:49Z</time>
      </trkpt>
      <trkpt lat="45.66111" lon="5.83386">
        <ele>1035.477051</ele>
        <time>2011-05-24T14:22:59Z</time>
      </trkpt>
      <trkpt lat="45.66116" lon="5.83382">
        <ele>1033.554443</ele>
        <time>2011-05-24T14:23:06Z</time>
      </trkpt>
      <trkpt lat="45.66119" lon="5.83382">
        <ele>1032.112549</ele>
        <time>2011-05-24T14:23:15Z</time>
      </trkpt>
      <trkpt lat="45.66128" lon="5.83382">
        <ele>1030.670654</ele>
        <time>2011-05-24T14:23:22Z</time>
      </trkpt>
      <trkpt lat="45.66135" lon="5.83387">
        <ele>1029.228516</ele>
        <time>2011-05-24T14:23:31Z</time>
      </trkpt>
      <trkpt lat="45.66137" lon="5.83389">
        <ele>1028.267334</ele>
        <time>2011-05-24T14:23:35Z</time>
      </trkpt>
      <trkpt lat="45.66146" lon="5.83393">
        <ele>1026.825439</ele>
        <time>2011-05-24T14:23:44Z</time>
      </trkpt>
      <trkpt lat="45.66156" lon="5.83404">
        <ele>1023.460938</ele>
        <time>2011-05-24T14:23:55Z</time>
      </trkpt>
      <trkpt lat="45.66162" lon="5.83409">
        <ele>1023.941406</ele>
        <time>2011-05-24T14:24:04Z</time>
      </trkpt>
      <trkpt lat="45.66168" lon="5.83413">
        <ele>1022.980225</ele>
        <time>2011-05-24T14:24:12Z</time>
      </trkpt>
      <trkpt lat="45.66174" lon="5.83414">
        <ele>1022.499512</ele>
        <time>2011-05-24T14:24:20Z</time>
      </trkpt>
      <trkpt lat="45.66181" lon="5.83416">
        <ele>1022.018799</ele>
        <time>2011-05-24T14:24:26Z</time>
      </trkpt>
      <trkpt lat="45.66184" lon="5.83423">
        <ele>1020.576904</ele>
        <time>2011-05-24T14:24:32Z</time>
      </trkpt>
      <trkpt lat="45.66185" lon="5.83431">
        <ele>1018.654053</ele>
        <time>2011-05-24T14:24:41Z</time>
      </trkpt>
      <trkpt lat="45.66182" lon="5.83431">
        <ele>1016.731445</ele>
        <time>2011-05-24T14:24:47Z</time>
      </trkpt>
      <trkpt lat="45.66176" lon="5.83432">
        <ele>1015.289551</ele>
        <time>2011-05-24T14:24:55Z</time>
      </trkpt>
      <trkpt lat="45.66169" lon="5.83433">
        <ele>1013.847412</ele>
        <time>2011-05-24T14:25:01Z</time>
      </trkpt>
      <trkpt lat="45.66168" lon="5.83434">
        <ele>1013.366943</ele>
        <time>2011-05-24T14:25:02Z</time>
      </trkpt>
      <trkpt lat="45.66158" lon="5.83438">
        <ele>1012.88623</ele>
        <time>2011-05-24T14:25:12Z</time>
      </trkpt>
      <trkpt lat="45.6615" lon="5.83437">
        <ele>1010.963623</ele>
        <time>2011-05-24T14:27:02Z</time>
      </trkpt>
      <trkpt lat="45.66142" lon="5.83438">
        <ele>1010.002197</ele>
        <time>2011-05-24T14:27:11Z</time>
      </trkpt>
      <trkpt lat="45.66137" lon="5.83441">
        <ele>1008.560303</ele>
        <time>2011-05-24T14:27:16Z</time>
      </trkpt>
      <trkpt lat="45.66127" lon="5.83445">
        <ele>1007.118408</ele>
        <time>2011-05-24T14:27:25Z</time>
      </trkpt>
      <trkpt lat="45.66117" lon="5.83447">
        <ele>1004.234619</ele>
        <time>2011-05-24T14:27:36Z</time>
      </trkpt>
      <trkpt lat="45.66114" lon="5.83451">
        <ele>1002.792236</ele>
        <time>2011-05-24T14:28:00Z</time>
      </trkpt>
      <trkpt lat="45.66121" lon="5.83447">
        <ele>1002.311523</ele>
        <time>2011-05-24T14:28:09Z</time>
      </trkpt>
      <trkpt lat="45.66125" lon="5.83449">
        <ele>1000.869629</ele>
        <time>2011-05-24T14:28:17Z</time>
      </trkpt>
      <trkpt lat="45.66128" lon="5.83451">
        <ele>999.908447</ele>
        <time>2011-05-24T14:28:22Z</time>
      </trkpt>
      <trkpt lat="45.66132" lon="5.83458">
        <ele>998.947021</ele>
        <time>2011-05-24T14:28:28Z</time>
      </trkpt>
      <trkpt lat="45.66135" lon="5.83462">
        <ele>997.98584</ele>
        <time>2011-05-24T14:28:34Z</time>
      </trkpt>
      <trkpt lat="45.66138" lon="5.83463">
        <ele>997.024414</ele>
        <time>2011-05-24T14:28:39Z</time>
      </trkpt>
      <trkpt lat="45.66145" lon="5.83468">
        <ele>995.58252</ele>
        <time>2011-05-24T14:28:45Z</time>
      </trkpt>
      <trkpt lat="45.6615" lon="5.83475">
        <ele>994.140625</ele>
        <time>2011-05-24T14:28:54Z</time>
      </trkpt>
      <trkpt lat="45.66154" lon="5.83485">
        <ele>994.140625</ele>
        <time>2011-05-24T14:29:01Z</time>
      </trkpt>
      <trkpt lat="45.66154" lon="5.83494">
        <ele>993.179199</ele>
        <time>2011-05-24T14:29:06Z</time>
      </trkpt>
      <trkpt lat="45.66158" lon="5.83505">
        <ele>992.69873</ele>
        <time>2011-05-24T14:29:13Z</time>
      </trkpt>
      <trkpt lat="45.66163" lon="5.83518">
        <ele>991.256592</ele>
        <time>2011-05-24T14:29:20Z</time>
      </trkpt>
      <trkpt lat="45.66169" lon="5.83525">
        <ele>989.814697</ele>
        <time>2011-05-24T14:29:26Z</time>
      </trkpt>
      <trkpt lat="45.66173" lon="5.83537">
        <ele>988.372803</ele>
        <time>2011-05-24T14:29:34Z</time>
      </trkpt>
      <trkpt lat="45.66182" lon="5.83544">
        <ele>988.372803</ele>
        <time>2011-05-24T14:29:43Z</time>
      </trkpt>
      <trkpt lat="45.66188" lon="5.83548">
        <ele>987.891846</ele>
        <time>2011-05-24T14:29:49Z</time>
      </trkpt>
      <trkpt lat="45.66195" lon="5.8355">
        <ele>986.93042</ele>
        <time>2011-05-24T14:29:56Z</time>
      </trkpt>
      <trkpt lat="45.66198" lon="5.8355">
        <ele>986.449951</ele>
        <time>2011-05-24T14:29:59Z</time>
      </trkpt>
      <trkpt lat="45.66204" lon="5.83557">
        <ele>985.008057</ele>
        <time>2011-05-24T14:30:06Z</time>
      </trkpt>
      <trkpt lat="45.66212" lon="5.83561">
        <ele>984.046631</ele>
        <time>2011-05-24T14:30:14Z</time>
      </trkpt>
      <trkpt lat="45.6622" lon="5.83564">
        <ele>983.085205</ele>
        <time>2011-05-24T14:30:21Z</time>
      </trkpt>
      <trkpt lat="45.66227" lon="5.83568">
        <ele>982.124023</ele>
        <time>2011-05-24T14:30:27Z</time>
      </trkpt>
      <trkpt lat="45.66235" lon="5.83569">
        <ele>979.720703</ele>
        <time>2011-05-24T14:30:37Z</time>
      </trkpt>
      <trkpt lat="45.66243" lon="5.83569">
        <ele>978.759521</ele>
        <time>2011-05-24T14:30:44Z</time>
      </trkpt>
      <trkpt lat="45.66258" lon="5.83574">
        <ele>976.356201</ele>
        <time>2011-05-24T14:31:00Z</time>
      </trkpt>
      <trkpt lat="45.66265" lon="5.83573">
        <ele>975.394775</ele>
        <time>2011-05-24T14:31:07Z</time>
      </trkpt>
      <trkpt lat="45.66271" lon="5.83575">
        <ele>974.914307</ele>
        <time>2011-05-24T14:31:13Z</time>
      </trkpt>
      <trkpt lat="45.66278" lon="5.83585">
        <ele>972.030273</ele>
        <time>2011-05-24T14:31:30Z</time>
      </trkpt>
      <trkpt lat="45.6628" lon="5.83586">
        <ele>972.030273</ele>
        <time>2011-05-24T14:31:39Z</time>
      </trkpt>
      <trkpt lat="45.66277" lon="5.83589">
        <ele>970.588135</ele>
        <time>2011-05-24T14:33:20Z</time>
      </trkpt>
      <trkpt lat="45.66277" lon="5.83594">
        <ele>970.107422</ele>
        <time>2011-05-24T14:33:27Z</time>
      </trkpt>
      <trkpt lat="45.6627" lon="5.83602">
        <ele>969.626953</ele>
        <time>2011-05-24T14:33:34Z</time>
      </trkpt>
      <trkpt lat="45.66268" lon="5.83604">
        <ele>968.184814</ele>
        <time>2011-05-24T14:33:36Z</time>
      </trkpt>
      <trkpt lat="45.66262" lon="5.83608">
        <ele>967.704102</ele>
        <time>2011-05-24T14:33:44Z</time>
      </trkpt>
      <trkpt lat="45.66256" lon="5.83609">
        <ele>966.74292</ele>
        <time>2011-05-24T14:33:52Z</time>
      </trkpt>
      <trkpt lat="45.6625" lon="5.83608">
        <ele>966.262207</ele>
        <time>2011-05-24T14:33:57Z</time>
      </trkpt>
      <trkpt lat="45.66243" lon="5.83611">
        <ele>963.858887</ele>
        <time>2011-05-24T14:34:03Z</time>
      </trkpt>
      <trkpt lat="45.66236" lon="5.83616">
        <ele>963.378418</ele>
        <time>2011-05-24T14:34:09Z</time>
      </trkpt>
      <trkpt lat="45.66232" lon="5.83618">
        <ele>962.416992</ele>
        <time>2011-05-24T14:34:20Z</time>
      </trkpt>
      <trkpt lat="45.6623" lon="5.83618">
        <ele>962.897705</ele>
        <time>2011-05-24T14:34:30Z</time>
      </trkpt>
      <trkpt lat="45.66225" lon="5.83617">
        <ele>961.455811</ele>
        <time>2011-05-24T14:34:38Z</time>
      </trkpt>
      <trkpt lat="45.66221" lon="5.83619">
        <ele>960.494385</ele>
        <time>2011-05-24T14:34:44Z</time>
      </trkpt>
      <trkpt lat="45.66216" lon="5.83626">
        <ele>957.610596</ele>
        <time>2011-05-24T14:34:55Z</time>
      </trkpt>
      <trkpt lat="45.66219" lon="5.83634">
        <ele>955.687744</ele>
        <time>2011-05-24T14:35:07Z</time>
      </trkpt>
      <trkpt lat="45.66223" lon="5.83638">
        <ele>954.726318</ele>
        <time>2011-05-24T14:35:13Z</time>
      </trkpt>
      <trkpt lat="45.66228" lon="5.83642">
        <ele>953.765137</ele>
        <time>2011-05-24T14:35:21Z</time>
      </trkpt>
      <trkpt lat="45.66233" lon="5.83647">
        <ele>952.803711</ele>
        <time>2011-05-24T14:35:29Z</time>
      </trkpt>
      <trkpt lat="45.66231" lon="5.83653">
        <ele>952.322998</ele>
        <time>2011-05-24T14:35:40Z</time>
      </trkpt>
      <trkpt lat="45.66237" lon="5.83655">
        <ele>951.842529</ele>
        <time>2011-05-24T14:35:50Z</time>
      </trkpt>
      <trkpt lat="45.66234" lon="5.83662">
        <ele>951.842529</ele>
        <time>2011-05-24T14:36:05Z</time>
      </trkpt>
      <trkpt lat="45.66242" lon="5.83661">
        <ele>951.361816</ele>
        <time>2011-05-24T14:36:21Z</time>
      </trkpt>
      <trkpt lat="45.66243" lon="5.83662">
        <ele>951.361816</ele>
        <time>2011-05-24T14:36:22Z</time>
      </trkpt>
      <trkpt lat="45.66253" lon="5.83666">
        <ele>949.919922</ele>
        <time>2011-05-24T14:36:32Z</time>
      </trkpt>
      <trkpt lat="45.66255" lon="5.83674">
        <ele>948.958496</ele>
        <time>2011-05-24T14:36:40Z</time>
      </trkpt>
      <trkpt lat="45.66256" lon="5.83676">
        <ele>948.958496</ele>
        <time>2011-05-24T14:36:48Z</time>
      </trkpt>
      <trkpt lat="45.66257" lon="5.8368">
        <ele>948.958496</ele>
        <time>2011-05-24T14:36:53Z</time>
      </trkpt>
      <trkpt lat="45.66255" lon="5.8369">
        <ele>947.997314</ele>
        <time>2011-05-24T14:37:03Z</time>
      </trkpt>
      <trkpt lat="45.66247" lon="5.83692">
        <ele>946.55542</ele>
        <time>2011-05-24T14:37:12Z</time>
      </trkpt>
      <trkpt lat="45.66235" lon="5.83694">
        <ele>945.113281</ele>
        <time>2011-05-24T14:37:23Z</time>
      </trkpt>
      <trkpt lat="45.66229" lon="5.83696">
        <ele>945.113281</ele>
        <time>2011-05-24T14:37:30Z</time>
      </trkpt>
      <trkpt lat="45.66222" lon="5.83695">
        <ele>945.113281</ele>
        <time>2011-05-24T14:37:40Z</time>
      </trkpt>
      <trkpt lat="45.66212" lon="5.83703">
        <ele>945.113281</ele>
        <time>2011-05-24T14:37:59Z</time>
      </trkpt>
      <trkpt lat="45.66207" lon="5.83705">
        <ele>943.671387</ele>
        <time>2011-05-24T14:39:16Z</time>
      </trkpt>
      <trkpt lat="45.66196" lon="5.83709">
        <ele>942.710205</ele>
        <time>2011-05-24T14:39:25Z</time>
      </trkpt>
      <trkpt lat="45.66189" lon="5.83711">
        <ele>942.229492</ele>
        <time>2011-05-24T14:39:32Z</time>
      </trkpt>
      <trkpt lat="45.66185" lon="5.83711">
        <ele>941.268066</ele>
        <time>2011-05-24T14:39:40Z</time>
      </trkpt>
      <trkpt lat="45.6618" lon="5.83709">
        <ele>940.306885</ele>
        <time>2011-05-24T14:39:46Z</time>
      </trkpt>
      <trkpt lat="45.66173" lon="5.83704">
        <ele>938.864746</ele>
        <time>2011-05-24T14:39:54Z</time>
      </trkpt>
      <trkpt lat="45.6617" lon="5.83701">
        <ele>938.384033</ele>
        <time>2011-05-24T14:40:00Z</time>
      </trkpt>
      <trkpt lat="45.66161" lon="5.83693">
        <ele>937.422607</ele>
        <time>2011-05-24T14:40:16Z</time>
      </trkpt>
      <trkpt lat="45.66152" lon="5.8369">
        <ele>936.461426</ele>
        <time>2011-05-24T14:40:24Z</time>
      </trkpt>
      <trkpt lat="45.66144" lon="5.8369">
        <ele>935.5</ele>
        <time>2011-05-24T14:40:31Z</time>
      </trkpt>
      <trkpt lat="45.66135" lon="5.83687">
        <ele>935.019531</ele>
        <time>2011-05-24T14:40:40Z</time>
      </trkpt>
      <trkpt lat="45.66125" lon="5.83683">
        <ele>934.058105</ele>
        <time>2011-05-24T14:40:49Z</time>
      </trkpt>
      <trkpt lat="45.6612" lon="5.83678">
        <ele>932.616211</ele>
        <time>2011-05-24T14:40:55Z</time>
      </trkpt>
      <trkpt lat="45.66113" lon="5.83673">
        <ele>932.135498</ele>
        <time>2011-05-24T14:41:03Z</time>
      </trkpt>
      <trkpt lat="45.66109" lon="5.83669">
        <ele>931.174316</ele>
        <time>2011-05-24T14:41:08Z</time>
      </trkpt>
      <trkpt lat="45.66102" lon="5.83664">
        <ele>929.732178</ele>
        <time>2011-05-24T14:41:14Z</time>
      </trkpt>
      <trkpt lat="45.66097" lon="5.83661">
        <ele>929.732178</ele>
        <time>2011-05-24T14:41:19Z</time>
      </trkpt>
      <trkpt lat="45.66094" lon="5.83659">
        <ele>928.770996</ele>
        <time>2011-05-24T14:41:22Z</time>
      </trkpt>
      <trkpt lat="45.66085" lon="5.83656">
        <ele>927.80957</ele>
        <time>2011-05-24T14:41:30Z</time>
      </trkpt>
      <trkpt lat="45.66081" lon="5.83655">
        <ele>927.329102</ele>
        <time>2011-05-24T14:41:33Z</time>
      </trkpt>
      <trkpt lat="45.66071" lon="5.83656">
        <ele>926.848389</ele>
        <time>2011-05-24T14:41:43Z</time>
      </trkpt>
      <trkpt lat="45.66066" lon="5.83657">
        <ele>926.367676</ele>
        <time>2011-05-24T14:41:48Z</time>
      </trkpt>
      <trkpt lat="45.66059" lon="5.83658">
        <ele>924.925781</ele>
        <time>2011-05-24T14:41:56Z</time>
      </trkpt>
      <trkpt lat="45.66052" lon="5.83658">
        <ele>924.445068</ele>
        <time>2011-05-24T14:42:02Z</time>
      </trkpt>
      <trkpt lat="45.66041" lon="5.83656">
        <ele>923.483643</ele>
        <time>2011-05-24T14:42:10Z</time>
      </trkpt>
      <trkpt lat="45.66028" lon="5.83657">
        <ele>922.522217</ele>
        <time>2011-05-24T14:42:19Z</time>
      </trkpt>
      <trkpt lat="45.66022" lon="5.83656">
        <ele>921.080322</ele>
        <time>2011-05-24T14:42:25Z</time>
      </trkpt>
      <trkpt lat="45.66015" lon="5.83657">
        <ele>920.599609</ele>
        <time>2011-05-24T14:42:31Z</time>
      </trkpt>
      <trkpt lat="45.66003" lon="5.83656">
        <ele>919.157715</ele>
        <time>2011-05-24T14:42:41Z</time>
      </trkpt>
      <trkpt lat="45.65999" lon="5.83655">
        <ele>918.677002</ele>
        <time>2011-05-24T14:42:46Z</time>
      </trkpt>
      <trkpt lat="45.65994" lon="5.83649">
        <ele>917.715576</ele>
        <time>2011-05-24T14:42:54Z</time>
      </trkpt>
      <trkpt lat="45.6599" lon="5.83645">
        <ele>917.235107</ele>
        <time>2011-05-24T14:42:58Z</time>
      </trkpt>
      <trkpt lat="45.6598" lon="5.83636">
        <ele>915.793213</ele>
        <time>2011-05-24T14:43:07Z</time>
      </trkpt>
      <trkpt lat="45.65975" lon="5.83632">
        <ele>915.3125</ele>
        <time>2011-05-24T14:43:13Z</time>
      </trkpt>
      <trkpt lat="45.65962" lon="5.83627">
        <ele>913.870361</ele>
        <time>2011-05-24T14:43:22Z</time>
      </trkpt>
      <trkpt lat="45.65954" lon="5.83625">
        <ele>911.947998</ele>
        <time>2011-05-24T14:43:29Z</time>
      </trkpt>
      <trkpt lat="45.65945" lon="5.83624">
        <ele>911.947998</ele>
        <time>2011-05-24T14:43:37Z</time>
      </trkpt>
      <trkpt lat="45.65939" lon="5.83625">
        <ele>910.986572</ele>
        <time>2011-05-24T14:43:46Z</time>
      </trkpt>
      <trkpt lat="45.65928" lon="5.83623">
        <ele>909.544678</ele>
        <time>2011-05-24T14:43:56Z</time>
      </trkpt>
      <trkpt lat="45.65919" lon="5.83621">
        <ele>908.102783</ele>
        <time>2011-05-24T14:44:07Z</time>
      </trkpt>
      <trkpt lat="45.65913" lon="5.8362">
        <ele>908.102783</ele>
        <time>2011-05-24T14:44:13Z</time>
      </trkpt>
      <trkpt lat="45.65908" lon="5.83616">
        <ele>906.6604</ele>
        <time>2011-05-24T14:44:21Z</time>
      </trkpt>
      <trkpt lat="45.65902" lon="5.83612">
        <ele>906.179688</ele>
        <time>2011-05-24T14:44:26Z</time>
      </trkpt>
      <trkpt lat="45.65896" lon="5.83604">
        <ele>905.699219</ele>
        <time>2011-05-24T14:44:33Z</time>
      </trkpt>
      <trkpt lat="45.6589" lon="5.836">
        <ele>904.737793</ele>
        <time>2011-05-24T14:44:40Z</time>
      </trkpt>
      <trkpt lat="45.65887" lon="5.83596">
        <ele>904.737793</ele>
        <time>2011-05-24T14:44:44Z</time>
      </trkpt>
      <trkpt lat="45.65881" lon="5.83591">
        <ele>903.776611</ele>
        <time>2011-05-24T14:44:50Z</time>
      </trkpt>
      <trkpt lat="45.65878" lon="5.83589">
        <ele>903.776611</ele>
        <time>2011-05-24T14:44:52Z</time>
      </trkpt>
      <trkpt lat="45.65866" lon="5.83588">
        <ele>901.854004</ele>
        <time>2011-05-24T14:45:01Z</time>
      </trkpt>
      <trkpt lat="45.65855" lon="5.83588">
        <ele>900.412109</ele>
        <time>2011-05-24T14:45:10Z</time>
      </trkpt>
      <trkpt lat="45.65848" lon="5.83586">
        <ele>899.931396</ele>
        <time>2011-05-24T14:45:17Z</time>
      </trkpt>
      <trkpt lat="45.65846" lon="5.83584">
        <ele>899.931396</ele>
        <time>2011-05-24T14:45:24Z</time>
      </trkpt>
      <trkpt lat="45.65848" lon="5.83588">
        <ele>896.566895</ele>
        <time>2011-05-24T14:45:56Z</time>
      </trkpt>
      <trkpt lat="45.6585" lon="5.83595">
        <ele>894.644043</ele>
        <time>2011-05-24T14:46:03Z</time>
      </trkpt>
      <trkpt lat="45.65848" lon="5.83602">
        <ele>893.202148</ele>
        <time>2011-05-24T14:46:11Z</time>
      </trkpt>
      <trkpt lat="45.65853" lon="5.83602">
        <ele>892.72168</ele>
        <time>2011-05-24T14:46:17Z</time>
      </trkpt>
      <trkpt lat="45.65859" lon="5.83605">
        <ele>890.318115</ele>
        <time>2011-05-24T14:46:28Z</time>
      </trkpt>
      <trkpt lat="45.65866" lon="5.83611">
        <ele>888.876221</ele>
        <time>2011-05-24T14:46:34Z</time>
      </trkpt>
      <trkpt lat="45.65871" lon="5.83618">
        <ele>887.914795</ele>
        <time>2011-05-24T14:46:41Z</time>
      </trkpt>
      <trkpt lat="45.65876" lon="5.83624">
        <ele>886.4729</ele>
        <time>2011-05-24T14:46:48Z</time>
      </trkpt>
      <trkpt lat="45.65877" lon="5.83633">
        <ele>885.992188</ele>
        <time>2011-05-24T14:46:53Z</time>
      </trkpt>
      <trkpt lat="45.65882" lon="5.83643">
        <ele>885.031006</ele>
        <time>2011-05-24T14:47:04Z</time>
      </trkpt>
      <trkpt lat="45.65884" lon="5.83647">
        <ele>883.108154</ele>
        <time>2011-05-24T14:47:09Z</time>
      </trkpt>
      <trkpt lat="45.65887" lon="5.83655">
        <ele>882.146973</ele>
        <time>2011-05-24T14:47:14Z</time>
      </trkpt>
      <trkpt lat="45.65891" lon="5.83667">
        <ele>881.185791</ele>
        <time>2011-05-24T14:47:23Z</time>
      </trkpt>
      <trkpt lat="45.65894" lon="5.83677">
        <ele>880.705078</ele>
        <time>2011-05-24T14:47:29Z</time>
      </trkpt>
      <trkpt lat="45.659" lon="5.8369">
        <ele>879.262939</ele>
        <time>2011-05-24T14:47:36Z</time>
      </trkpt>
      <trkpt lat="45.65905" lon="5.83694">
        <ele>878.782471</ele>
        <time>2011-05-24T14:47:42Z</time>
      </trkpt>
      <trkpt lat="45.65912" lon="5.83702">
        <ele>877.821045</ele>
        <time>2011-05-24T14:47:48Z</time>
      </trkpt>
      <trkpt lat="45.65919" lon="5.83706">
        <ele>876.859863</ele>
        <time>2011-05-24T14:47:54Z</time>
      </trkpt>
      <trkpt lat="45.6593" lon="5.83713">
        <ele>875.898193</ele>
        <time>2011-05-24T14:48:04Z</time>
      </trkpt>
      <trkpt lat="45.65933" lon="5.83714">
        <ele>874.937012</ele>
        <time>2011-05-24T14:48:07Z</time>
      </trkpt>
      <trkpt lat="45.6594" lon="5.83721">
        <ele>874.456299</ele>
        <time>2011-05-24T14:48:14Z</time>
      </trkpt>
      <trkpt lat="45.65944" lon="5.83727">
        <ele>873.495117</ele>
        <time>2011-05-24T14:48:19Z</time>
      </trkpt>
      <trkpt lat="45.65948" lon="5.83732">
        <ele>873.014404</ele>
        <time>2011-05-24T14:48:25Z</time>
      </trkpt>
      <trkpt lat="45.65953" lon="5.83735">
        <ele>872.052979</ele>
        <time>2011-05-24T14:48:32Z</time>
      </trkpt>
      <trkpt lat="45.65958" lon="5.83743">
        <ele>871.572266</ele>
        <time>2011-05-24T14:48:37Z</time>
      </trkpt>
      <trkpt lat="45.65965" lon="5.8375">
        <ele>870.130371</ele>
        <time>2011-05-24T14:48:45Z</time>
      </trkpt>
      <trkpt lat="45.6597" lon="5.83759">
        <ele>868.688477</ele>
        <time>2011-05-24T14:48:51Z</time>
      </trkpt>
      <trkpt lat="45.6598" lon="5.83762">
        <ele>867.727051</ele>
        <time>2011-05-24T14:48:59Z</time>
      </trkpt>
      <trkpt lat="45.65986" lon="5.83766">
        <ele>867.246582</ele>
        <time>2011-05-24T14:49:06Z</time>
      </trkpt>
      <trkpt lat="45.65991" lon="5.8377">
        <ele>866.765869</ele>
        <time>2011-05-24T14:49:12Z</time>
      </trkpt>
      <trkpt lat="45.65999" lon="5.8378">
        <ele>865.323975</ele>
        <time>2011-05-24T14:49:21Z</time>
      </trkpt>
      <trkpt lat="45.66003" lon="5.83784">
        <ele>864.843262</ele>
        <time>2011-05-24T14:49:26Z</time>
      </trkpt>
      <trkpt lat="45.66011" lon="5.83791">
        <ele>864.843262</ele>
        <time>2011-05-24T14:49:35Z</time>
      </trkpt>
      <trkpt lat="45.66014" lon="5.83796">
        <ele>863.881836</ele>
        <time>2011-05-24T14:49:40Z</time>
      </trkpt>
      <trkpt lat="45.6602" lon="5.83803">
        <ele>862.920654</ele>
        <time>2011-05-24T14:49:48Z</time>
      </trkpt>
      <trkpt lat="45.66027" lon="5.83809">
        <ele>862.439941</ele>
        <time>2011-05-24T14:49:54Z</time>
      </trkpt>
      <trkpt lat="45.66036" lon="5.83812">
        <ele>861.959473</ele>
        <time>2011-05-24T14:50:01Z</time>
      </trkpt>
      <trkpt lat="45.66045" lon="5.8382">
        <ele>860.998047</ele>
        <time>2011-05-24T14:50:10Z</time>
      </trkpt>
      <trkpt lat="45.66056" lon="5.83824">
        <ele>859.075195</ele>
        <time>2011-05-24T14:50:21Z</time>
      </trkpt>
      <trkpt lat="45.66063" lon="5.8383">
        <ele>857.152588</ele>
        <time>2011-05-24T14:50:28Z</time>
      </trkpt>
      <trkpt lat="45.66068" lon="5.83837">
        <ele>856.671875</ele>
        <time>2011-05-24T14:50:34Z</time>
      </trkpt>
      <trkpt lat="45.66076" lon="5.8384">
        <ele>856.191162</ele>
        <time>2011-05-24T14:50:41Z</time>
      </trkpt>
      <trkpt lat="45.66085" lon="5.83844">
        <ele>855.22998</ele>
        <time>2011-05-24T14:50:49Z</time>
      </trkpt>
      <trkpt lat="45.6609" lon="5.83847">
        <ele>853.788086</ele>
        <time>2011-05-24T14:50:55Z</time>
      </trkpt>
      <trkpt lat="45.66096" lon="5.83854">
        <ele>852.345947</ele>
        <time>2011-05-24T14:51:03Z</time>
      </trkpt>
      <trkpt lat="45.66102" lon="5.83858">
        <ele>851.865479</ele>
        <time>2011-05-24T14:51:09Z</time>
      </trkpt>
      <trkpt lat="45.66109" lon="5.83859">
        <ele>852.345947</ele>
        <time>2011-05-24T14:51:16Z</time>
      </trkpt>
      <trkpt lat="45.66115" lon="5.83865">
        <ele>851.384766</ele>
        <time>2011-05-24T14:51:24Z</time>
      </trkpt>
      <trkpt lat="45.66122" lon="5.83871">
        <ele>849.942871</ele>
        <time>2011-05-24T14:51:33Z</time>
      </trkpt>
      <trkpt lat="45.6613" lon="5.83873">
        <ele>848.500732</ele>
        <time>2011-05-24T14:51:40Z</time>
      </trkpt>
      <trkpt lat="45.66138" lon="5.83873">
        <ele>847.539551</ele>
        <time>2011-05-24T14:51:48Z</time>
      </trkpt>
      <trkpt lat="45.66145" lon="5.83876">
        <ele>846.097656</ele>
        <time>2011-05-24T14:51:55Z</time>
      </trkpt>
      <trkpt lat="45.66151" lon="5.83876">
        <ele>845.13623</ele>
        <time>2011-05-24T14:52:01Z</time>
      </trkpt>
      <trkpt lat="45.66154" lon="5.83881">
        <ele>844.175049</ele>
        <time>2011-05-24T14:52:07Z</time>
      </trkpt>
      <trkpt lat="45.66164" lon="5.83893">
        <ele>843.213379</ele>
        <time>2011-05-24T14:52:19Z</time>
      </trkpt>
      <trkpt lat="45.66173" lon="5.83899">
        <ele>839.848877</ele>
        <time>2011-05-24T14:52:28Z</time>
      </trkpt>
      <trkpt lat="45.66181" lon="5.83899">
        <ele>839.848877</ele>
        <time>2011-05-24T14:52:35Z</time>
      </trkpt>
      <trkpt lat="45.66193" lon="5.83904">
        <ele>837.92627</ele>
        <time>2011-05-24T14:52:46Z</time>
      </trkpt>
      <trkpt lat="45.66199" lon="5.83909">
        <ele>836.003662</ele>
        <time>2011-05-24T14:52:52Z</time>
      </trkpt>
      <trkpt lat="45.66205" lon="5.83908">
        <ele>835.522949</ele>
        <time>2011-05-24T14:52:57Z</time>
      </trkpt>
      <trkpt lat="45.66212" lon="5.83911">
        <ele>835.04248</ele>
        <time>2011-05-24T14:53:03Z</time>
      </trkpt>
      <trkpt lat="45.66215" lon="5.83915">
        <ele>835.04248</ele>
        <time>2011-05-24T14:53:07Z</time>
      </trkpt>
      <trkpt lat="45.66222" lon="5.83922">
        <ele>833.600342</ele>
        <time>2011-05-24T14:53:13Z</time>
      </trkpt>
      <trkpt lat="45.66233" lon="5.83928">
        <ele>832.158447</ele>
        <time>2011-05-24T14:53:24Z</time>
      </trkpt>
      <trkpt lat="45.66241" lon="5.83934">
        <ele>830.23584</ele>
        <time>2011-05-24T14:53:32Z</time>
      </trkpt>
      <trkpt lat="45.6625" lon="5.83939">
        <ele>829.274414</ele>
        <time>2011-05-24T14:53:38Z</time>
      </trkpt>
      <trkpt lat="45.66258" lon="5.83943">
        <ele>829.274414</ele>
        <time>2011-05-24T14:53:44Z</time>
      </trkpt>
      <trkpt lat="45.66263" lon="5.83947">
        <ele>828.313232</ele>
        <time>2011-05-24T14:53:50Z</time>
      </trkpt>
      <trkpt lat="45.66269" lon="5.8395">
        <ele>827.832275</ele>
        <time>2011-05-24T14:53:55Z</time>
      </trkpt>
      <trkpt lat="45.66275" lon="5.83954">
        <ele>827.351807</ele>
        <time>2011-05-24T14:54:01Z</time>
      </trkpt>
      <trkpt lat="45.66282" lon="5.83956">
        <ele>826.390381</ele>
        <time>2011-05-24T14:54:07Z</time>
      </trkpt>
      <trkpt lat="45.66284" lon="5.83961">
        <ele>825.428955</ele>
        <time>2011-05-24T14:54:14Z</time>
      </trkpt>
      <trkpt lat="45.66276" lon="5.83971">
        <ele>824.467773</ele>
        <time>2011-05-24T14:54:22Z</time>
      </trkpt>
      <trkpt lat="45.66274" lon="5.83973">
        <ele>823.506592</ele>
        <time>2011-05-24T14:54:24Z</time>
      </trkpt>
      <trkpt lat="45.66267" lon="5.83974">
        <ele>822.545166</ele>
        <time>2011-05-24T14:54:30Z</time>
      </trkpt>
      <trkpt lat="45.66262" lon="5.83977">
        <ele>821.58374</ele>
        <time>2011-05-24T14:54:37Z</time>
      </trkpt>
      <trkpt lat="45.66252" lon="5.83977">
        <ele>820.141846</ele>
        <time>2011-05-24T14:54:45Z</time>
      </trkpt>
      <trkpt lat="45.66245" lon="5.83982">
        <ele>818.699951</ele>
        <time>2011-05-24T14:54:52Z</time>
      </trkpt>
      <trkpt lat="45.66237" lon="5.83984">
        <ele>817.738525</ele>
        <time>2011-05-24T14:54:59Z</time>
      </trkpt>
      <trkpt lat="45.66228" lon="5.83983">
        <ele>815.335449</ele>
        <time>2011-05-24T14:55:06Z</time>
      </trkpt>
      <trkpt lat="45.66221" lon="5.83983">
        <ele>813.893311</ele>
        <time>2011-05-24T14:55:13Z</time>
      </trkpt>
      <trkpt lat="45.66214" lon="5.83985">
        <ele>813.412842</ele>
        <time>2011-05-24T14:55:18Z</time>
      </trkpt>
      <trkpt lat="45.66211" lon="5.83983">
        <ele>812.932129</ele>
        <time>2011-05-24T14:55:25Z</time>
      </trkpt>
      <trkpt lat="45.66199" lon="5.83986">
        <ele>811.48999</ele>
        <time>2011-05-24T14:55:33Z</time>
      </trkpt>
      <trkpt lat="45.66192" lon="5.83984">
        <ele>810.047852</ele>
        <time>2011-05-24T14:55:40Z</time>
      </trkpt>
      <trkpt lat="45.66187" lon="5.83981">
        <ele>809.08667</ele>
        <time>2011-05-24T14:55:46Z</time>
      </trkpt>
      <trkpt lat="45.66184" lon="5.83975">
        <ele>807.644775</ele>
        <time>2011-05-24T14:55:55Z</time>
      </trkpt>
      <trkpt lat="45.66175" lon="5.83977">
        <ele>805.241455</ele>
        <time>2011-05-24T14:56:05Z</time>
      </trkpt>
      <trkpt lat="45.66173" lon="5.83977">
        <ele>804.760742</ele>
        <time>2011-05-24T14:56:07Z</time>
      </trkpt>
      <trkpt lat="45.66162" lon="5.83981">
        <ele>804.280273</ele>
        <time>2011-05-24T14:56:13Z</time>
      </trkpt>
      <trkpt lat="45.66154" lon="5.83981">
        <ele>803.318848</ele>
        <time>2011-05-24T14:56:20Z</time>
      </trkpt>
      <trkpt lat="45.66148" lon="5.83982">
        <ele>802.838135</ele>
        <time>2011-05-24T14:56:27Z</time>
      </trkpt>
      <trkpt lat="45.66141" lon="5.83986">
        <ele>801.39624</ele>
        <time>2011-05-24T14:56:33Z</time>
      </trkpt>
      <trkpt lat="45.66132" lon="5.83984">
        <ele>800.435059</ele>
        <time>2011-05-24T14:56:40Z</time>
      </trkpt>
      <trkpt lat="45.66126" lon="5.83982">
        <ele>798.99292</ele>
        <time>2011-05-24T14:56:45Z</time>
      </trkpt>
      <trkpt lat="45.66116" lon="5.83977">
        <ele>798.512207</ele>
        <time>2011-05-24T14:56:53Z</time>
      </trkpt>
      <trkpt lat="45.66114" lon="5.83975">
        <ele>797.551025</ele>
        <time>2011-05-24T14:56:58Z</time>
      </trkpt>
      <trkpt lat="45.66107" lon="5.83974">
        <ele>796.589844</ele>
        <time>2011-05-24T14:57:04Z</time>
      </trkpt>
      <trkpt lat="45.661" lon="5.83971">
        <ele>796.589844</ele>
        <time>2011-05-24T14:57:11Z</time>
      </trkpt>
      <trkpt lat="45.66094" lon="5.83971">
        <ele>795.147461</ele>
        <time>2011-05-24T14:57:17Z</time>
      </trkpt>
      <trkpt lat="45.66087" lon="5.83974">
        <ele>794.186279</ele>
        <time>2011-05-24T14:57:24Z</time>
      </trkpt>
      <trkpt lat="45.66082" lon="5.83975">
        <ele>793.224854</ele>
        <time>2011-05-24T14:57:30Z</time>
      </trkpt>
      <trkpt lat="45.66075" lon="5.83975">
        <ele>792.263672</ele>
        <time>2011-05-24T14:57:36Z</time>
      </trkpt>
      <trkpt lat="45.66063" lon="5.83973">
        <ele>790.821533</ele>
        <time>2011-05-24T14:57:45Z</time>
      </trkpt>
      <trkpt lat="45.66054" lon="5.83975">
        <ele>789.860352</ele>
        <time>2011-05-24T14:57:55Z</time>
      </trkpt>
      <trkpt lat="45.66047" lon="5.8398">
        <ele>789.379639</ele>
        <time>2011-05-24T14:58:00Z</time>
      </trkpt>
      <trkpt lat="45.66042" lon="5.83976">
        <ele>787.457031</ele>
        <time>2011-05-24T14:58:06Z</time>
      </trkpt>
      <trkpt lat="45.66036" lon="5.83974">
        <ele>786.015137</ele>
        <time>2011-05-24T14:58:12Z</time>
      </trkpt>
      <trkpt lat="45.66022" lon="5.83975">
        <ele>785.053955</ele>
        <time>2011-05-24T14:58:20Z</time>
      </trkpt>
      <trkpt lat="45.66009" lon="5.83978">
        <ele>783.131104</ele>
        <time>2011-05-24T14:58:31Z</time>
      </trkpt>
      <trkpt lat="45.66002" lon="5.83982">
        <ele>781.689209</ele>
        <time>2011-05-24T14:58:38Z</time>
      </trkpt>
      <trkpt lat="45.65994" lon="5.83975">
        <ele>780.247314</ele>
        <time>2011-05-24T14:58:55Z</time>
      </trkpt>
      <trkpt lat="45.65985" lon="5.83975">
        <ele>780.247314</ele>
        <time>2011-05-24T15:07:18Z</time>
      </trkpt>
      <trkpt lat="45.65988" lon="5.83974">
        <ele>779.766357</ele>
        <time>2011-05-24T15:07:38Z</time>
      </trkpt>
      <trkpt lat="45.65992" lon="5.83973">
        <ele>779.285645</ele>
        <time>2011-05-24T15:08:05Z</time>
      </trkpt>
      <trkpt lat="45.65995" lon="5.8397">
        <ele>778.324463</ele>
        <time>2011-05-24T15:08:15Z</time>
      </trkpt>
      <trkpt lat="45.66002" lon="5.83966">
        <ele>778.805176</ele>
        <time>2011-05-24T15:08:22Z</time>
      </trkpt>
      <trkpt lat="45.66009" lon="5.83967">
        <ele>779.285645</ele>
        <time>2011-05-24T15:08:28Z</time>
      </trkpt>
      <trkpt lat="45.66013" lon="5.83971">
        <ele>780.247314</ele>
        <time>2011-05-24T15:08:35Z</time>
      </trkpt>
      <trkpt lat="45.66016" lon="5.83976">
        <ele>780.247314</ele>
        <time>2011-05-24T15:08:41Z</time>
      </trkpt>
      <trkpt lat="45.66022" lon="5.8398">
        <ele>780.728027</ele>
        <time>2011-05-24T15:08:48Z</time>
      </trkpt>
      <trkpt lat="45.66029" lon="5.83982">
        <ele>779.766357</ele>
        <time>2011-05-24T15:08:55Z</time>
      </trkpt>
      <trkpt lat="45.66038" lon="5.83985">
        <ele>779.285645</ele>
        <time>2011-05-24T15:09:02Z</time>
      </trkpt>
      <trkpt lat="45.66047" lon="5.83985">
        <ele>779.285645</ele>
        <time>2011-05-24T15:09:09Z</time>
      </trkpt>
      <trkpt lat="45.66053" lon="5.83987">
        <ele>778.324463</ele>
        <time>2011-05-24T15:09:16Z</time>
      </trkpt>
      <trkpt lat="45.66061" lon="5.83991">
        <ele>777.363281</ele>
        <time>2011-05-24T15:09:23Z</time>
      </trkpt>
      <trkpt lat="45.66066" lon="5.83995">
        <ele>777.363281</ele>
        <time>2011-05-24T15:09:29Z</time>
      </trkpt>
      <trkpt lat="45.66078" lon="5.83994">
        <ele>778.805176</ele>
        <time>2011-05-24T15:09:38Z</time>
      </trkpt>
      <trkpt lat="45.66082" lon="5.83998">
        <ele>778.324463</ele>
        <time>2011-05-24T15:09:44Z</time>
      </trkpt>
      <trkpt lat="45.66087" lon="5.84003">
        <ele>778.805176</ele>
        <time>2011-05-24T15:09:52Z</time>
      </trkpt>
      <trkpt lat="45.66095" lon="5.84003">
        <ele>779.285645</ele>
        <time>2011-05-24T15:09:59Z</time>
      </trkpt>
      <trkpt lat="45.66103" lon="5.84007">
        <ele>779.285645</ele>
        <time>2011-05-24T15:10:05Z</time>
      </trkpt>
      <trkpt lat="45.66112" lon="5.84009">
        <ele>778.324463</ele>
        <time>2011-05-24T15:10:11Z</time>
      </trkpt>
      <trkpt lat="45.66118" lon="5.8401">
        <ele>779.766357</ele>
        <time>2011-05-24T15:10:17Z</time>
      </trkpt>
      <trkpt lat="45.66123" lon="5.84014">
        <ele>779.285645</ele>
        <time>2011-05-24T15:10:23Z</time>
      </trkpt>
      <trkpt lat="45.66133" lon="5.84019">
        <ele>778.805176</ele>
        <time>2011-05-24T15:10:34Z</time>
      </trkpt>
      <trkpt lat="45.6614" lon="5.84019">
        <ele>777.84375</ele>
        <time>2011-05-24T15:10:38Z</time>
      </trkpt>
      <trkpt lat="45.66152" lon="5.84023">
        <ele>777.363281</ele>
        <time>2011-05-24T15:10:47Z</time>
      </trkpt>
      <trkpt lat="45.66158" lon="5.84027">
        <ele>776.882568</ele>
        <time>2011-05-24T15:10:54Z</time>
      </trkpt>
      <trkpt lat="45.66163" lon="5.8403">
        <ele>776.882568</ele>
        <time>2011-05-24T15:11:00Z</time>
      </trkpt>
      <trkpt lat="45.66173" lon="5.84035">
        <ele>777.363281</ele>
        <time>2011-05-24T15:11:08Z</time>
      </trkpt>
      <trkpt lat="45.6618" lon="5.84039">
        <ele>777.363281</ele>
        <time>2011-05-24T15:11:18Z</time>
      </trkpt>
      <trkpt lat="45.66192" lon="5.84039">
        <ele>776.882568</ele>
        <time>2011-05-24T15:11:27Z</time>
      </trkpt>
      <trkpt lat="45.66203" lon="5.84038">
        <ele>776.882568</ele>
        <time>2011-05-24T15:11:34Z</time>
      </trkpt>
      <trkpt lat="45.66209" lon="5.84042">
        <ele>777.363281</ele>
        <time>2011-05-24T15:11:43Z</time>
      </trkpt>
      <trkpt lat="45.66213" lon="5.84046">
        <ele>776.882568</ele>
        <time>2011-05-24T15:11:49Z</time>
      </trkpt>
      <trkpt lat="45.66223" lon="5.84052">
        <ele>776.882568</ele>
        <time>2011-05-24T15:11:56Z</time>
      </trkpt>
      <trkpt lat="45.66231" lon="5.84052">
        <ele>777.363281</ele>
        <time>2011-05-24T15:12:03Z</time>
      </trkpt>
      <trkpt lat="45.66245" lon="5.84056">
        <ele>777.363281</ele>
        <time>2011-05-24T15:12:14Z</time>
      </trkpt>
      <trkpt lat="45.66252" lon="5.84057">
        <ele>777.84375</ele>
        <time>2011-05-24T15:12:20Z</time>
      </trkpt>
      <trkpt lat="45.6626" lon="5.84058">
        <ele>776.882568</ele>
        <time>2011-05-24T15:12:27Z</time>
      </trkpt>
      <trkpt lat="45.66264" lon="5.84065">
        <ele>777.363281</ele>
        <time>2011-05-24T15:12:34Z</time>
      </trkpt>
      <trkpt lat="45.66269" lon="5.8407">
        <ele>775.44043</ele>
        <time>2011-05-24T15:12:41Z</time>
      </trkpt>
      <trkpt lat="45.66275" lon="5.84067">
        <ele>775.44043</ele>
        <time>2011-05-24T15:12:47Z</time>
      </trkpt>
      <trkpt lat="45.66285" lon="5.8407">
        <ele>773.518066</ele>
        <time>2011-05-24T15:12:56Z</time>
      </trkpt>
      <trkpt lat="45.66291" lon="5.84071">
        <ele>772.075928</ele>
        <time>2011-05-24T15:13:04Z</time>
      </trkpt>
      <trkpt lat="45.663" lon="5.84075">
        <ele>770.15332</ele>
        <time>2011-05-24T15:13:13Z</time>
      </trkpt>
      <trkpt lat="45.66309" lon="5.84076">
        <ele>769.192139</ele>
        <time>2011-05-24T15:13:21Z</time>
      </trkpt>
      <trkpt lat="45.66315" lon="5.84078">
        <ele>768.230713</ele>
        <time>2011-05-24T15:13:27Z</time>
      </trkpt>
      <trkpt lat="45.66324" lon="5.84085">
        <ele>769.192139</ele>
        <time>2011-05-24T15:13:36Z</time>
      </trkpt>
      <trkpt lat="45.66331" lon="5.84093">
        <ele>771.595215</ele>
        <time>2011-05-24T15:13:52Z</time>
      </trkpt>
      <trkpt lat="45.66339" lon="5.841">
        <ele>772.075928</ele>
        <time>2011-05-24T15:14:01Z</time>
      </trkpt>
      <trkpt lat="45.66347" lon="5.84101">
        <ele>771.595215</ele>
        <time>2011-05-24T15:14:07Z</time>
      </trkpt>
      <trkpt lat="45.66355" lon="5.84102">
        <ele>770.634033</ele>
        <time>2011-05-24T15:14:14Z</time>
      </trkpt>
      <trkpt lat="45.66366" lon="5.84103">
        <ele>770.15332</ele>
        <time>2011-05-24T15:14:26Z</time>
      </trkpt>
      <trkpt lat="45.66374" lon="5.84103">
        <ele>768.711426</ele>
        <time>2011-05-24T15:14:33Z</time>
      </trkpt>
      <trkpt lat="45.66387" lon="5.84106">
        <ele>766.788818</ele>
        <time>2011-05-24T15:14:42Z</time>
      </trkpt>
      <trkpt lat="45.66393" lon="5.84111">
        <ele>765.346924</ele>
        <time>2011-05-24T15:14:50Z</time>
      </trkpt>
      <trkpt lat="45.66402" lon="5.84119">
        <ele>764.385498</ele>
        <time>2011-05-24T15:14:56Z</time>
      </trkpt>
      <trkpt lat="45.66434" lon="5.84138">
        <ele>764.866211</ele>
        <time>2011-05-24T15:15:29Z</time>
      </trkpt>
      <trkpt lat="45.66448" lon="5.84146">
        <ele>763.424072</ele>
        <time>2011-05-24T15:15:41Z</time>
      </trkpt>
      <trkpt lat="45.66452" lon="5.84154">
        <ele>761.020752</ele>
        <time>2011-05-24T15:15:51Z</time>
      </trkpt>
      <trkpt lat="45.66453" lon="5.84161">
        <ele>759.098145</ele>
        <time>2011-05-24T15:16:08Z</time>
      </trkpt>
      <trkpt lat="45.66452" lon="5.84163">
        <ele>758.136963</ele>
        <time>2011-05-24T15:16:12Z</time>
      </trkpt>
      <trkpt lat="45.66444" lon="5.84164">
        <ele>755.733643</ele>
        <time>2011-05-24T15:16:21Z</time>
      </trkpt>
      <trkpt lat="45.66439" lon="5.84167">
        <ele>755.25293</ele>
        <time>2011-05-24T15:16:28Z</time>
      </trkpt>
      <trkpt lat="45.66431" lon="5.84168">
        <ele>754.772217</ele>
        <time>2011-05-24T15:16:37Z</time>
      </trkpt>
      <trkpt lat="45.66433" lon="5.84167">
        <ele>753.811035</ele>
        <time>2011-05-24T15:16:47Z</time>
      </trkpt>
      <trkpt lat="45.66436" lon="5.84167">
        <ele>751.888428</ele>
        <time>2011-05-24T15:16:55Z</time>
      </trkpt>
      <trkpt lat="45.66439" lon="5.84171">
        <ele>749.96582</ele>
        <time>2011-05-24T15:17:02Z</time>
      </trkpt>
      <trkpt lat="45.66443" lon="5.84176">
        <ele>748.523682</ele>
        <time>2011-05-24T15:17:08Z</time>
      </trkpt>
      <trkpt lat="45.6645" lon="5.84182">
        <ele>747.081543</ele>
        <time>2011-05-24T15:17:17Z</time>
      </trkpt>
      <trkpt lat="45.66455" lon="5.84189">
        <ele>744.678223</ele>
        <time>2011-05-24T15:17:25Z</time>
      </trkpt>
      <trkpt lat="45.66463" lon="5.84196">
        <ele>743.236328</ele>
        <time>2011-05-24T15:17:36Z</time>
      </trkpt>
      <trkpt lat="45.66468" lon="5.84198">
        <ele>741.794434</ele>
        <time>2011-05-24T15:17:40Z</time>
      </trkpt>
      <trkpt lat="45.66473" lon="5.84202">
        <ele>739.871826</ele>
        <time>2011-05-24T15:17:47Z</time>
      </trkpt>
      <trkpt lat="45.66479" lon="5.84203">
        <ele>738.429932</ele>
        <time>2011-05-24T15:17:53Z</time>
      </trkpt>
      <trkpt lat="45.6649" lon="5.84211">
        <ele>736.507324</ele>
        <time>2011-05-24T15:18:02Z</time>
      </trkpt>
      <trkpt lat="45.66495" lon="5.84219">
        <ele>734.584717</ele>
        <time>2011-05-24T15:18:09Z</time>
      </trkpt>
      <trkpt lat="45.66499" lon="5.84225">
        <ele>733.142578</ele>
        <time>2011-05-24T15:18:16Z</time>
      </trkpt>
      <trkpt lat="45.66504" lon="5.84227">
        <ele>732.181396</ele>
        <time>2011-05-24T15:18:21Z</time>
      </trkpt>
      <trkpt lat="45.66507" lon="5.84228">
        <ele>731.219971</ele>
        <time>2011-05-24T15:18:26Z</time>
      </trkpt>
      <trkpt lat="45.66512" lon="5.84229">
        <ele>728.335938</ele>
        <time>2011-05-24T15:18:34Z</time>
      </trkpt>
      <trkpt lat="45.6652" lon="5.84223">
        <ele>725.932617</ele>
        <time>2011-05-24T15:18:43Z</time>
      </trkpt>
      <trkpt lat="45.66528" lon="5.84215">
        <ele>724.971436</ele>
        <time>2011-05-24T15:18:53Z</time>
      </trkpt>
      <trkpt lat="45.66535" lon="5.84214">
        <ele>724.01001</ele>
        <time>2011-05-24T15:18:59Z</time>
      </trkpt>
      <trkpt lat="45.6654" lon="5.84224">
        <ele>721.126221</ele>
        <time>2011-05-24T15:19:08Z</time>
      </trkpt>
      <trkpt lat="45.66542" lon="5.84234">
        <ele>719.684326</ele>
        <time>2011-05-24T15:19:15Z</time>
      </trkpt>
      <trkpt lat="45.6654" lon="5.84246">
        <ele>719.203613</ele>
        <time>2011-05-24T15:19:22Z</time>
      </trkpt>
      <trkpt lat="45.66539" lon="5.84254">
        <ele>718.242188</ele>
        <time>2011-05-24T15:19:28Z</time>
      </trkpt>
      <trkpt lat="45.66536" lon="5.84263">
        <ele>716.800293</ele>
        <time>2011-05-24T15:19:35Z</time>
      </trkpt>
      <trkpt lat="45.66536" lon="5.84266">
        <ele>715.358154</ele>
        <time>2011-05-24T15:19:41Z</time>
      </trkpt>
      <trkpt lat="45.66538" lon="5.84266">
        <ele>714.877441</ele>
        <time>2011-05-24T15:19:43Z</time>
      </trkpt>
      <trkpt lat="45.66541" lon="5.84262">
        <ele>712.474121</ele>
        <time>2011-05-24T15:19:50Z</time>
      </trkpt>
      <trkpt lat="45.66545" lon="5.84259">
        <ele>710.070801</ele>
        <time>2011-05-24T15:19:58Z</time>
      </trkpt>
      <trkpt lat="45.66548" lon="5.84258">
        <ele>708.148438</ele>
        <time>2011-05-24T15:20:05Z</time>
      </trkpt>
      <trkpt lat="45.66552" lon="5.84258">
        <ele>706.706299</ele>
        <time>2011-05-24T15:20:11Z</time>
      </trkpt>
      <trkpt lat="45.66562" lon="5.8426">
        <ele>704.783691</ele>
        <time>2011-05-24T15:20:19Z</time>
      </trkpt>
      <trkpt lat="45.66566" lon="5.84258">
        <ele>703.82251</ele>
        <time>2011-05-24T15:20:25Z</time>
      </trkpt>
      <trkpt lat="45.66576" lon="5.84264">
        <ele>701.419189</ele>
        <time>2011-05-24T15:20:38Z</time>
      </trkpt>
      <trkpt lat="45.66581" lon="5.84268">
        <ele>699.496338</ele>
        <time>2011-05-24T15:20:45Z</time>
      </trkpt>
      <trkpt lat="45.66588" lon="5.84272">
        <ele>698.054443</ele>
        <time>2011-05-24T15:20:51Z</time>
      </trkpt>
      <trkpt lat="45.66593" lon="5.84271">
        <ele>697.093018</ele>
        <time>2011-05-24T15:20:55Z</time>
      </trkpt>
      <trkpt lat="45.66608" lon="5.84263">
        <ele>694.689697</ele>
        <time>2011-05-24T15:21:06Z</time>
      </trkpt>
      <trkpt lat="45.66615" lon="5.84262">
        <ele>692.767334</ele>
        <time>2011-05-24T15:21:12Z</time>
      </trkpt>
      <trkpt lat="45.66623" lon="5.84253">
        <ele>690.844482</ele>
        <time>2011-05-24T15:21:21Z</time>
      </trkpt>
      <trkpt lat="45.66625" lon="5.84252">
        <ele>689.883301</ele>
        <time>2011-05-24T15:21:25Z</time>
      </trkpt>
      <trkpt lat="45.66636" lon="5.84257">
        <ele>687.960693</ele>
        <time>2011-05-24T15:21:33Z</time>
      </trkpt>
      <trkpt lat="45.66641" lon="5.84265">
        <ele>685.557373</ele>
        <time>2011-05-24T15:21:41Z</time>
      </trkpt>
      <trkpt lat="45.66647" lon="5.84272">
        <ele>684.115479</ele>
        <time>2011-05-24T15:21:48Z</time>
      </trkpt>
      <trkpt lat="45.66652" lon="5.84285">
        <ele>682.67334</ele>
        <time>2011-05-24T15:21:57Z</time>
      </trkpt>
      <trkpt lat="45.66657" lon="5.84291">
        <ele>681.231445</ele>
        <time>2011-05-24T15:22:02Z</time>
      </trkpt>
      <trkpt lat="45.66662" lon="5.84294">
        <ele>680.27002</ele>
        <time>2011-05-24T15:22:08Z</time>
      </trkpt>
      <trkpt lat="45.66667" lon="5.84299">
        <ele>677.866699</ele>
        <time>2011-05-24T15:22:13Z</time>
      </trkpt>
      <trkpt lat="45.66673" lon="5.8431">
        <ele>676.424805</ele>
        <time>2011-05-24T15:22:21Z</time>
      </trkpt>
      <trkpt lat="45.66676" lon="5.84313">
        <ele>674.021484</ele>
        <time>2011-05-24T15:22:26Z</time>
      </trkpt>
      <trkpt lat="45.66682" lon="5.84319">
        <ele>672.57959</ele>
        <time>2011-05-24T15:22:36Z</time>
      </trkpt>
      <trkpt lat="45.6669" lon="5.84328">
        <ele>670.17627</ele>
        <time>2011-05-24T15:22:46Z</time>
      </trkpt>
      <trkpt lat="45.66695" lon="5.84332">
        <ele>668.253662</ele>
        <time>2011-05-24T15:22:53Z</time>
      </trkpt>
      <trkpt lat="45.66704" lon="5.84335">
        <ele>666.330811</ele>
        <time>2011-05-24T15:23:01Z</time>
      </trkpt>
      <trkpt lat="45.66714" lon="5.84332">
        <ele>664.408203</ele>
        <time>2011-05-24T15:23:10Z</time>
      </trkpt>
      <trkpt lat="45.66723" lon="5.84332">
        <ele>663.447021</ele>
        <time>2011-05-24T15:23:18Z</time>
      </trkpt>
      <trkpt lat="45.66726" lon="5.84337">
        <ele>661.524414</ele>
        <time>2011-05-24T15:23:23Z</time>
      </trkpt>
      <trkpt lat="45.66726" lon="5.84348">
        <ele>659.601807</ele>
        <time>2011-05-24T15:23:33Z</time>
      </trkpt>
      <trkpt lat="45.66726" lon="5.8435">
        <ele>659.121094</ele>
        <time>2011-05-24T15:23:35Z</time>
      </trkpt>
      <trkpt lat="45.6672" lon="5.84364">
        <ele>657.679199</ele>
        <time>2011-05-24T15:23:46Z</time>
      </trkpt>
      <trkpt lat="45.66715" lon="5.84374">
        <ele>656.237061</ele>
        <time>2011-05-24T15:23:54Z</time>
      </trkpt>
      <trkpt lat="45.66707" lon="5.84383">
        <ele>653.833984</ele>
        <time>2011-05-24T15:24:03Z</time>
      </trkpt>
      <trkpt lat="45.66701" lon="5.84386">
        <ele>653.353271</ele>
        <time>2011-05-24T15:24:08Z</time>
      </trkpt>
      <trkpt lat="45.6669" lon="5.84386">
        <ele>651.43042</ele>
        <time>2011-05-24T15:24:17Z</time>
      </trkpt>
      <trkpt lat="45.66687" lon="5.84386">
        <ele>649.507813</ele>
        <time>2011-05-24T15:24:25Z</time>
      </trkpt>
      <trkpt lat="45.66687" lon="5.8439">
        <ele>647.585205</ele>
        <time>2011-05-24T15:24:31Z</time>
      </trkpt>
      <trkpt lat="45.66689" lon="5.84396">
        <ele>647.104492</ele>
        <time>2011-05-24T15:24:37Z</time>
      </trkpt>
      <trkpt lat="45.66691" lon="5.84403">
        <ele>645.181885</ele>
        <time>2011-05-24T15:24:44Z</time>
      </trkpt>
      <trkpt lat="45.66693" lon="5.84411">
        <ele>642.778809</ele>
        <time>2011-05-24T15:24:49Z</time>
      </trkpt>
      <trkpt lat="45.66695" lon="5.84417">
        <ele>642.778809</ele>
        <time>2011-05-24T15:24:55Z</time>
      </trkpt>
      <trkpt lat="45.66699" lon="5.84418">
        <ele>642.298096</ele>
        <time>2011-05-24T15:25:02Z</time>
      </trkpt>
      <trkpt lat="45.66703" lon="5.84419">
        <ele>642.298096</ele>
        <time>2011-05-24T15:25:33Z</time>
      </trkpt>
      <trkpt lat="45.66705" lon="5.84422">
        <ele>641.817383</ele>
        <time>2011-05-24T15:25:44Z</time>
      </trkpt>
      <trkpt lat="45.66711" lon="5.84427">
        <ele>640.375488</ele>
        <time>2011-05-24T15:28:02Z</time>
      </trkpt>
      <trkpt lat="45.66712" lon="5.84418">
        <ele>639.894775</ele>
        <time>2011-05-24T15:28:16Z</time>
      </trkpt>
      <trkpt lat="45.66716" lon="5.84412">
        <ele>638.933594</ele>
        <time>2011-05-24T15:28:23Z</time>
      </trkpt>
      <trkpt lat="45.66723" lon="5.84409">
        <ele>638.452881</ele>
        <time>2011-05-24T15:28:30Z</time>
      </trkpt>
      <trkpt lat="45.66729" lon="5.8441">
        <ele>637.010742</ele>
        <time>2011-05-24T15:28:36Z</time>
      </trkpt>
      <trkpt lat="45.66736" lon="5.8441">
        <ele>634.126709</ele>
        <time>2011-05-24T15:28:45Z</time>
      </trkpt>
      <trkpt lat="45.66739" lon="5.84409">
        <ele>632.204102</ele>
        <time>2011-05-24T15:28:51Z</time>
      </trkpt>
      <trkpt lat="45.66747" lon="5.84408">
        <ele>631.24292</ele>
        <time>2011-05-24T15:28:57Z</time>
      </trkpt>
      <trkpt lat="45.66755" lon="5.84408">
        <ele>630.281494</ele>
        <time>2011-05-24T15:29:06Z</time>
      </trkpt>
      <trkpt lat="45.6677" lon="5.84413">
        <ele>627.878174</ele>
        <time>2011-05-24T15:29:21Z</time>
      </trkpt>
      <trkpt lat="45.66777" lon="5.84416">
        <ele>626.436279</ele>
        <time>2011-05-24T15:29:29Z</time>
      </trkpt>
      <trkpt lat="45.66786" lon="5.84422">
        <ele>624.994385</ele>
        <time>2011-05-24T15:29:39Z</time>
      </trkpt>
      <trkpt lat="45.66793" lon="5.84426">
        <ele>623.071777</ele>
        <time>2011-05-24T15:29:46Z</time>
      </trkpt>
      <trkpt lat="45.66802" lon="5.84433">
        <ele>622.591064</ele>
        <time>2011-05-24T15:29:59Z</time>
      </trkpt>
      <trkpt lat="45.66803" lon="5.84438">
        <ele>622.110352</ele>
        <time>2011-05-24T15:30:07Z</time>
      </trkpt>
      <trkpt lat="45.66804" lon="5.84443">
        <ele>620.668457</ele>
        <time>2011-05-24T15:30:16Z</time>
      </trkpt>
      <trkpt lat="45.66809" lon="5.84448">
        <ele>618.745605</ele>
        <time>2011-05-24T15:30:24Z</time>
      </trkpt>
      <trkpt lat="45.66826" lon="5.84463">
        <ele>616.342285</ele>
        <time>2011-05-24T15:30:42Z</time>
      </trkpt>
      <trkpt lat="45.66833" lon="5.8447">
        <ele>615.861816</ele>
        <time>2011-05-24T15:30:50Z</time>
      </trkpt>
      <trkpt lat="45.6684" lon="5.84474">
        <ele>614.419678</ele>
        <time>2011-05-24T15:30:57Z</time>
      </trkpt>
      <trkpt lat="45.66846" lon="5.84477">
        <ele>612.49707</ele>
        <time>2011-05-24T15:31:04Z</time>
      </trkpt>
      <trkpt lat="45.66852" lon="5.84479">
        <ele>611.535889</ele>
        <time>2011-05-24T15:31:10Z</time>
      </trkpt>
      <trkpt lat="45.66858" lon="5.84483">
        <ele>610.09375</ele>
        <time>2011-05-24T15:31:18Z</time>
      </trkpt>
      <trkpt lat="45.6687" lon="5.84486">
        <ele>608.651855</ele>
        <time>2011-05-24T15:31:26Z</time>
      </trkpt>
      <trkpt lat="45.66876" lon="5.8449">
        <ele>607.690674</ele>
        <time>2011-05-24T15:31:32Z</time>
      </trkpt>
      <trkpt lat="45.66881" lon="5.84493">
        <ele>606.729248</ele>
        <time>2011-05-24T15:31:39Z</time>
      </trkpt>
      <trkpt lat="45.66887" lon="5.84501">
        <ele>604.326172</ele>
        <time>2011-05-24T15:31:48Z</time>
      </trkpt>
      <trkpt lat="45.66895" lon="5.84506">
        <ele>602.883789</ele>
        <time>2011-05-24T15:31:56Z</time>
      </trkpt>
      <trkpt lat="45.66905" lon="5.84513">
        <ele>602.403076</ele>
        <time>2011-05-24T15:32:03Z</time>
      </trkpt>
      <trkpt lat="45.6691" lon="5.84522">
        <ele>601.441895</ele>
        <time>2011-05-24T15:32:09Z</time>
      </trkpt>
      <trkpt lat="45.66918" lon="5.84529">
        <ele>600.480713</ele>
        <time>2011-05-24T15:32:16Z</time>
      </trkpt>
      <trkpt lat="45.66925" lon="5.84534">
        <ele>599.519287</ele>
        <time>2011-05-24T15:32:24Z</time>
      </trkpt>
      <trkpt lat="45.66931" lon="5.84541">
        <ele>597.59668</ele>
        <time>2011-05-24T15:32:32Z</time>
      </trkpt>
      <trkpt lat="45.66936" lon="5.84547">
        <ele>596.635498</ele>
        <time>2011-05-24T15:32:40Z</time>
      </trkpt>
      <trkpt lat="45.66945" lon="5.84555">
        <ele>595.674072</ele>
        <time>2011-05-24T15:32:49Z</time>
      </trkpt>
      <trkpt lat="45.6695" lon="5.84561">
        <ele>595.193359</ele>
        <time>2011-05-24T15:32:56Z</time>
      </trkpt>
      <trkpt lat="45.66957" lon="5.84569">
        <ele>593.751465</ele>
        <time>2011-05-24T15:33:03Z</time>
      </trkpt>
      <trkpt lat="45.66967" lon="5.84579">
        <ele>591.828857</ele>
        <time>2011-05-24T15:33:12Z</time>
      </trkpt>
      <trkpt lat="45.6697" lon="5.84581">
        <ele>591.348145</ele>
        <time>2011-05-24T15:33:17Z</time>
      </trkpt>
      <trkpt lat="45.66978" lon="5.84585">
        <ele>589.90625</ele>
        <time>2011-05-24T15:33:24Z</time>
      </trkpt>
      <trkpt lat="45.66984" lon="5.84587">
        <ele>589.425537</ele>
        <time>2011-05-24T15:33:33Z</time>
      </trkpt>
      <trkpt lat="45.66986" lon="5.84594">
        <ele>589.425537</ele>
        <time>2011-05-24T15:33:41Z</time>
      </trkpt>
      <trkpt lat="45.66993" lon="5.84603">
        <ele>589.425537</ele>
        <time>2011-05-24T15:33:50Z</time>
      </trkpt>
      <trkpt lat="45.66999" lon="5.84609">
        <ele>588.945068</ele>
        <time>2011-05-24T15:33:56Z</time>
      </trkpt>
      <trkpt lat="45.67005" lon="5.84619">
        <ele>588.945068</ele>
        <time>2011-05-24T15:34:05Z</time>
      </trkpt>
      <trkpt lat="45.67009" lon="5.84623">
        <ele>588.464355</ele>
        <time>2011-05-24T15:34:14Z</time>
      </trkpt>
      <trkpt lat="45.67014" lon="5.84632">
        <ele>587.502686</ele>
        <time>2011-05-24T15:34:39Z</time>
      </trkpt>
      <trkpt lat="45.67016" lon="5.84635">
        <ele>587.502686</ele>
        <time>2011-05-24T15:34:46Z</time>
      </trkpt>
      <trkpt lat="45.67018" lon="5.8464">
        <ele>586.541504</ele>
        <time>2011-05-24T15:35:00Z</time>
      </trkpt>
      <trkpt lat="45.67024" lon="5.84643">
        <ele>586.541504</ele>
        <time>2011-05-24T15:35:06Z</time>
      </trkpt>
      <trkpt lat="45.67028" lon="5.84648">
        <ele>586.541504</ele>
        <time>2011-05-24T15:35:12Z</time>
      </trkpt>
      <trkpt lat="45.67034" lon="5.84655">
        <ele>585.580078</ele>
        <time>2011-05-24T15:35:20Z</time>
      </trkpt>
      <trkpt lat="45.67041" lon="5.84665">
        <ele>584.138184</ele>
        <time>2011-05-24T15:35:28Z</time>
      </trkpt>
      <trkpt lat="45.67047" lon="5.84674">
        <ele>583.176758</ele>
        <time>2011-05-24T15:35:36Z</time>
      </trkpt>
      <trkpt lat="45.67053" lon="5.84678">
        <ele>581.734863</ele>
        <time>2011-05-24T15:35:49Z</time>
      </trkpt>
      <trkpt lat="45.67059" lon="5.84681">
        <ele>579.331543</ele>
        <time>2011-05-24T15:35:55Z</time>
      </trkpt>
      <trkpt lat="45.67065" lon="5.84685">
        <ele>577.889648</ele>
        <time>2011-05-24T15:36:02Z</time>
      </trkpt>
      <trkpt lat="45.67067" lon="5.84694">
        <ele>576.447754</ele>
        <time>2011-05-24T15:36:08Z</time>
      </trkpt>
      <trkpt lat="45.67072" lon="5.84695">
        <ele>574.525146</ele>
        <time>2011-05-24T15:36:15Z</time>
      </trkpt>
      <trkpt lat="45.67079" lon="5.84694">
        <ele>572.602539</ele>
        <time>2011-05-24T15:36:22Z</time>
      </trkpt>
      <trkpt lat="45.67082" lon="5.84693">
        <ele>572.121826</ele>
        <time>2011-05-24T15:36:25Z</time>
      </trkpt>
      <trkpt lat="45.67088" lon="5.84697">
        <ele>570.679688</ele>
        <time>2011-05-24T15:36:31Z</time>
      </trkpt>
      <trkpt lat="45.67087" lon="5.8471">
        <ele>568.75708</ele>
        <time>2011-05-24T15:36:40Z</time>
      </trkpt>
      <trkpt lat="45.6709" lon="5.84709">
        <ele>567.315186</ele>
        <time>2011-05-24T15:36:46Z</time>
      </trkpt>
      <trkpt lat="45.67092" lon="5.84713">
        <ele>565.873291</ele>
        <time>2011-05-24T15:36:52Z</time>
      </trkpt>
      <trkpt lat="45.67092" lon="5.84721">
        <ele>564.431152</ele>
        <time>2011-05-24T15:37:00Z</time>
      </trkpt>
      <trkpt lat="45.67095" lon="5.84719">
        <ele>562.028076</ele>
        <time>2011-05-24T15:37:08Z</time>
      </trkpt>
      <trkpt lat="45.67097" lon="5.84724">
        <ele>559.624756</ele>
        <time>2011-05-24T15:37:14Z</time>
      </trkpt>
      <trkpt lat="45.67097" lon="5.8473">
        <ele>557.221436</ele>
        <time>2011-05-24T15:37:27Z</time>
      </trkpt>
      <trkpt lat="45.67106" lon="5.84729">
        <ele>553.375977</ele>
        <time>2011-05-24T15:37:39Z</time>
      </trkpt>
      <trkpt lat="45.67109" lon="5.84726">
        <ele>552.414551</ele>
        <time>2011-05-24T15:37:45Z</time>
      </trkpt>
      <trkpt lat="45.67113" lon="5.84723">
        <ele>550.972656</ele>
        <time>2011-05-24T15:37:54Z</time>
      </trkpt>
      <trkpt lat="45.6712" lon="5.84723">
        <ele>549.530762</ele>
        <time>2011-05-24T15:38:05Z</time>
      </trkpt>
      <trkpt lat="45.67129" lon="5.84726">
        <ele>548.088867</ele>
        <time>2011-05-24T15:38:14Z</time>
      </trkpt>
      <trkpt lat="45.67136" lon="5.84731">
        <ele>548.088867</ele>
        <time>2011-05-24T15:38:20Z</time>
      </trkpt>
      <trkpt lat="45.67149" lon="5.84734">
        <ele>548.088867</ele>
        <time>2011-05-24T15:38:30Z</time>
      </trkpt>
      <trkpt lat="45.67158" lon="5.8474">
        <ele>547.127441</ele>
        <time>2011-05-24T15:38:39Z</time>
      </trkpt>
      <trkpt lat="45.67156" lon="5.84745">
        <ele>545.685547</ele>
        <time>2011-05-24T15:38:43Z</time>
      </trkpt>
      <trkpt lat="45.67154" lon="5.84756">
        <ele>544.724243</ele>
        <time>2011-05-24T15:38:51Z</time>
      </trkpt>
      <trkpt lat="45.67151" lon="5.84763">
        <ele>543.282104</ele>
        <time>2011-05-24T15:38:58Z</time>
      </trkpt>
      <trkpt lat="45.67143" lon="5.84771">
        <ele>542.801514</ele>
        <time>2011-05-24T15:39:05Z</time>
      </trkpt>
      <trkpt lat="45.67134" lon="5.84779">
        <ele>541.359497</ele>
        <time>2011-05-24T15:39:15Z</time>
      </trkpt>
      <trkpt lat="45.6713" lon="5.84788">
        <ele>538.956299</ele>
        <time>2011-05-24T15:39:24Z</time>
      </trkpt>
      <trkpt lat="45.67132" lon="5.8479">
        <ele>538.475708</ele>
        <time>2011-05-24T15:39:30Z</time>
      </trkpt>
      <trkpt lat="45.67138" lon="5.84797">
        <ele>537.514282</ele>
        <time>2011-05-24T15:39:41Z</time>
      </trkpt>
      <trkpt lat="45.6714" lon="5.84801">
        <ele>537.514282</ele>
        <time>2011-05-24T15:39:50Z</time>
      </trkpt>
      <trkpt lat="45.67141" lon="5.84802">
        <ele>537.033691</ele>
        <time>2011-05-24T15:39:58Z</time>
      </trkpt>
      <trkpt lat="45.67146" lon="5.84806">
        <ele>536.553101</ele>
        <time>2011-05-24T15:40:06Z</time>
      </trkpt>
      <trkpt lat="45.67147" lon="5.84806">
        <ele>537.033691</ele>
        <time>2011-05-24T15:40:14Z</time>
      </trkpt>
      <trkpt lat="45.67152" lon="5.84806">
        <ele>534.630371</ele>
        <time>2011-05-24T15:40:21Z</time>
      </trkpt>
      <trkpt lat="45.67154" lon="5.84806">
        <ele>534.149658</ele>
        <time>2011-05-24T15:40:26Z</time>
      </trkpt>
      <trkpt lat="45.67163" lon="5.84809">
        <ele>532.707764</ele>
        <time>2011-05-24T15:40:36Z</time>
      </trkpt>
      <trkpt lat="45.67167" lon="5.84811">
        <ele>531.265747</ele>
        <time>2011-05-24T15:40:41Z</time>
      </trkpt>
      <trkpt lat="45.67176" lon="5.84817">
        <ele>529.34314</ele>
        <time>2011-05-24T15:40:49Z</time>
      </trkpt>
      <trkpt lat="45.67186" lon="5.84822">
        <ele>527.901001</ele>
        <time>2011-05-24T15:40:58Z</time>
      </trkpt>
      <trkpt lat="45.67197" lon="5.84831">
        <ele>526.459106</ele>
        <time>2011-05-24T15:41:06Z</time>
      </trkpt>
      <trkpt lat="45.67205" lon="5.84841">
        <ele>525.497803</ele>
        <time>2011-05-24T15:41:14Z</time>
      </trkpt>
      <trkpt lat="45.67214" lon="5.8485">
        <ele>524.055786</ele>
        <time>2011-05-24T15:41:22Z</time>
      </trkpt>
      <trkpt lat="45.67219" lon="5.84852">
        <ele>522.613892</ele>
        <time>2011-05-24T15:41:30Z</time>
      </trkpt>
      <trkpt lat="45.67225" lon="5.84855">
        <ele>521.652588</ele>
        <time>2011-05-24T15:41:37Z</time>
      </trkpt>
      <trkpt lat="45.67235" lon="5.84861">
        <ele>518.768555</ele>
        <time>2011-05-24T15:41:47Z</time>
      </trkpt>
      <trkpt lat="45.67242" lon="5.84865">
        <ele>517.32666</ele>
        <time>2011-05-24T15:41:54Z</time>
      </trkpt>
      <trkpt lat="45.67251" lon="5.84868">
        <ele>515.884644</ele>
        <time>2011-05-24T15:42:04Z</time>
      </trkpt>
      <trkpt lat="45.67253" lon="5.84868">
        <ele>513.962036</ele>
        <time>2011-05-24T15:42:06Z</time>
      </trkpt>
      <trkpt lat="45.67262" lon="5.8487">
        <ele>512.039429</ele>
        <time>2011-05-24T15:42:15Z</time>
      </trkpt>
      <trkpt lat="45.6727" lon="5.84868">
        <ele>510.116699</ele>
        <time>2011-05-24T15:42:26Z</time>
      </trkpt>
      <trkpt lat="45.67275" lon="5.84868">
        <ele>508.674683</ele>
        <time>2011-05-24T15:42:33Z</time>
      </trkpt>
      <trkpt lat="45.67283" lon="5.84866">
        <ele>507.232788</ele>
        <time>2011-05-24T15:42:41Z</time>
      </trkpt>
      <trkpt lat="45.67294" lon="5.84866">
        <ele>505.310181</ele>
        <time>2011-05-24T15:42:51Z</time>
      </trkpt>
      <trkpt lat="45.67297" lon="5.84869">
        <ele>504.829468</ele>
        <time>2011-05-24T15:42:53Z</time>
      </trkpt>
      <trkpt lat="45.67301" lon="5.84877">
        <ele>504.348877</ele>
        <time>2011-05-24T15:42:57Z</time>
      </trkpt>
      <trkpt lat="45.673" lon="5.84896">
        <ele>502.906738</ele>
        <time>2011-05-24T15:43:09Z</time>
      </trkpt>
      <trkpt lat="45.67294" lon="5.8491">
        <ele>500.50354</ele>
        <time>2011-05-24T15:43:19Z</time>
      </trkpt>
      <trkpt lat="45.67283" lon="5.8492">
        <ele>500.022949</ele>
        <time>2011-05-24T15:43:30Z</time>
      </trkpt>
      <trkpt lat="45.67281" lon="5.84927">
        <ele>499.061523</ele>
        <time>2011-05-24T15:43:35Z</time>
      </trkpt>
      <trkpt lat="45.67286" lon="5.84934">
        <ele>498.580933</ele>
        <time>2011-05-24T15:43:44Z</time>
      </trkpt>
      <trkpt lat="45.67291" lon="5.84933">
        <ele>497.619629</ele>
        <time>2011-05-24T15:43:53Z</time>
      </trkpt>
      <trkpt lat="45.67301" lon="5.84927">
        <ele>497.138916</ele>
        <time>2011-05-24T15:44:04Z</time>
      </trkpt>
      <trkpt lat="45.6731" lon="5.8492">
        <ele>494.255005</ele>
        <time>2011-05-24T15:44:15Z</time>
      </trkpt>
      <trkpt lat="45.67319" lon="5.84914">
        <ele>492.332397</ele>
        <time>2011-05-24T15:44:25Z</time>
      </trkpt>
      <trkpt lat="45.67324" lon="5.84913">
        <ele>490.890381</ele>
        <time>2011-05-24T15:44:31Z</time>
      </trkpt>
      <trkpt lat="45.67329" lon="5.84911">
        <ele>488.967773</ele>
        <time>2011-05-24T15:44:38Z</time>
      </trkpt>
      <trkpt lat="45.67335" lon="5.8491">
        <ele>488.00647</ele>
        <time>2011-05-24T15:44:44Z</time>
      </trkpt>
      <trkpt lat="45.67347" lon="5.84905">
        <ele>485.603027</ele>
        <time>2011-05-24T15:44:54Z</time>
      </trkpt>
      <trkpt lat="45.67351" lon="5.84897">
        <ele>483.68042</ele>
        <time>2011-05-24T15:45:03Z</time>
      </trkpt>
      <trkpt lat="45.67354" lon="5.84885">
        <ele>482.238525</ele>
        <time>2011-05-24T15:45:13Z</time>
      </trkpt>
      <trkpt lat="45.67356" lon="5.84879">
        <ele>481.277222</ele>
        <time>2011-05-24T15:45:18Z</time>
      </trkpt>
      <trkpt lat="45.67359" lon="5.84866">
        <ele>479.354492</ele>
        <time>2011-05-24T15:45:27Z</time>
      </trkpt>
      <trkpt lat="45.67361" lon="5.84853">
        <ele>478.393188</ele>
        <time>2011-05-24T15:45:35Z</time>
      </trkpt>
      <trkpt lat="45.67364" lon="5.84835">
        <ele>477.431885</ele>
        <time>2011-05-24T15:45:44Z</time>
      </trkpt>
      <trkpt lat="45.6737" lon="5.84827">
        <ele>475.989868</ele>
        <time>2011-05-24T15:45:54Z</time>
      </trkpt>
      <trkpt lat="45.67378" lon="5.84826">
        <ele>475.028687</ele>
        <time>2011-05-24T15:46:00Z</time>
      </trkpt>
      <trkpt lat="45.67391" lon="5.84823">
        <ele>473.106079</ele>
        <time>2011-05-24T15:46:14Z</time>
      </trkpt>
      <trkpt lat="45.67401" lon="5.84823">
        <ele>471.18335</ele>
        <time>2011-05-24T15:46:24Z</time>
      </trkpt>
      <trkpt lat="45.67411" lon="5.84821">
        <ele>469.741333</ele>
        <time>2011-05-24T15:46:32Z</time>
      </trkpt>
      <trkpt lat="45.67418" lon="5.84818">
        <ele>469.260742</ele>
        <time>2011-05-24T15:46:44Z</time>
      </trkpt>
      <trkpt lat="45.67421" lon="5.84818">
        <ele>467.818726</ele>
        <time>2011-05-24T15:46:50Z</time>
      </trkpt>
      <trkpt lat="45.67433" lon="5.84819">
        <ele>464.934814</ele>
        <time>2011-05-24T15:47:02Z</time>
      </trkpt>
      <trkpt lat="45.67437" lon="5.84821">
        <ele>463.973389</ele>
        <time>2011-05-24T15:47:04Z</time>
      </trkpt>
      <trkpt lat="45.67448" lon="5.84826">
        <ele>463.012085</ele>
        <time>2011-05-24T15:47:11Z</time>
      </trkpt>
      <trkpt lat="45.67456" lon="5.84829">
        <ele>462.050781</ele>
        <time>2011-05-24T15:47:17Z</time>
      </trkpt>
      <trkpt lat="45.67461" lon="5.84833">
        <ele>460.608765</ele>
        <time>2011-05-24T15:47:22Z</time>
      </trkpt>
      <trkpt lat="45.67466" lon="5.84839">
        <ele>459.16687</ele>
        <time>2011-05-24T15:47:27Z</time>
      </trkpt>
      <trkpt lat="45.67468" lon="5.84842">
        <ele>458.205566</ele>
        <time>2011-05-24T15:47:29Z</time>
      </trkpt>
      <trkpt lat="45.67476" lon="5.84849">
        <ele>457.724976</ele>
        <time>2011-05-24T15:47:36Z</time>
      </trkpt>
      <trkpt lat="45.67485" lon="5.84856">
        <ele>455.802246</ele>
        <time>2011-05-24T15:47:46Z</time>
      </trkpt>
      <trkpt lat="45.67491" lon="5.84862">
        <ele>454.84082</ele>
        <time>2011-05-24T15:48:00Z</time>
      </trkpt>
      <trkpt lat="45.67497" lon="5.84867">
        <ele>452.918213</ele>
        <time>2011-05-24T15:48:08Z</time>
      </trkpt>
      <trkpt lat="45.67502" lon="5.84871">
        <ele>451.476318</ele>
        <time>2011-05-24T15:48:14Z</time>
      </trkpt>
      <trkpt lat="45.67506" lon="5.84875">
        <ele>451.476318</ele>
        <time>2011-05-24T15:48:19Z</time>
      </trkpt>
      <trkpt lat="45.6751" lon="5.84878">
        <ele>450.034424</ele>
        <time>2011-05-24T15:48:24Z</time>
      </trkpt>
      <trkpt lat="45.67517" lon="5.84887">
        <ele>449.553711</ele>
        <time>2011-05-24T15:48:30Z</time>
      </trkpt>
      <trkpt lat="45.67513" lon="5.84892">
        <ele>449.072998</ele>
        <time>2011-05-24T15:48:34Z</time>
      </trkpt>
      <trkpt lat="45.67511" lon="5.84894">
        <ele>448.111816</ele>
        <time>2011-05-24T15:48:36Z</time>
      </trkpt>
      <trkpt lat="45.67498" lon="5.84899">
        <ele>445.708374</ele>
        <time>2011-05-24T15:48:48Z</time>
      </trkpt>
      <trkpt lat="45.67486" lon="5.84898">
        <ele>444.74707</ele>
        <time>2011-05-24T15:48:58Z</time>
      </trkpt>
      <trkpt lat="45.67485" lon="5.84899">
        <ele>444.74707</ele>
        <time>2011-05-24T15:48:59Z</time>
      </trkpt>
      <trkpt lat="45.67476" lon="5.84904">
        <ele>443.305054</ele>
        <time>2011-05-24T15:49:08Z</time>
      </trkpt>
      <trkpt lat="45.67472" lon="5.84913">
        <ele>441.863159</ele>
        <time>2011-05-24T15:49:16Z</time>
      </trkpt>
      <trkpt lat="45.67469" lon="5.84918">
        <ele>440.901855</ele>
        <time>2011-05-24T15:49:21Z</time>
      </trkpt>
      <trkpt lat="45.67464" lon="5.84924">
        <ele>439.94043</ele>
        <time>2011-05-24T15:49:27Z</time>
      </trkpt>
      <trkpt lat="45.6746" lon="5.84932">
        <ele>438.498535</ele>
        <time>2011-05-24T15:49:34Z</time>
      </trkpt>
      <trkpt lat="45.67455" lon="5.84944">
        <ele>437.056519</ele>
        <time>2011-05-24T15:49:43Z</time>
      </trkpt>
      <trkpt lat="45.67452" lon="5.84955">
        <ele>436.095215</ele>
        <time>2011-05-24T15:49:49Z</time>
      </trkpt>
      <trkpt lat="45.67454" lon="5.84965">
        <ele>434.172607</ele>
        <time>2011-05-24T15:49:58Z</time>
      </trkpt>
      <trkpt lat="45.67452" lon="5.84971">
        <ele>433.691895</ele>
        <time>2011-05-24T15:50:03Z</time>
      </trkpt>
      <trkpt lat="45.67451" lon="5.84976">
        <ele>432.730713</ele>
        <time>2011-05-24T15:50:09Z</time>
      </trkpt>
      <trkpt lat="45.6745" lon="5.84987">
        <ele>432.25</ele>
        <time>2011-05-24T15:50:15Z</time>
      </trkpt>
      <trkpt lat="45.67453" lon="5.85008">
        <ele>430.807983</ele>
        <time>2011-05-24T15:50:23Z</time>
      </trkpt>
      <trkpt lat="45.67452" lon="5.85012">
        <ele>430.327271</ele>
        <time>2011-05-24T15:50:25Z</time>
      </trkpt>
      <trkpt lat="45.67444" lon="5.85019">
        <ele>429.365967</ele>
        <time>2011-05-24T15:50:32Z</time>
      </trkpt>
      <trkpt lat="45.67431" lon="5.85021">
        <ele>428.404663</ele>
        <time>2011-05-24T15:50:41Z</time>
      </trkpt>
      <trkpt lat="45.6742" lon="5.85024">
        <ele>427.443359</ele>
        <time>2011-05-24T15:50:51Z</time>
      </trkpt>
      <trkpt lat="45.67418" lon="5.85031">
        <ele>426.482056</ele>
        <time>2011-05-24T15:50:58Z</time>
      </trkpt>
      <trkpt lat="45.67416" lon="5.85039">
        <ele>425.520752</ele>
        <time>2011-05-24T15:51:05Z</time>
      </trkpt>
      <trkpt lat="45.67413" lon="5.85046">
        <ele>424.078735</ele>
        <time>2011-05-24T15:51:11Z</time>
      </trkpt>
      <trkpt lat="45.67409" lon="5.85057">
        <ele>423.117432</ele>
        <time>2011-05-24T15:51:18Z</time>
      </trkpt>
      <trkpt lat="45.67406" lon="5.85064">
        <ele>422.636719</ele>
        <time>2011-05-24T15:51:24Z</time>
      </trkpt>
      <trkpt lat="45.67403" lon="5.8507">
        <ele>421.675415</ele>
        <time>2011-05-24T15:51:29Z</time>
      </trkpt>
      <trkpt lat="45.67398" lon="5.85071">
        <ele>420.714111</ele>
        <time>2011-05-24T15:51:32Z</time>
      </trkpt>
      <trkpt lat="45.67385" lon="5.85074">
        <ele>418.791504</ele>
        <time>2011-05-24T15:51:41Z</time>
      </trkpt>
      <trkpt lat="45.67379" lon="5.85079">
        <ele>416.388184</ele>
        <time>2011-05-24T15:51:49Z</time>
      </trkpt>
      <trkpt lat="45.67379" lon="5.85081">
        <ele>415.907471</ele>
        <time>2011-05-24T15:51:55Z</time>
      </trkpt>
      <trkpt lat="45.67382" lon="5.85084">
        <ele>415.42688</ele>
        <time>2011-05-24T15:52:01Z</time>
      </trkpt>
      <trkpt lat="45.67384" lon="5.85085">
        <ele>414.946167</ele>
        <time>2011-05-24T15:52:02Z</time>
      </trkpt>
      <trkpt lat="45.67393" lon="5.85093">
        <ele>413.984863</ele>
        <time>2011-05-24T15:52:09Z</time>
      </trkpt>
      <trkpt lat="45.67397" lon="5.85096">
        <ele>413.02356</ele>
        <time>2011-05-24T15:52:14Z</time>
      </trkpt>
      <trkpt lat="45.67401" lon="5.851">
        <ele>411.581665</ele>
        <time>2011-05-24T15:52:20Z</time>
      </trkpt>
      <trkpt lat="45.67403" lon="5.85101">
        <ele>410.620239</ele>
        <time>2011-05-24T15:52:22Z</time>
      </trkpt>
      <trkpt lat="45.67408" lon="5.85105">
        <ele>408.697632</ele>
        <time>2011-05-24T15:52:30Z</time>
      </trkpt>
      <trkpt lat="45.67417" lon="5.85112">
        <ele>406.294312</ele>
        <time>2011-05-24T15:52:38Z</time>
      </trkpt>
      <trkpt lat="45.6742" lon="5.85113">
        <ele>405.333008</ele>
        <time>2011-05-24T15:52:42Z</time>
      </trkpt>
      <trkpt lat="45.67428" lon="5.85115">
        <ele>402.929688</ele>
        <time>2011-05-24T15:52:50Z</time>
      </trkpt>
      <trkpt lat="45.67436" lon="5.85118">
        <ele>401.487793</ele>
        <time>2011-05-24T15:52:59Z</time>
      </trkpt>
      <trkpt lat="45.67446" lon="5.85121">
        <ele>400.045898</ele>
        <time>2011-05-24T15:53:05Z</time>
      </trkpt>
      <trkpt lat="45.67451" lon="5.85125">
        <ele>399.565063</ele>
        <time>2011-05-24T15:53:09Z</time>
      </trkpt>
      <trkpt lat="45.67459" lon="5.85129">
        <ele>398.60376</ele>
        <time>2011-05-24T15:53:18Z</time>
      </trkpt>
      <trkpt lat="45.67464" lon="5.8513">
        <ele>397.642456</ele>
        <time>2011-05-24T15:53:24Z</time>
      </trkpt>
      <trkpt lat="45.67473" lon="5.85131">
        <ele>396.200562</ele>
        <time>2011-05-24T15:53:32Z</time>
      </trkpt>
      <trkpt lat="45.67482" lon="5.85131">
        <ele>394.758545</ele>
        <time>2011-05-24T15:53:40Z</time>
      </trkpt>
      <trkpt lat="45.67492" lon="5.85129">
        <ele>393.316528</ele>
        <time>2011-05-24T15:53:49Z</time>
      </trkpt>
      <trkpt lat="45.67503" lon="5.8513">
        <ele>391.874512</ele>
        <time>2011-05-24T15:53:58Z</time>
      </trkpt>
      <trkpt lat="45.67515" lon="5.85133">
        <ele>390.432617</ele>
        <time>2011-05-24T15:54:07Z</time>
      </trkpt>
      <trkpt lat="45.6752" lon="5.85133">
        <ele>389.951904</ele>
        <time>2011-05-24T15:54:14Z</time>
      </trkpt>
      <trkpt lat="45.67529" lon="5.85136">
        <ele>388.029297</ele>
        <time>2011-05-24T15:54:24Z</time>
      </trkpt>
      <trkpt lat="45.67534" lon="5.85137">
        <ele>386.587402</ele>
        <time>2011-05-24T15:54:31Z</time>
      </trkpt>
      <trkpt lat="45.67541" lon="5.8514">
        <ele>386.106689</ele>
        <time>2011-05-24T15:54:36Z</time>
      </trkpt>
      <trkpt lat="45.67542" lon="5.85141">
        <ele>386.106689</ele>
        <time>2011-05-24T15:54:37Z</time>
      </trkpt>
      <trkpt lat="45.67549" lon="5.85143">
        <ele>385.145386</ele>
        <time>2011-05-24T15:54:43Z</time>
      </trkpt>
      <trkpt lat="45.67555" lon="5.85147">
        <ele>384.184082</ele>
        <time>2011-05-24T15:54:48Z</time>
      </trkpt>
      <trkpt lat="45.67557" lon="5.85147">
        <ele>384.184082</ele>
        <time>2011-05-24T15:54:51Z</time>
      </trkpt>
      <trkpt lat="45.67566" lon="5.85149">
        <ele>383.703247</ele>
        <time>2011-05-24T15:55:01Z</time>
      </trkpt>
      <trkpt lat="45.6758" lon="5.85142">
        <ele>382.261353</ele>
        <time>2011-05-24T15:55:14Z</time>
      </trkpt>
      <trkpt lat="45.67594" lon="5.85135">
        <ele>380.338745</ele>
        <time>2011-05-24T15:55:26Z</time>
      </trkpt>
      <trkpt lat="45.67605" lon="5.85132">
        <ele>378.416138</ele>
        <time>2011-05-24T15:55:34Z</time>
      </trkpt>
      <trkpt lat="45.6761" lon="5.8513">
        <ele>376.49353</ele>
        <time>2011-05-24T15:55:42Z</time>
      </trkpt>
      <trkpt lat="45.67617" lon="5.85135">
        <ele>375.532104</ele>
        <time>2011-05-24T15:55:49Z</time>
      </trkpt>
      <trkpt lat="45.67626" lon="5.85143">
        <ele>374.570801</ele>
        <time>2011-05-24T15:56:05Z</time>
      </trkpt>
      <trkpt lat="45.67628" lon="5.85142">
        <ele>374.570801</ele>
        <time>2011-05-24T15:56:14Z</time>
      </trkpt>
      <trkpt lat="45.6763" lon="5.85145">
        <ele>373.609497</ele>
        <time>2011-05-24T15:56:26Z</time>
      </trkpt>
    </trkseg>
  </trk>
</gpx>